[[{"header":{"parameterUnit":"m.s-1","parameterCategory":1,"la1":30.6,"la2":28.766,"lo1":-90.7593,"lo2":-88.6598,"dy":0.0162,"dx":0.0183,"nx":116,"ny":114,"refTime":"2023-07-31T00:00:00:Z","depth":0,"parameterNumber":2,"parameterNumberName":"U-component_of_WINDS"},"data":[0.0,0.0,0.0,0.0,0.0,0.0,0.0,0.0,0.0,0.0,0.0,0.0,0.0,0.0,0.0,0.0,0.0,0.0,0.0,0.0,0.0,0.0,0.0,0.0,0.0,0.0,0.0,0.0,0.0,0.0,0.0,0.0,0.0,0.0,0.0,0.0,0.0,0.0,0.0,0.0,0.0,0.0,0.0,0.0,0.0,0.0,0.0,0.0,0.0,0.0,0.0,0.0,0.0,0.0,0.0,0.0,0.0,0.0,0.0,0.0,0.0,0.0,0.0,0.0,0.0,0.0,0.0,0.0,0.0,0.0,0.0,0.0,0.0,0.0,0.0,0.0,0.0,0.0,0.0,0.0,0.0,0.0,0.0,0.0,0.0,0.0,0.0,0.0,0.0,0.0,0.0,0.0,0.0,0.0,0.0,0.0,0.0,0.0,0.0,0.0,0.0,0.0,0.0,0.0,0.0,0.0,0.0,0.0,0.0,0.0,0.0,0.0,0.0,0.0,0.0,0.0,0.0,0.0,0.0,0.0,0.0,0.0,0.0,0.0,0.0,0.0,0.0,0.0,0.0,0.0,0.0,0.0,0.0,0.0,0.0,0.0,0.0,0.0,0.0,0.0,0.0,0.0,0.0,0.0,0.0,0.0,0.0,0.0,0.0,0.0,0.0,0.0,0.0,0.0,0.0,0.0,0.0,0.0,0.0,0.0,0.0,0.0,0.0,0.0,0.0,0.0,0.0,0.0,0.0,0.0,0.0,0.0,0.0,0.0,0.0,0.0,0.0,0.0,0.0,0.0,0.0,0.0,0.0,0.0,0.0,0.0,0.0,0.0,0.0,0.0,0.0,0.0,0.0,0.0,0.0,0.0,0.0,0.0,0.0,0.0,0.0,0.0,0.0,0.0,0.0,0.0,0.0,0.0,0.0,0.0,0.0,0.0,0.0,0.0,0.0,0.0,0.0,0.0,0.0,0.0,0.0,0.0,0.0,0.0,0.0,0.0,0.0,0.0,0.0,0.0,0.0,0.0,0.0,0.0,0.0,0.0,0.0,0.0,0.0,0.0,0.0,0.0,0.0,0.0,0.0,0.0,0.0,0.0,0.0,0.0,0.0,0.0,0.0,0.0,0.0,0.0,0.0,0.0,0.0,0.0,0.0,0.0,0.0,0.0,0.0,0.0,0.0,0.0,0.0,0.0,0.0,0.0,0.0,0.0,0.0,0.0,0.0,0.0,0.0,0.0,0.0,0.0,0.0,0.0,0.0,0.0,0.0,0.0,0.0,0.0,0.0,0.0,0.0,0.0,0.0,0.0,0.0,0.0,0.0,0.0,0.0,0.0,0.0,0.0,0.0,0.0,0.0,0.0,0.0,0.0,0.0,0.0,0.0,0.0,0.0,0.0,0.0,0.0,0.0,0.0,0.0,0.0,0.0,0.0,0.0,0.0,0.0,0.0,0.0,0.0,0.0,0.0,0.0,0.0,0.0,0.0,0.0,0.0,0.0,0.0,0.0,0.0,0.0,0.0,0.0,0.0,0.0,0.0,0.0,0.0,0.0,0.0,0.0,0.0,0.0,0.0,0.0,0.0,0.0,0.0,0.0,0.0,0.0,0.0,0.0,0.0,0.0,0.0,0.0,0.0,0.0,0.0,0.0,0.0,0.0,0.0,0.0,0.0,0.0,0.0,0.0,0.0,0.0,0.0,0.0,0.0,0.0,0.0,0.0,0.0,0.0,0.0,0.0,0.0,0.0,0.0,0.0,0.0,0.0,0.0,0.0,0.0,0.0,0.0,0.0,0.0,0.0,0.0,0.0,0.0,0.0,0.0,0.0,0.0,0.0,0.0,0.0,0.0,0.0,0.0,0.0,0.0,0.0,0.0,0.0,0.0,0.0,0.0,0.0,0.0,0.0,0.0,0.0,0.0,0.0,0.0,0.0,0.0,0.0,0.0,0.0,0.0,0.0,0.0,0.0,0.0,0.0,0.0,0.0,0.0,0.0,0.0,0.0,0.0,0.0,0.0,0.0,0.0,0.0,0.0,0.0,0.0,0.0,0.0,0.0,0.0,0.0,0.0,0.0,0.0,0.0,0.0,0.0,0.0,0.0,0.0,0.0,0.0,0.0,0.0,0.0,0.0,0.0,0.0,0.0,0.0,0.0,0.0,0.0,0.0,0.0,0.0,0.0,0.0,0.0,0.0,0.0,0.0,0.0,0.0,0.0,0.0,0.0,0.0,0.0,0.0,0.0,0.0,0.0,0.0,0.0,0.0,0.0,0.0,0.0,0.0,0.0,0.0,0.0,0.0,0.0,0.0,0.0,0.0,0.0,0.0,0.0,0.0,0.0,0.0,0.0,0.0,0.0,0.0,0.0,0.0,0.0,0.0,0.0,0.0,0.0,0.0,0.0,0.0,0.0,0.0,0.0,0.0,0.0,0.0,0.0,0.0,0.0,0.0,0.0,0.0,0.0,0.0,0.0,0.0,0.0,0.0,0.0,0.0,0.0,0.0,0.0,0.0,0.0,0.0,0.0,0.0,0.0,0.0,0.0,0.0,0.0,0.0,0.0,0.0,0.0,0.0,0.0,0.0,0.0,0.0,0.0,0.0,0.0,0.0,0.0,0.0,0.0,0.0,0.0,0.0,0.0,0.0,0.0,0.0,0.0,0.0,0.0,0.0,0.0,0.0,0.0,0.0,0.0,0.0,0.0,0.0,0.0,0.0,0.0,0.0,0.0,0.0,0.0,0.0,0.0,0.0,0.0,0.0,0.0,0.0,0.0,0.0,0.0,0.0,0.0,0.0,0.0,0.0,0.0,0.0,0.0,0.0,0.0,0.0,0.0,0.0,0.0,0.0,0.0,0.0,0.0,0.0,0.0,0.0,0.0,0.0,0.0,0.0,0.0,0.0,0.0,0.0,0.0,0.0,0.0,0.0,0.0,0.0,0.0,0.0,0.0,0.0,0.0,0.0,0.0,0.0,0.0,0.0,0.0,0.0,0.0,0.0,0.0,0.0,0.0,0.0,0.0,0.0,0.0,0.0,0.0,0.0,0.0,0.0,0.0,0.0,0.0,0.0,0.0,0.0,0.0,0.0,0.0,0.0,0.0,0.0,0.0,0.0,0.0,0.0,0.0,0.0,0.0,0.0,0.0,0.0,0.0,0.0,0.0,0.0,0.0,0.0,0.0,0.0,0.0,0.0,0.0,0.0,0.0,0.0,0.0,0.0,0.0,0.0,0.0,0.0,0.0,0.0,0.0,0.0,0.0,0.0,0.0,0.0,0.0,0.0,0.0,0.0,0.0,0.0,0.0,0.0,0.0,0.0,0.0,0.0,0.0,0.0,0.0,0.0,0.0,0.0,0.0,0.0,0.0,0.0,0.0,0.0,0.0,0.0,0.0,0.0,0.0,0.0,0.0,0.0,0.0,0.0,0.0,0.0,0.0,0.0,0.0,0.0,0.0,0.0,0.0,0.0,0.0,0.0,0.0,0.0,0.0,0.0,0.0,0.0,0.0,0.0,0.0,0.0,0.0,0.0,0.0,0.0,0.0,0.0,0.0,0.0,0.0,0.0,0.0,0.0,0.0,0.0,0.0,0.0,0.0,0.0,0.0,0.0,0.0,0.0,0.0,0.0,0.0,0.0,0.0,0.0,0.0,0.0,0.0,0.0,0.0,0.0,0.0,0.0,0.0,0.0,0.0,0.0,0.0,0.0,0.0,0.0,0.0,0.0,0.0,0.0,0.0,0.0,0.0,0.0,0.0,0.0,0.0,0.0,0.0,0.0,0.0,0.0,0.0,0.0,0.0,0.0,0.0,0.0,0.0,0.0,0.0,0.0,0.0,0.0,0.0,0.0,0.0,0.0,0.0,0.0,0.0,0.0,0.0,0.0,0.0,0.0,0.0,0.0,0.0,0.0,0.0,0.0,0.0,0.0,0.0,0.0,0.0,0.0,0.0,0.0,0.0,0.0,0.0,0.0,0.0,0.0,0.0,0.0,0.0,0.0,0.0,0.0,0.0,0.0,0.0,0.0,0.0,0.0,0.0,0.0,0.0,0.0,0.0,0.0,0.0,0.0,0.0,0.0,0.0,0.0,0.0,0.0,0.0,0.0,0.0,0.0,0.0,0.0,0.0,0.0,0.0,0.0,0.0,0.0,0.0,0.0,0.0,0.0,0.0,0.0,0.0,0.0,0.0,0.0,0.0,0.0,0.0,0.0,0.0,0.0,0.0,0.0,0.0,0.0,0.0,0.0,0.0,0.0,0.0,0.0,0.0,0.0,0.0,0.0,0.0,0.0,0.0,0.0,0.0,0.0,0.0,0.0,0.0,0.0,0.0,0.0,0.0,0.0,0.0,0.0,0.0,0.0,0.0,0.0,0.0,0.0,0.0,0.0,0.0,0.0,0.0,0.0,0.0,0.0,0.0,0.0,0.0,0.0,0.0,0.0,0.0,0.0,0.0,0.0,0.0,0.0,0.0,0.0,0.0,0.0,0.0,0.0,0.0,0.0,0.0,0.0,0.0,0.0,0.0,0.0,0.0,0.0,0.0,0.0,0.0,0.0,0.0,0.0,0.0,0.0,0.0,0.0,0.0,0.0,0.0,0.0,0.0,0.0,0.0,0.0,0.0,0.0,0.0,0.0,0.0,0.0,0.0,0.0,0.0,0.0,0.0,0.0,0.0,0.0,0.0,0.0,0.0,0.0,0.0,0.0,0.0,0.0,0.0,0.0,0.0,0.0,0.0,0.0,0.0,0.0,0.0,0.0,0.0,0.0,0.0,0.0,0.0,0.0,0.0,0.0,0.0,0.0,0.0,0.0,0.0,0.0,0.0,0.0,0.0,0.0,0.0,0.0,0.0,0.0,0.0,0.0,0.0,0.0,0.0,0.0,0.0,0.0,0.0,0.0,0.0,0.0,0.0,0.0,0.0,0.0,0.0,0.0,0.0,0.0,0.0,0.0,0.0,0.0,0.0,0.0,0.0,0.0,0.0,0.0,0.0,0.0,0.0,0.0,0.0,0.0,0.0,0.0,0.0,0.0,0.0,0.0,0.0,0.0,0.0,0.0,0.0,0.0,0.0,0.0,0.0,0.0,0.0,0.0,0.0,0.0,0.0,0.0,0.0,0.0,0.0,0.0,0.0,0.0,0.0,0.0,0.0,0.0,0.0,0.0,0.0,0.0,0.0,0.0,0.0,0.0,0.0,0.0,0.0,0.0,0.0,0.0,0.0,0.0,0.0,0.0,0.0,0.0,0.0,0.0,0.0,0.0,0.0,0.0,0.0,0.0,0.0,0.0,0.0,0.0,0.0,0.0,0.0,0.0,0.0,0.0,0.0,0.0,0.0,0.0,0.0,0.0,0.0,0.0,0.0,0.0,0.0,0.0,0.0,0.0,0.0,0.0,0.0,0.0,0.0,0.0,0.0,0.0,0.0,0.0,0.0,0.0,0.0,0.0,0.0,0.0,0.0,0.0,0.0,0.0,0.0,0.0,0.0,0.0,0.0,0.0,0.0,0.0,0.0,0.0,0.0,0.0,0.0,0.0,0.0,0.0,0.0,0.0,0.0,0.0,0.0,0.0,0.0,0.0,0.0,0.0,0.0,0.0,0.0,0.0,0.0,0.0,0.0,0.0,0.0,0.0,0.0,0.0,0.0,0.0,0.0,0.0,0.0,0.0,0.0,0.0,0.0,0.0,0.0,0.0,0.0,0.0,0.0,0.0,0.0,0.0,0.0,0.0,0.0,0.0,0.0,0.0,0.0,0.0,0.0,0.0,0.0,0.0,0.0,0.0,0.0,0.0,0.0,0.0,0.0,0.0,0.0,0.0,0.0,0.0,0.0,0.0,0.0,0.0,0.0,0.0,0.0,0.0,0.0,0.0,0.0,0.0,0.0,0.0,0.0,0.0,0.0,0.0,0.0,0.0,0.0,0.0,0.0,0.0,0.0,0.0,0.0,0.0,0.0,0.0,0.0,0.0,0.0,0.0,0.0,0.0,0.0,0.0,0.0,0.0,0.0,0.0,0.0,0.0,0.0,0.0,0.0,0.0,0.0,0.0,0.0,0.0,0.0,0.0,0.0,0.0,0.0,0.0,0.0,0.0,0.0,0.0,-3.0046,0.0,0.0,0.0,0.0,0.0,0.0,0.0,0.0,0.0,0.0,0.0,0.0,0.0,0.0,0.0,0.0,0.0,0.0,0.0,0.0,0.0,0.0,0.0,0.0,0.0,0.0,0.0,0.0,0.0,0.0,0.0,0.0,0.0,0.0,0.0,0.0,0.0,0.0,0.0,-3.6248,-3.6807,-3.7086,-3.8141,-3.8189,-3.7373,0.0,0.0,0.0,0.0,0.0,0.0,0.0,0.0,0.0,0.0,0.0,0.0,0.0,0.0,0.0,0.0,0.0,0.0,0.0,0.0,0.0,0.0,0.0,0.0,0.0,0.0,0.0,0.0,0.0,0.0,0.0,0.0,0.0,0.0,0.0,0.0,0.0,0.0,0.0,0.0,0.0,0.0,0.0,0.0,0.0,0.0,0.0,0.0,0.0,0.0,0.0,0.0,0.0,0.0,0.0,0.0,0.0,0.0,0.0,0.0,0.0,0.0,0.0,0.0,0.0,0.0,0.0,0.0,0.0,0.0,0.0,-3.0109,0.0,0.0,0.0,0.0,0.0,0.0,0.0,0.0,0.0,0.0,0.0,0.0,0.0,0.0,0.0,0.0,0.0,0.0,0.0,0.0,0.0,0.0,0.0,0.0,0.0,0.0,0.0,0.0,0.0,0.0,0.0,0.0,0.0,0.0,0.0,-3.455,-3.4823,-3.4687,-3.4739,-3.5613,-3.7262,-3.7789,-3.7729,-3.7198,-3.7498,0.0,0.0,0.0,0.0,0.0,0.0,0.0,0.0,0.0,0.0,0.0,0.0,0.0,0.0,0.0,0.0,0.0,0.0,0.0,0.0,0.0,0.0,0.0,0.0,0.0,0.0,0.0,0.0,0.0,0.0,0.0,0.0,0.0,0.0,0.0,0.0,0.0,0.0,0.0,0.0,0.0,0.0,0.0,0.0,0.0,0.0,0.0,0.0,0.0,0.0,0.0,0.0,0.0,0.0,0.0,0.0,0.0,0.0,0.0,0.0,0.0,0.0,0.0,0.0,-3.728,-3.6371,-3.6966,-3.6417,-3.5005,-3.303,-3.0605,-2.8153,0.0,0.0,0.0,0.0,0.0,0.0,0.0,0.0,0.0,0.0,0.0,0.0,0.0,0.0,0.0,0.0,0.0,0.0,0.0,0.0,0.0,0.0,0.0,0.0,0.0,0.0,0.0,0.0,0.0,0.0,0.0,0.0,0.0,-3.5664,-3.571,-3.5366,-3.461,-3.5184,-3.6555,-3.8642,-3.9354,-3.9483,-3.9037,-3.7064,-3.6875,-3.7913,0.0,0.0,0.0,0.0,0.0,0.0,0.0,0.0,0.0,0.0,0.0,0.0,0.0,0.0,0.0,0.0,0.0,0.0,0.0,0.0,0.0,0.0,0.0,0.0,0.0,0.0,0.0,0.0,0.0,0.0,0.0,0.0,0.0,0.0,0.0,0.0,0.0,0.0,0.0,0.0,0.0,-3.2841,-3.3694,0.0,0.0,0.0,0.0,0.0,0.0,0.0,0.0,0.0,0.0,0.0,0.0,0.0,0.0,-3.8139,-3.9136,-3.9255,-3.8662,-4.0646,-4.0849,-3.9479,-3.9004,-3.8361,-3.7477,-3.5914,0.0,-3.0741,-2.9319,0.0,0.0,0.0,0.0,0.0,0.0,0.0,0.0,0.0,0.0,0.0,0.0,0.0,0.0,0.0,0.0,0.0,0.0,0.0,0.0,0.0,0.0,0.0,0.0,0.0,0.0,0.0,0.0,0.0,0.0,0.0,-3.5951,-3.5996,-3.5485,-3.521,-3.5226,-3.691,-3.8105,-3.88,-3.9466,-3.9599,-3.9212,-3.8018,-3.7773,-3.8218,-3.6893,0.0,0.0,0.0,0.0,0.0,0.0,0.0,0.0,0.0,0.0,0.0,0.0,0.0,0.0,0.0,0.0,0.0,0.0,0.0,0.0,0.0,0.0,0.0,0.0,0.0,0.0,0.0,0.0,0.0,0.0,0.0,0.0,0.0,0.0,0.0,0.0,0.0,0.0,0.0,-3.3355,-3.5218,-3.3493,-3.5045,-3.5456,0.0,0.0,0.0,0.0,0.0,0.0,0.0,0.0,0.0,-3.9641,-3.9993,-4.0521,-4.1272,-4.2155,-4.2455,-4.2151,-4.3115,-4.3014,-4.1912,-4.1228,-4.0001,-3.8472,-3.7408,-3.5508,-3.3029,-3.1549,-2.9811,-2.8098,0.0,0.0,0.0,0.0,0.0,-2.6243,0.0,0.0,0.0,0.0,0.0,0.0,0.0,0.0,0.0,0.0,0.0,0.0,0.0,0.0,0.0,-3.977,0.0,0.0,0.0,0.0,0.0,0.0,-3.5666,-3.5921,-3.5996,-3.5523,-3.5825,-3.693,-3.9004,-3.9957,-3.988,-4.056,-4.0633,-4.0211,-4.0025,-3.9579,-3.8971,-3.8206,-3.6351,-3.3815,0.0,0.0,0.0,0.0,0.0,0.0,0.0,0.0,0.0,0.0,0.0,0.0,0.0,0.0,0.0,0.0,0.0,0.0,0.0,0.0,0.0,0.0,0.0,0.0,0.0,0.0,0.0,0.0,0.0,0.0,0.0,0.0,0.0,0.0,0.0,0.0,0.0,-3.5179,-3.7089,-3.3573,-3.6482,-3.7596,0.0,0.0,0.0,0.0,0.0,0.0,-3.9988,-4.0333,-4.1206,-4.2826,-4.3076,-4.3521,-4.4265,-4.4857,-4.5145,-4.5145,-4.4959,-4.457,-4.3978,-4.3014,-4.156,-3.9715,-3.9016,-3.7488,-3.5476,-3.3444,-3.1317,-2.9325,-2.8981,-2.8532,0.0,-2.7904,-2.7844,-2.7814,0.0,0.0,0.0,0.0,0.0,0.0,0.0,0.0,0.0,0.0,0.0,0.0,0.0,0.0,-3.8982,-4.0754,-4.0856,-4.0462,0.0,0.0,0.0,-3.7004,-3.627,-3.5921,-3.5996,-3.6582,-3.7987,-4.025,-4.1216,-4.2164,-4.3089,-4.3938,-4.397,-4.3275,-4.3275,-4.2411,-4.0772,-3.7969,-3.6224,-3.512,-3.3047,0.0,0.0,0.0,0.0,0.0,0.0,0.0,0.0,0.0,0.0,0.0,0.0,0.0,0.0,0.0,0.0,0.0,0.0,0.0,0.0,0.0,0.0,0.0,0.0,0.0,0.0,0.0,0.0,0.0,0.0,0.0,0.0,0.0,0.0,0.0,0.0,0.0,0.0,-3.531,-3.9762,0.0,0.0,0.0,0.0,-4.0616,-4.0148,-4.0935,-4.3607,-4.3145,-4.3631,-4.5456,-4.5517,-4.5872,-4.6616,-4.6667,-4.6684,-4.6667,-4.5974,-4.5618,-4.5534,-4.4045,-4.2892,-4.2078,-4.1353,-4.0124,-3.8351,-3.4195,-3.2033,-3.1198,-3.0013,-2.9505,-2.94,-2.8771,-2.8547,-2.8457,0.0,0.0,0.0,0.0,0.0,0.0,0.0,0.0,0.0,0.0,0.0,0.0,0.0,-4.2066,-4.3557,-4.422,-4.5253,-4.5073,-4.317,0.0,0.0,-3.8046,-3.7172,-3.6726,-3.6716,-3.7907,-3.9483,-4.1407,-4.2749,-4.3655,-4.4146,-4.4448,-4.4213,-4.3497,-4.3497,-4.2892,-4.1735,-3.9639,-3.7358,-3.4942,-3.2803,-3.1524,0.0,0.0,0.0,0.0,0.0,0.0,0.0,0.0,0.0,0.0,0.0,0.0,0.0,0.0,0.0,0.0,0.0,0.0,0.0,0.0,0.0,0.0,0.0,0.0,0.0,0.0,0.0,0.0,0.0,0.0,0.0,0.0,0.0,0.0,0.0,0.0,0.0,-3.8582,-4.2556,0.0,-4.1015,-4.1374,-4.2451,-4.4066,-4.4536,-4.5423,-4.6949,-4.737,-4.7636,-4.78,-4.7817,-4.7953,-4.8206,-4.775,-4.7513,-4.7496,-4.6295,-4.5703,-4.5652,-4.4113,-4.2707,-4.1549,-4.0817,-3.9616,-3.8084,-3.6532,-3.4953,-3.3426,-3.2025,-3.0941,-3.0148,-2.9909,-2.9579,-2.919,0.0,0.0,0.0,0.0,0.0,0.0,0.0,0.0,0.0,0.0,0.0,-4.0548,-4.1168,-4.3629,-4.5604,-4.6462,-4.7048,-4.6618,-4.4878,0.0,0.0,-3.8463,-3.7882,-3.7693,-3.7877,-3.9712,-4.1358,-4.272,-4.4058,-4.4748,-4.4776,-4.4657,-4.4252,-4.3679,-4.3548,-4.3039,-4.2213,-4.0873,-3.8432,-3.5238,-3.2988,-3.2206,-3.2142,0.0,0.0,0.0,0.0,0.0,0.0,0.0,0.0,0.0,0.0,0.0,0.0,0.0,0.0,0.0,0.0,0.0,0.0,0.0,0.0,0.0,0.0,0.0,0.0,0.0,0.0,0.0,0.0,0.0,0.0,0.0,0.0,0.0,0.0,0.0,-4.2465,-4.1434,-4.5234,-4.6768,-4.3805,-4.4488,-4.5792,-4.7425,-4.7933,-4.8595,-4.9475,-4.9849,-4.9722,-4.9001,-4.9001,-4.9001,-4.9001,-4.8291,-4.7919,-4.7902,-4.6413,-4.5703,-4.5652,-4.4113,-4.2707,-4.1549,-4.0817,-3.9743,-3.8541,-3.8262,-3.7359,-3.5941,-3.3959,-3.2531,-3.1516,-3.1039,-3.0597,-3.0178,0.0,0.0,0.0,0.0,0.0,0.0,0.0,0.0,0.0,0.0,-3.8585,-4.0376,-4.2104,-4.315,-4.4723,-4.7186,-4.5748,-4.4657,-4.4555,-4.1342,0.0,-3.8424,-3.8389,-3.8741,-3.9499,-4.1925,-4.3564,-4.4335,-4.5182,-4.5419,-4.5096,-4.4776,-4.4401,-4.3998,-4.3679,-4.3073,-4.2283,-4.1479,-3.9331,-3.6229,-3.3697,-3.2847,-3.2906,0.0,0.0,0.0,0.0,0.0,0.0,0.0,0.0,0.0,0.0,0.0,0.0,0.0,0.0,0.0,0.0,0.0,0.0,0.0,0.0,0.0,0.0,0.0,0.0,0.0,0.0,0.0,0.0,0.0,0.0,0.0,0.0,0.0,-3.9515,-4.378,-4.6088,-4.38,-4.7862,-4.9596,-4.6396,-4.7517,-4.9132,-5.0747,-5.0221,-5.021,-5.1118,-5.048,-4.9739,-4.9046,-4.9001,-4.9001,-4.9001,-4.8257,-4.7885,-4.7868,-4.638,-4.5652,-4.5585,-4.4096,-4.2997,-4.2219,-4.1508,-4.0781,-4.002,-3.9262,-3.8908,-3.8652,-3.5868,-3.4359,-3.3531,-3.214,-3.1569,-3.1287,0.0,0.0,0.0,0.0,0.0,0.0,0.0,0.0,0.0,0.0,-4.0233,-4.2451,-4.2303,-4.4813,-4.6777,-4.7478,-4.5791,-4.4966,-4.5631,0.0,-4.0365,-4.0257,-3.8918,-3.9421,-4.2099,-4.2802,-4.3827,-4.524,-4.547,-4.5419,-4.5096,-4.5007,-4.4781,-4.4419,-4.4016,-4.3435,-4.2625,-4.2161,-4.113,-3.946,-3.5797,-3.45,-3.4519,0.0,0.0,0.0,0.0,0.0,0.0,0.0,0.0,0.0,0.0,0.0,0.0,0.0,0.0,0.0,0.0,0.0,0.0,0.0,0.0,0.0,0.0,0.0,0.0,0.0,0.0,0.0,0.0,0.0,0.0,0.0,0.0,-4.3731,-4.2718,-4.5681,-4.8071,-4.8297,-5.0553,-5.1636,-5.0441,-5.1261,-5.205,-5.2527,-5.2871,-5.2744,-5.1856,-5.1721,-5.1094,-4.9797,-4.9256,-4.9001,-4.9001,-4.7733,-4.7107,-4.7073,-4.5602,-4.4604,-4.4028,-4.3606,-4.2726,-4.1491,-4.1288,-4.0781,-4.007,-3.985,-3.9782,-3.9577,-3.7673,-3.5886,-3.4379,-3.3979,-3.2859,-3.1287,0.0,0.0,0.0,0.0,0.0,0.0,0.0,0.0,0.0,0.0,-3.9889,-4.2117,-4.0884,-4.3865,-4.5937,-4.5889,-4.4538,-4.3747,-4.3837,0.0,-4.009,-3.9804,-3.9929,-4.0926,-4.2852,-4.3446,-4.4267,-4.54,-4.54,-4.5362,-4.5302,-4.518,-4.5007,-4.4781,-4.4401,-4.3999,-4.3531,-4.2965,-4.2569,-4.2031,-3.8995,-3.7572,-3.698,-3.4197,-3.3425,-3.3846,-3.3734,-3.3827,-3.3913,-3.3162,0.0,0.0,0.0,0.0,0.0,0.0,0.0,0.0,0.0,0.0,0.0,0.0,0.0,0.0,0.0,0.0,0.0,0.0,0.0,0.0,0.0,0.0,0.0,0.0,-4.5201,-4.7876,-4.8235,-4.9519,-5.0669,-5.1373,-5.26,-5.3143,-5.2573,-5.2931,-5.3206,-5.3206,-5.3628,-5.3368,-5.2177,-5.2189,-5.1546,-5.005,-4.9622,-4.9256,-4.9001,-4.753,-4.6786,-4.6769,-4.4959,-4.4028,-4.3876,-4.3234,-4.2472,0.0,-4.1339,-4.0781,-4.007,-4.007,-4.007,0.0,0.0,0.0,0.0,0.0,-3.2576,-3.1317,0.0,0.0,0.0,0.0,0.0,0.0,0.0,0.0,0.0,0.0,0.0,-4.0351,-3.8496,-4.1269,-4.3258,-4.3244,-4.2381,-4.1526,0.0,-3.9874,-3.9216,-3.8833,-4.1309,-4.268,-4.2656,-4.3942,-4.4719,-4.4963,-4.5058,-4.5263,-4.5586,-4.5302,-4.5159,-4.514,-4.4825,-4.4676,-4.4619,-4.3775,-4.3678,-4.3867,-4.235,-4.1,-3.957,-3.6578,-3.5789,-3.6303,-3.6303,-3.5459,-3.4449,-3.5073,0.0,0.0,0.0,0.0,0.0,0.0,0.0,0.0,0.0,0.0,0.0,0.0,0.0,0.0,0.0,0.0,0.0,0.0,0.0,0.0,0.0,0.0,0.0,0.0,-4.874,-5.1798,-5.4164,-5.3914,-5.3483,-5.3471,-5.4088,-5.4137,-5.3272,-5.3298,-5.3316,-5.3225,-5.3298,-5.3028,-5.2271,0.0,0.0,0.0,0.0,-4.9543,-4.8883,-4.7411,-4.6667,-4.665,-4.4553,-4.3826,-4.4265,-4.2912,-4.2202,-4.1999,-4.1356,-4.0696,-4.007,-4.007,-4.002,-3.9649,-3.7582,-3.6381,-3.545,-3.2658,-3.1586,0.0,0.0,0.0,0.0,0.0,0.0,0.0,0.0,0.0,0.0,-3.4849,-3.7849,-3.9198,-3.6687,-3.8943,-4.0918,-4.16,-4.012,-3.9619,-4.071,-3.9862,-4.0491,-4.3137,-4.2789,-4.2887,-4.3613,-4.4289,-4.4435,-4.4128,-4.4794,-4.5263,-4.5586,-4.5531,-4.5495,-4.5495,-4.514,-4.4988,-4.4988,-4.4537,-4.4195,-4.3923,-4.2965,-4.1501,-3.9753,-3.8469,-3.7276,-3.6303,-3.6303,-3.6927,-3.7679,-3.7165,-3.7239,-3.7276,-3.5807,-3.4871,0.0,0.0,0.0,0.0,0.0,0.0,0.0,0.0,0.0,0.0,0.0,0.0,0.0,0.0,0.0,0.0,0.0,0.0,0.0,-4.7124,-5.0491,-5.3126,-5.4337,-5.4914,-5.5227,-5.5233,-5.4786,-5.4137,-5.3272,-5.3794,-5.3904,-5.3261,-5.3812,-5.3824,-5.3035,-5.2427,0.0,-5.0929,-4.9742,-4.881,-4.8122,-4.665,-4.5923,-4.5906,0.0,0.0,-4.2726,-4.2422,-4.1644,-4.0493,-4.0358,-4.0206,-4.007,-4.007,-3.9378,-3.8157,-3.7189,-3.6342,-3.5338,-3.3123,-3.2332,-3.2153,0.0,0.0,0.0,0.0,0.0,0.0,0.0,0.0,0.0,0.0,-3.722,-3.8483,-3.6732,-3.855,-3.9902,-3.9902,-3.8544,-3.8377,-3.9985,-4.0222,-4.1259,-4.3415,-4.3342,-4.346,-4.3945,-4.4017,-4.4102,-4.4246,-4.4664,-4.5118,-4.5586,-4.5586,-4.5586,-4.5586,-4.5419,-4.5342,-4.5342,-4.5161,-4.49,-4.4497,-4.3922,-4.2762,-4.1206,-3.9829,-3.8542,-3.7496,-3.7496,-3.7753,-3.8102,-3.8102,-3.8102,-3.7955,-3.7147,-3.7007,-3.6697,0.0,0.0,0.0,0.0,0.0,0.0,0.0,0.0,0.0,0.0,0.0,0.0,0.0,0.0,-3.9978,0.0,0.0,-4.7216,-5.0267,-5.3186,-5.5415,-5.628,-5.6742,-5.6529,-5.5252,-5.4729,-5.4137,-5.3272,-5.394,-5.4234,-5.383,-5.4546,-5.4638,-5.3849,-5.346,-5.2593,-5.1155,-5.0031,-4.8962,-4.7919,-4.6447,-4.5703,-4.5703,-4.4536,-4.3606,-4.2844,-4.2472,-4.1694,-4.0646,-4.0646,-4.0426,-4.007,-4.007,-3.9185,-3.7783,-3.7448,-3.6374,-3.4886,-3.3517,-3.2796,-3.2422,0.0,0.0,0.0,0.0,0.0,0.0,0.0,0.0,0.0,0.0,-3.659,-3.7761,-3.6752,-3.8258,-3.9056,0.0,0.0,-3.8131,-3.9681,-4.0588,-4.1623,-4.2835,-4.3444,-4.3774,-4.3774,-4.3586,-4.3749,-4.4256,-4.4478,-4.4919,-4.5495,-4.5568,-4.5586,-4.5586,-4.5586,-4.5586,-4.5586,-4.5586,-4.5419,-4.5074,-4.4825,-4.3939,-4.2619,-4.0898,-3.9608,-3.867,-3.8358,-3.7617,-3.6996,-3.7971,-3.7919,-3.746,-3.7802,-3.8525,-3.8746,-3.5972,-3.6084,0.0,0.0,0.0,0.0,0.0,0.0,0.0,0.0,-3.5794,-3.673,-3.8518,-4.0328,-4.2618,-4.5925,-4.7824,-4.9924,-5.312,-5.5421,-5.7037,-5.7703,-5.78,-5.6994,-5.4871,-5.4566,-5.4171,-5.34,-5.3946,-5.4344,-5.4179,-5.506,-5.517,-5.4216,-5.4326,-5.339,-5.1173,-5.0394,-4.9274,-4.7699,-4.638,-4.5635,-4.5466,-4.4079,-4.3335,-4.3166,-4.2422,-4.1677,-4.0984,-4.0984,-4.0646,-4.007,-4.007,-3.9279,-3.7978,-3.7863,-3.6643,-3.484,-3.4,-3.3275,-3.2691,0.0,0.0,0.0,0.0,0.0,0.0,0.0,0.0,0.0,0.0,0.0,0.0,0.0,0.0,0.0,0.0,-3.8373,-3.9707,-4.1081,-4.0576,-4.1464,-4.4241,-4.3456,-4.2947,-4.2947,-4.331,-4.3342,-4.2986,-4.407,-4.4781,-4.5161,-4.5457,-4.5586,-4.5586,-4.5586,-4.5586,-4.5586,-4.5586,-4.5419,-4.5096,-4.5052,-4.4128,-4.2704,-4.1752,-4.0274,-3.8505,-3.7074,-3.5653,-3.4717,-3.6389,-3.6995,-3.7319,-3.8812,-3.9411,-3.9222,-3.7642,-3.6309,-3.5193,-3.4312,-3.3564,-3.3665,-3.6287,-3.593,-3.631,0.0,-4.144,-4.0858,-4.3309,-4.4786,-4.6377,-4.875,-5.0535,-5.2302,-5.4254,-5.5385,-5.6017,-5.5996,-5.5992,-5.5765,-5.5126,-5.472,-5.4288,-5.3777,-5.4142,-5.4106,-5.339,-5.473,-5.4932,-5.3427,-5.4014,-5.339,-5.1173,-5.0394,-4.9012,-4.6921,-4.6109,-4.5365,-4.4688,-4.3826,-4.3064,-4.2388,-4.166,-4.0916,-4.0206,-4.0206,-4.0155,-4.007,-4.007,-3.9558,-3.869,-3.8035,-3.7243,-3.6183,-3.4861,-3.3948,-3.3305,0.0,0.0,0.0,0.0,0.0,0.0,0.0,0.0,0.0,0.0,0.0,0.0,0.0,0.0,0.0,-3.6278,-3.7549,-3.9022,-4.0499,-4.0836,-4.195,-4.4168,-4.3578,-4.3227,-4.3227,-4.3398,-4.3513,-4.3495,-4.425,-4.4757,-4.5096,-4.5438,-4.5586,-4.5586,-4.5586,-4.5586,-4.5586,-4.5586,-4.5513,-4.5362,-4.518,-4.4406,-4.3215,-4.1713,-3.9432,-3.6894,-3.6081,-3.4847,0.0,-3.3949,-3.4689,-3.5735,-3.6923,-3.8115,-3.8854,-3.7814,-3.7863,-3.7974,-3.6743,-3.6711,-3.7066,-3.724,-3.803,-3.9427,-4.1785,-4.1779,-4.2021,-4.4742,-4.6244,-4.7737,-4.9954,-5.1647,-5.3161,0.0,-5.5745,-5.6502,-5.6456,-5.6011,-5.5467,-5.4814,-5.4154,-5.3762,-5.3795,-5.4183,-5.4454,-5.4583,-5.5647,-5.5794,-5.4656,-5.4473,-5.3172,-5.0518,-4.9295,-4.7875,-4.616,-4.5415,-4.4891,-4.457,-4.3792,-4.3014,-4.2269,-4.1542,-4.0798,-4.007,-4.007,-4.007,-4.007,-4.007,-3.961,-3.8854,-3.858,-3.7716,-3.6461,-3.5465,-3.4397,-3.3455,0.0,0.0,0.0,0.0,0.0,0.0,0.0,0.0,0.0,0.0,0.0,0.0,0.0,0.0,0.0,-3.5925,-3.6954,-3.8169,-3.9342,-4.0345,-4.1686,-4.3472,-4.3299,-4.3259,-4.3497,-4.3497,-4.3679,-4.4016,-4.4401,-4.4757,-4.5096,-4.5208,-4.5355,-4.5586,-4.5336,-4.5355,-4.5586,-4.5586,-4.5586,-4.5586,-4.5342,-4.4664,-4.3547,-4.1162,-3.8464,-3.5833,-3.5124,-3.3648,0.0,-3.1986,-3.2914,-3.4281,-3.5344,-3.6976,-3.8401,-3.7809,-3.8501,-3.9165,-3.7855,-3.8379,-3.9086,-3.8183,-3.996,-4.1943,-4.2073,-4.2258,-4.313,-4.5519,-4.6587,-4.7783,-4.9992,-5.1597,-5.2952,-5.4146,-5.5477,-5.6366,-5.6321,-5.5549,-5.478,-5.4203,-5.3191,-5.2723,-5.3246,-5.3783,-5.4308,-5.4876,-5.5684,-5.5794,-5.4968,-5.4601,-5.3117,-5.0339,-4.9004,-4.7594,-4.5993,-4.5258,-4.479,-4.457,-4.3572,-4.2828,-4.2252,-4.1322,-4.0595,-4.007,-4.007,-4.007,-4.007,-4.007,-3.9782,-3.9193,-3.8978,-3.81,-3.6786,-3.5905,-3.466,-3.3469,0.0,0.0,0.0,0.0,0.0,0.0,0.0,0.0,0.0,0.0,0.0,0.0,0.0,0.0,-3.7544,-3.6377,-3.7085,-3.7715,-3.7932,-3.8726,-4.0121,-4.2264,-4.2341,-4.269,-4.3461,-4.3497,-4.3679,-4.4016,-4.4401,-4.4757,-4.5077,-4.4594,-4.4778,-4.5547,-4.472,-4.4797,-4.5586,-4.5586,-4.5586,-4.5586,-4.5586,-4.4882,-4.3435,-4.0118,-3.779,-3.6055,-3.4211,0.0,-2.9214,-3.1013,-3.2251,-3.3344,-3.5055,-3.673,-3.8012,-3.7993,-3.7416,-3.6718,-3.6362,-3.69,-3.7979,-3.9666,-4.1404,-4.3002,-4.4301,-4.4599,-4.4976,-4.622,-4.6148,-4.6543,-4.8759,-5.0159,-5.1504,-5.317,-5.4196,-5.4718,-5.459,-5.3837,-5.328,-5.3241,-5.1782,-5.1096,0.0,-5.2772,-5.3261,-5.328,-5.4014,-5.4124,-5.3335,-5.3995,-5.3332,-5.0958,-5.0249,-4.8852,-4.6584,-4.5959,-4.5314,-4.4553,-4.3047,-4.2303,-4.2236,-4.0781,-4.0104,-4.007,-4.007,-4.007,-4.007,-4.007,-4.007,-4.002,-3.9193,-3.8426,-3.7605,-3.6137,-3.4683,-3.341,0.0,0.0,0.0,0.0,0.0,0.0,0.0,0.0,0.0,0.0,0.0,0.0,0.0,0.0,0.0,0.0,-3.5296,-3.5852,-3.7024,-3.8201,-3.9411,-4.0634,-4.1735,-4.2176,-4.1919,-4.2433,-4.2595,-4.2404,-4.2758,-4.309,-4.338,-4.3462,-4.3662,-4.3932,-4.3624,-4.3951,-4.4739,-4.4739,-4.5066,-4.549,-4.4393,-4.3688,-4.2925,-3.8969,-3.6074,-3.3894,0.0,0.0,-3.0005,-3.0108,-3.0673,-3.1535,-3.2716,-3.3782,-3.5064,-3.7334,-3.7796,-3.7717,-3.8517,-3.9575,-4.0594,-4.0961,-4.2181,-4.3468,-4.4487,-4.4287,-4.4076,-4.4718,-4.4458,-4.4278,-4.4707,-4.6682,-4.8613,-4.9695,-5.2028,-5.388,-5.4435,-5.4241,-5.3626,-5.2472,-5.1877,0.0,0.0,0.0,0.0,-5.3133,-5.3463,-5.372,-5.3977,-5.3243,-5.198,-5.0227,-4.8938,-4.7512,-4.5892,-4.5646,-4.4981,-4.3792,-4.2286,-4.1576,-4.1542,-4.0544,-4.007,-4.007,-4.007,-4.007,-4.007,-4.007,-4.007,-4.002,-3.9261,-3.8467,-3.7633,-3.6161,-3.4747,-3.3371,0.0,0.0,0.0,0.0,0.0,0.0,0.0,0.0,0.0,0.0,0.0,0.0,0.0,0.0,0.0,0.0,0.0,-3.4003,-3.5569,-3.673,-3.7753,-3.8579,-3.9882,-4.0212,-3.9405,-3.9958,-4.0174,-3.9986,-4.0594,-4.1062,-4.136,-4.1615,-4.2066,-4.2624,-4.2316,-4.2797,-4.3855,-4.3547,-4.3374,-4.3239,-4.2181,-4.1212,-4.0058,-3.6706,-3.4468,0.0,0.0,0.0,-3.0576,-2.976,-3.038,-3.1591,-3.2136,-3.342,-3.5141,-3.7353,-3.8642,-3.9621,-4.0819,-4.2016,-4.2852,-4.2693,-4.3502,-4.4415,-4.4654,-4.4085,-4.349,-4.3402,-4.2567,-4.1776,-4.1573,-4.3158,-4.5091,-4.6913,-4.9317,-5.1568,-5.3318,-5.3318,-5.2953,-5.2433,-5.1877,-5.1239,0.0,0.0,0.0,-5.2656,-5.3041,-5.3445,-5.394,-5.2986,-5.1718,-5.021,-4.8905,-4.7482,-4.5833,-4.5597,-4.4783,-4.3403,-4.2168,-4.1457,-4.117,-4.0426,-4.007,-4.007,-4.007,-4.007,-4.007,-4.007,-4.007,-4.0003,-3.9276,-3.8538,-3.7668,-3.6241,-3.4775,-3.3451,0.0,0.0,0.0,0.0,0.0,0.0,0.0,0.0,0.0,0.0,0.0,0.0,0.0,0.0,0.0,0.0,0.0,0.0,-3.3595,-3.4449,-3.5257,-3.6064,-3.6909,-3.7011,-3.6203,-3.6424,-3.6664,-3.6923,-3.8002,-3.8704,-3.9027,-3.9084,-3.995,-4.145,-4.0604,-4.1181,-4.272,-4.1893,-4.0642,-3.9219,-3.9196,-3.7758,-3.5463,-3.3684,0.0,0.0,0.0,-3.0072,-3.0723,-2.998,-3.1417,-3.3481,-3.3446,-3.5609,-3.8142,-3.8238,-4.0027,-4.2197,-4.3132,-4.403,-4.4693,-4.4752,-4.5296,-4.5626,-4.4782,-4.3956,-4.3112,-4.2231,-4.047,-3.9151,-3.9326,0.0,-4.1377,-4.4895,-4.6355,-4.8182,-5.151,-5.1356,-5.1491,0.0,0.0,0.0,0.0,0.0,0.0,-5.1885,0.0,-5.3115,-5.3206,-5.3133,-5.238,-5.0857,-5.0083,-4.8659,-4.6478,-4.578,-4.4819,-4.3508,-4.2675,-4.1931,-4.1238,-4.0476,-4.0121,-4.007,-4.007,-4.007,-4.007,-4.007,-4.007,-4.0003,-3.9242,-3.8514,-3.7708,-3.624,-3.4839,-3.3547,0.0,0.0,0.0,0.0,0.0,0.0,0.0,0.0,0.0,0.0,0.0,0.0,0.0,0.0,0.0,0.0,0.0,0.0,-3.1935,-3.2779,-3.333,-3.3532,-3.4908,-3.5367,-3.4754,-3.5379,-3.5333,-3.4584,-3.5493,-3.5799,-3.5507,-3.6161,-3.6699,-3.7103,-3.6873,-3.7353,-3.8315,-3.8104,-3.8142,-3.8272,0.0,-3.7104,-3.6258,0.0,0.0,0.0,0.0,-2.9726,-3.0098,-3.1172,-3.3545,-3.6149,-3.6621,-3.8213,-4.0123,-4.1412,-4.3143,-4.4843,-4.5767,-4.6665,-4.7051,-4.5893,-4.5296,-4.4654,-4.324,-4.2304,-4.1148,-3.9129,-3.8125,-3.7299,-3.6163,-3.8403,0.0,-4.3393,-4.6567,0.0,-5.2491,-5.3241,0.0,-5.4454,-5.3367,-5.2491,-5.237,-5.1785,0.0,0.0,-5.1628,-5.194,-5.3151,-5.2068,-5.1224,-5.082,-4.9435,-4.8216,-4.715,-4.5501,-4.4802,-4.4957,-4.3146,-4.2202,-4.1982,-4.1255,-4.0612,-4.007,-4.007,-4.007,-4.007,-4.007,-4.007,-3.9952,-3.8684,-3.8075,-3.7706,-3.6198,-3.506,-3.4235,0.0,0.0,0.0,0.0,0.0,0.0,0.0,0.0,0.0,0.0,0.0,0.0,0.0,0.0,0.0,0.0,0.0,0.0,0.0,-3.1311,-3.1549,-3.1549,-3.2412,-3.2631,-3.2106,-3.2627,-3.2616,0.0,0.0,0.0,-3.3122,-3.3968,-3.4564,-3.493,-3.493,-3.5391,-3.6161,-3.5776,0.0,0.0,0.0,0.0,0.0,0.0,0.0,0.0,-3.0487,-3.0877,-3.2116,-3.4186,-3.6078,-3.7897,-3.9709,-4.1397,-4.3066,-4.4797,-4.649,-4.7952,-4.848,-4.9277,-4.9439,-4.7443,-4.6361,-4.5057,-4.2396,-4.0891,-3.9289,-3.6602,-3.5647,-3.5114,-3.4434,-3.6415,-3.8969,0.0,0.0,0.0,-5.1587,-5.2837,-5.3788,-5.4924,-5.4276,-5.3588,-5.3143,-5.2428,-5.2142,0.0,-5.2105,-5.2252,-5.317,-5.2013,-5.1151,-5.082,-4.9554,-4.8236,-4.688,-4.5446,-4.4858,-4.494,-4.31,-4.221,-4.2252,-4.1187,-4.0476,-4.007,0.0,-4.007,-4.007,-4.007,-4.007,-3.9969,-3.8819,-3.8193,-3.777,-3.6569,-3.5288,-3.4137,0.0,0.0,0.0,0.0,0.0,0.0,0.0,0.0,0.0,0.0,0.0,0.0,0.0,0.0,0.0,0.0,0.0,0.0,0.0,0.0,0.0,-3.0044,-3.0044,-2.9857,-2.9453,-2.9607,-2.9756,0.0,0.0,0.0,0.0,0.0,0.0,0.0,0.0,0.0,0.0,0.0,0.0,0.0,0.0,0.0,0.0,0.0,0.0,-3.0898,-3.0898,-3.2354,-3.4671,-3.7389,-3.8585,-3.949,-4.2557,-4.4716,-4.6413,-4.7971,-4.976,-5.1235,-5.1271,-5.1798,-5.1764,-4.9344,-4.7903,-4.603,-4.1901,-3.9698,-3.7658,-3.4544,-3.3436,-3.3173,-3.357,-3.4658,-3.6629,-4.0108,-4.2124,-4.501,-5.0086,-5.1432,-5.2689,-5.4808,-5.4746,-5.4345,-5.3944,-5.285,-5.2454,-5.317,-5.3115,-5.3041,-5.3041,-5.227,-5.1408,-5.0508,-4.9682,-4.8331,-4.6331,-4.5579,-4.4941,-4.4401,-4.2996,-4.2324,-4.2252,-4.0951,-4.0273,-4.007,0.0,0.0,-4.007,-4.007,-4.007,-4.0003,-3.9276,-3.8548,-3.7821,-3.706,-3.5559,-3.3937,0.0,0.0,0.0,0.0,0.0,0.0,0.0,0.0,0.0,0.0,0.0,0.0,0.0,0.0,0.0,0.0,0.0,0.0,0.0,0.0,0.0,0.0,-2.9195,-2.9354,-2.9625,-2.9678,-2.9535,-2.926,-3.0186,0.0,0.0,0.0,0.0,0.0,0.0,0.0,0.0,0.0,0.0,0.0,0.0,0.0,0.0,0.0,0.0,0.0,-3.0898,-3.1576,-3.3044,-3.6915,-4.0052,-4.268,-4.4569,-4.6833,-4.8933,-4.9952,-5.1952,-5.3909,-5.4256,-5.4191,-5.3572,-5.1479,-4.8993,-4.5883,-4.1185,-3.8854,-3.6646,-3.299,-3.2812,-3.3223,-3.2861,-3.5381,-3.8401,-4.1143,-4.2989,-4.5745,-5.0531,-5.1593,-5.2676,-5.4753,-5.4702,-5.4434,-5.4322,-5.3506,0.0,0.0,0.0,0.0,-5.2197,-5.1444,-5.0306,-4.8783,-4.7957,-4.7331,-4.6943,-4.5685,-4.5043,-4.5012,-4.4131,-4.3166,-4.2323,-4.1917,-4.1131,-4.007,0.0,0.0,-4.007,-4.007,-4.007,-4.0003,-3.9276,-3.8548,-3.7821,-3.706,-3.6127,-3.5207,0.0,0.0,0.0,0.0,0.0,0.0,0.0,0.0,0.0,0.0,-3.1207,-3.0571,0.0,0.0,0.0,0.0,0.0,0.0,0.0,0.0,0.0,0.0,0.0,0.0,0.0,-2.9696,-2.9737,-2.9775,0.0,0.0,0.0,0.0,0.0,0.0,0.0,0.0,0.0,0.0,0.0,0.0,0.0,0.0,0.0,0.0,0.0,0.0,-3.2559,-3.3324,-3.4378,-3.7277,-4.0126,-4.2984,-4.5967,-4.8048,-4.974,-5.1491,-5.3183,-5.4696,-5.5536,-5.5931,-5.5458,-5.2791,-5.0112,-4.6533,-4.0607,-3.7679,-3.5284,-3.2056,-3.1788,-3.2293,-3.269,-3.4913,-3.7238,-3.8892,-4.0463,-4.3099,-4.7698,-4.8774,-5.0155,-5.3038,-5.3644,-5.3818,-5.3768,-5.3059,-5.2747,0.0,0.0,0.0,-5.1977,-5.0417,-4.9132,-4.8343,-4.7113,-4.6489,-4.6489,-4.5386,-4.4726,-4.4471,-4.3367,-4.2643,-4.2175,-4.1422,-4.0694,-4.007,0.0,0.0,-4.007,-4.007,-4.007,-4.0037,-3.9698,-3.8886,-3.7872,-3.7499,-3.64,-3.5098,0.0,0.0,0.0,0.0,0.0,0.0,0.0,-3.0709,-3.1428,-3.2781,-3.2664,-3.1969,-3.0693,-3.0059,0.0,0.0,0.0,0.0,0.0,0.0,0.0,0.0,0.0,0.0,0.0,0.0,0.0,-3.0398,-3.0398,0.0,0.0,0.0,0.0,0.0,0.0,0.0,0.0,0.0,0.0,0.0,0.0,0.0,0.0,0.0,0.0,0.0,0.0,-3.4702,-3.5418,-3.7322,-3.9178,-4.1354,-4.5047,-4.7548,-4.9471,-5.1318,-5.3106,-5.4756,-5.5944,-5.679,-5.6606,-5.3579,-5.0763,-4.6978,-4.0228,-3.6828,-3.4245,-3.1318,-3.0899,-3.139,-3.2455,-3.4064,-3.5545,-3.6546,-3.7824,-4.0267,-4.4729,-4.6124,-4.7952,-5.1287,-5.2658,0.0,-5.2959,-5.2362,0.0,0.0,0.0,0.0,-5.1444,-4.9297,-4.8049,-4.8049,-4.6489,-4.5645,-4.5645,-4.5021,-4.4418,-4.3808,-4.2862,-4.2308,-4.2068,-4.0954,-4.0336,-4.007,0.0,0.0,0.0,-4.007,-4.007,-4.007,-4.007,-3.9191,-3.7905,-3.7905,-3.6609,-3.4894,0.0,0.0,0.0,0.0,0.0,0.0,0.0,-3.09,-3.205,-3.2802,-3.2936,-3.2734,-3.2168,-3.0889,0.0,0.0,0.0,0.0,0.0,0.0,0.0,0.0,0.0,0.0,0.0,0.0,0.0,-3.0398,-3.0398,0.0,0.0,0.0,0.0,0.0,0.0,0.0,0.0,0.0,0.0,0.0,0.0,0.0,0.0,0.0,0.0,0.0,0.0,-3.3348,-3.3635,-3.6104,-3.7044,-3.7507,-3.9488,-4.3835,-4.8125,-4.7625,-5.0818,-5.4703,-5.5528,-5.6146,-5.5987,-5.3808,-5.056,-4.6294,-4.0117,-3.6962,-3.4325,-3.0603,-3.0582,-3.1374,-3.1738,-3.3179,-3.4834,-3.6449,-3.7473,-3.958,-4.3895,-4.6177,-4.8285,-5.0599,0.0,0.0,-5.2242,-5.2032,0.0,0.0,0.0,0.0,0.0,-4.8159,-4.7223,-4.7223,-4.5663,-4.4819,-4.4819,-4.4745,-4.4418,-4.3826,-4.4253,-4.3598,-4.2098,-4.1788,-4.1076,-4.007,0.0,0.0,0.0,-4.007,-4.007,-4.007,-4.007,-3.9191,-3.7905,-3.7905,-3.6895,-3.5515,0.0,0.0,0.0,0.0,0.0,0.0,0.0,-3.0445,-3.1566,-3.2812,-3.3505,-3.3843,-3.3651,-3.2303,-3.0783,0.0,0.0,0.0,0.0,0.0,0.0,0.0,0.0,0.0,0.0,0.0,0.0,-3.1179,-3.1679,0.0,0.0,0.0,0.0,0.0,0.0,0.0,0.0,0.0,0.0,0.0,0.0,0.0,0.0,0.0,0.0,0.0,0.0,0.0,-3.4729,-3.5736,-3.6021,-3.593,-3.5565,-3.8469,-4.247,-4.4682,-4.8221,-5.1952,-5.4318,-5.623,-5.6931,-5.4303,-5.07,-4.6244,-4.0544,-3.662,-3.3515,-3.1153,-3.0582,-3.0758,-3.1546,-3.2641,-3.3641,-3.4295,-3.5,-3.6654,-4.0063,-4.1407,-4.3435,-4.7229,-4.912,0.0,0.0,0.0,0.0,0.0,0.0,0.0,0.0,-4.7003,-4.6379,-4.6379,-4.4819,-4.4213,-4.4709,-4.4213,-4.3851,-4.3597,-4.3541,-4.3123,-4.2434,-4.1648,-4.1013,-4.0628,0.0,0.0,0.0,-4.007,-4.007,-4.0037,-3.9597,-3.8802,-3.7855,-3.7398,-3.6552,-3.5622,0.0,0.0,0.0,0.0,0.0,0.0,-2.9332,-2.991,-3.0801,-3.2259,-3.2906,-3.344,-3.41,-3.2645,-3.0985,-2.9368,0.0,0.0,0.0,0.0,0.0,0.0,0.0,0.0,0.0,0.0,0.0,-3.1698,-3.2506,-3.2602,0.0,0.0,0.0,0.0,0.0,0.0,0.0,0.0,0.0,0.0,0.0,0.0,0.0,0.0,0.0,0.0,0.0,0.0,0.0,0.0,0.0,-3.4872,-3.3372,-3.4545,-3.7219,-4.0969,-4.5009,-4.8856,-5.1529,-5.4107,-5.5465,-5.2996,-4.9472,-4.5287,-4.0352,-3.6243,-3.2995,-3.1279,-3.0496,-3.0355,-3.1174,-3.2109,-3.2793,-3.2793,-3.3574,-3.5021,-3.74,-3.8495,-4.0489,-4.429,0.0,-4.7827,0.0,0.0,0.0,0.0,0.0,0.0,0.0,-4.6342,-4.5792,-4.5553,-4.4213,-4.3754,-4.4342,-4.4011,-4.3736,-4.3497,-4.3342,-4.3081,-4.2673,-4.1621,-4.1105,0.0,0.0,0.0,0.0,-3.9834,-3.9749,-3.9681,-3.8954,-3.821,-3.7499,-3.6975,-3.6282,-3.5622,0.0,0.0,0.0,0.0,0.0,0.0,0.0,-2.9281,-2.9936,-3.1082,-3.0581,-3.0987,-3.3186,-3.1444,-3.0412,-3.1106,0.0,0.0,0.0,0.0,0.0,0.0,0.0,0.0,0.0,0.0,-3.1432,-3.1698,-3.2506,-3.2891,-3.2852,-3.1198,0.0,0.0,0.0,0.0,0.0,0.0,0.0,0.0,0.0,0.0,0.0,0.0,0.0,0.0,0.0,0.0,0.0,0.0,0.0,0.0,0.0,-3.291,-3.3468,-3.6026,-4.0989,-4.5836,-4.674,-4.8836,-5.047,-4.919,-4.6377,-4.2959,-3.9154,-3.593,-3.2999,-3.0532,-3.0228,-3.0398,-3.0398,-3.156,-3.2496,-3.2496,-3.3944,-3.5551,-3.6917,-3.9161,-4.1188,0.0,0.0,-4.6232,0.0,0.0,0.0,0.0,0.0,0.0,0.0,0.0,-4.5535,-4.4745,-4.392,-4.3497,-4.3497,-4.4287,-4.4287,-4.3497,-4.4305,-4.3981,-4.2655,-4.208,0.0,0.0,0.0,0.0,0.0,-3.9292,-3.9005,-3.8937,-3.821,-3.7449,-3.6789,-3.6772,-3.6282,-3.5622,0.0,0.0,0.0,0.0,0.0,0.0,0.0,-2.7407,-2.8122,-2.8491,-2.9661,-3.0707,-3.1411,-3.1113,-3.0954,-3.1173,0.0,0.0,0.0,0.0,0.0,0.0,0.0,0.0,0.0,0.0,-3.2594,-3.341,-3.4814,-3.5218,-3.468,-3.4141,-3.2968,0.0,0.0,0.0,0.0,0.0,0.0,0.0,0.0,0.0,0.0,0.0,0.0,0.0,0.0,0.0,0.0,0.0,0.0,0.0,0.0,0.0,0.0,-3.3045,-3.7084,-4.1604,-4.3028,-4.4836,-4.5953,-4.4402,-4.1909,-3.9246,-3.6922,-3.4293,-3.1895,-3.0314,-3.0075,-3.0136,-3.0136,-3.0871,-3.1874,-3.3132,-3.3672,-3.4737,-3.7053,0.0,0.0,-4.2697,-4.5697,-4.7645,0.0,0.0,0.0,0.0,0.0,0.0,0.0,0.0,-4.5535,-4.4745,-4.392,-4.3497,-4.3497,-4.3754,-4.3754,-4.3497,-4.3754,-4.3666,-4.3214,-4.2675,0.0,0.0,0.0,0.0,0.0,-3.9089,-3.87,-3.8176,-3.7432,-3.6992,-3.6721,-3.618,-3.5825,-3.5622,0.0,0.0,0.0,0.0,0.0,0.0,0.0,-2.6026,-2.6645,-2.7217,-2.8241,-2.935,-3.0473,-3.0455,-3.07,-3.1529,0.0,0.0,0.0,0.0,0.0,0.0,0.0,0.0,0.0,-3.1894,-3.3374,-3.468,-3.6045,-3.6622,-3.6449,-3.6122,-3.4949,-3.3103,-3.2449,0.0,0.0,0.0,0.0,0.0,0.0,0.0,-3.2337,0.0,0.0,0.0,0.0,0.0,0.0,0.0,0.0,0.0,0.0,0.0,0.0,0.0,-3.3949,-3.6873,-3.8892,-4.0662,-4.1662,-4.0623,-3.87,-3.6699,-3.5315,-3.3204,-3.1243,-3.02,-2.9939,-2.9893,-2.9893,-3.041,-3.1318,-3.2751,-3.3126,-3.4066,-3.6419,0.0,0.0,-4.2033,0.0,0.0,0.0,0.0,0.0,0.0,0.0,0.0,0.0,0.0,-4.5223,-4.4727,-4.392,-4.3497,-4.3497,-4.3497,-4.3497,-4.3497,-4.3497,-4.3497,-4.3479,0.0,0.0,0.0,0.0,0.0,0.0,-3.8278,-3.7889,-3.7398,-3.6654,-3.6349,-3.6282,-3.5791,-3.5622,-3.5622,0.0,0.0,0.0,0.0,0.0,0.0,0.0,0.0,0.0,0.0,-2.6576,-2.7206,-3.0058,-2.9553,-2.9875,0.0,0.0,0.0,0.0,0.0,0.0,0.0,0.0,0.0,0.0,-3.2505,-3.391,-3.5603,-3.6526,-3.7392,-3.8161,-3.7411,-3.6603,-3.5699,-3.4007,0.0,0.0,0.0,0.0,0.0,0.0,0.0,0.0,0.0,0.0,0.0,0.0,0.0,0.0,0.0,0.0,0.0,0.0,0.0,0.0,0.0,0.0,0.0,0.0,-3.6315,-3.7546,-3.7469,-3.6295,-3.493,-3.4103,-3.2483,0.0,-3.006,-2.9718,-2.9603,-2.9678,-3.0131,-3.0804,-3.1812,-3.2538,-3.3599,0.0,-3.7154,0.0,0.0,-4.3369,0.0,0.0,0.0,0.0,0.0,0.0,0.0,0.0,0.0,0.0,-4.4635,-4.3883,-4.3497,-4.3497,-4.3497,-4.3497,-4.3497,-4.3497,-4.3461,-4.3406,0.0,0.0,0.0,0.0,0.0,0.0,-3.706,-3.6755,-3.662,-3.591,-3.5622,-3.5622,-3.5622,-3.5622,-3.5622,0.0,0.0,0.0,0.0,0.0,0.0,0.0,0.0,0.0,0.0,0.0,-2.693,-2.7944,-2.863,0.0,0.0,0.0,0.0,0.0,0.0,0.0,0.0,0.0,0.0,0.0,-3.4002,-3.5391,-3.643,-3.8565,-3.97,-3.9912,-4.0392,-3.9815,-3.8354,-3.7276,0.0,0.0,0.0,0.0,0.0,0.0,0.0,0.0,0.0,0.0,0.0,-3.2702,-3.2891,0.0,0.0,0.0,0.0,0.0,0.0,0.0,0.0,-3.0717,-3.0852,-3.1436,0.0,-3.3026,-3.2352,-3.1891,-3.1532,0.0,-3.0299,-2.9294,-2.8919,-2.8647,-2.8671,-2.9343,-2.9416,-3.03,-3.3157,-3.3105,-3.3802,-3.6894,0.0,0.0,-4.2849,0.0,0.0,0.0,0.0,0.0,0.0,0.0,0.0,0.0,0.0,0.0,-4.3791,-4.3589,-4.3497,-4.3497,-4.3497,-4.3497,-4.3497,-4.3497,-4.3167,-4.258,0.0,0.0,0.0,0.0,0.0,0.0,-3.6857,-3.6434,-3.5876,-3.569,-3.5622,-3.5622,-3.5622,-3.5622,-3.5622,0.0,0.0,0.0,0.0,0.0,0.0,0.0,0.0,0.0,0.0,0.0,0.0,0.0,0.0,0.0,0.0,0.0,0.0,0.0,0.0,0.0,0.0,0.0,0.0,-3.3696,-3.4889,-3.6103,-3.7296,-3.9084,-4.0335,-4.1104,-4.1585,-4.1104,-3.9777,-3.8142,-3.643,0.0,0.0,0.0,0.0,-3.1951,0.0,0.0,0.0,0.0,0.0,-3.1623,-3.1756,0.0,-3.2218,-3.1795,-3.1179,0.0,0.0,0.0,0.0,-3.0398,-3.0398,-3.0398,-3.1044,-3.1583,-3.1121,-3.1006,-3.1006,-3.1006,-2.9845,-2.8746,-2.855,-2.8295,-2.8218,-2.8598,-2.8854,-2.9871,-3.249,-3.2735,0.0,0.0,0.0,-4.1846,-4.2834,0.0,0.0,0.0,0.0,0.0,0.0,0.0,0.0,0.0,0.0,0.0,0.0,-4.3497,-4.3497,-4.3497,-4.3497,-4.3497,-4.3497,-4.313,-4.291,-4.2818,0.0,0.0,0.0,0.0,0.0,-3.6618,-3.6367,-3.5994,-3.5622,-3.5622,-3.5622,-3.5571,-3.5233,-3.5115,-3.5064,0.0,0.0,0.0,0.0,0.0,0.0,0.0,0.0,0.0,0.0,0.0,0.0,0.0,0.0,0.0,0.0,0.0,0.0,0.0,0.0,0.0,0.0,0.0,-3.4282,-3.5358,-3.5584,-3.6507,-3.82,-3.9181,-4.0469,-4.2008,-4.2258,-4.17,-4.0392,-3.8123,-3.6507,0.0,0.0,0.0,0.0,-3.1853,0.0,0.0,0.0,0.0,0.0,0.0,0.0,0.0,-3.091,-3.0717,-3.0314,-3.0929,0.0,0.0,0.0,0.0,0.0,-3.0179,-3.0929,-3.1679,-3.1525,-3.1602,-3.1679,-3.1525,-3.0094,-2.8713,-2.838,-2.8183,-2.801,-2.7665,-2.8484,-2.9677,-3.1146,0.0,0.0,-3.8689,-3.9845,-4.0763,0.0,0.0,0.0,0.0,0.0,0.0,0.0,0.0,0.0,0.0,0.0,0.0,0.0,-4.3259,-4.3185,-4.3314,-4.3314,-4.3369,-4.3479,-4.2561,-4.247,-4.3075,-4.1504,0.0,0.0,0.0,0.0,-3.6249,-3.5783,-3.5622,-3.5622,-3.5622,-3.5622,-3.552,-3.4776,-3.4489,-3.437,0.0,0.0,0.0,0.0,0.0,0.0,0.0,0.0,0.0,0.0,0.0,0.0,0.0,0.0,0.0,0.0,0.0,0.0,0.0,0.0,0.0,0.0,-3.6217,-3.6023,-3.709,-3.6715,-3.7353,-3.9104,-4.0662,-4.1931,-4.2931,-4.4355,-4.3393,-4.045,-3.9373,-3.7623,-3.5449,-3.4564,-3.4045,-3.368,-3.2281,0.0,0.0,0.0,0.0,0.0,0.0,0.0,0.0,-2.8659,-2.8852,-2.9198,-2.8659,0.0,0.0,0.0,0.0,0.0,-2.9102,-3.0467,-3.1525,-3.0794,-3.116,-3.1506,-3.0775,-2.9666,-2.855,-2.7676,-2.7806,-2.7826,-2.6948,-2.8558,-3.032,-3.1237,0.0,-3.7918,0.0,0.0,0.0,0.0,0.0,0.0,0.0,0.0,0.0,0.0,0.0,0.0,0.0,0.0,0.0,0.0,0.0,-4.1809,-4.2488,-4.2488,-4.2818,-4.3461,-4.1992,-4.1368,-4.1409,-4.0049,-3.878,0.0,0.0,0.0,-3.5694,-3.5605,-3.5622,-3.5622,-3.5622,-3.5622,-3.552,-3.4776,-3.4489,-3.4303,0.0,0.0,0.0,0.0,0.0,0.0,0.0,0.0,0.0,0.0,0.0,0.0,0.0,0.0,0.0,0.0,0.0,0.0,0.0,0.0,0.0,-3.7859,-3.7322,-3.7276,-3.7919,-3.7887,-3.8467,-3.9675,-4.1577,-4.2844,-4.3503,-4.4014,-4.3162,-4.1123,-3.9373,-3.77,-3.6026,-3.4257,-3.3506,-3.3353,0.0,0.0,0.0,0.0,0.0,0.0,0.0,0.0,0.0,0.0,-2.814,-2.839,-2.8025,0.0,0.0,0.0,0.0,0.0,-2.8352,-2.9698,-3.0794,-2.9929,-3.1025,-3.2141,-3.1295,-2.9997,-2.8772,-2.8089,-2.8118,-2.8035,-2.7377,-2.9219,-3.1678,-3.4266,0.0,-3.8469,0.0,0.0,0.0,0.0,0.0,0.0,0.0,0.0,0.0,0.0,0.0,0.0,0.0,0.0,0.0,0.0,0.0,0.0,-4.1662,-4.1222,-4.1405,-4.2194,-4.102,-4.0689,-4.1042,-3.9561,-3.8645,0.0,0.0,-3.6522,-3.6028,-3.5739,-3.5622,-3.5622,-3.5622,-3.5622,-3.5487,-3.432,-3.3643,-3.3152,0.0,0.0,0.0,0.0,0.0,0.0,0.0,0.0,0.0,0.0,0.0,0.0,0.0,0.0,0.0,0.0,0.0,0.0,0.0,0.0,-3.7164,-3.772,-3.7771,-3.8018,-3.8479,-3.8681,-3.9221,-4.0188,-4.1973,-4.3158,-4.3778,-4.3309,-4.2431,-4.1123,-3.9181,-3.7603,-3.6257,-3.391,-3.2891,-3.2756,0.0,0.0,0.0,0.0,0.0,0.0,0.0,0.0,0.0,0.0,0.0,0.0,0.0,0.0,0.0,-2.7351,-2.7294,-2.7332,-2.7544,-2.8679,-2.966,-2.8986,-3.0583,-3.2218,-3.1795,-3.0605,-2.9493,-2.9153,-2.9284,-2.9139,-2.8003,-2.9769,0.0,-3.6846,-3.7808,0.0,0.0,0.0,0.0,0.0,0.0,0.0,0.0,0.0,0.0,0.0,0.0,0.0,0.0,0.0,0.0,0.0,0.0,0.0,-4.0267,-3.9827,-4.012,-4.1111,-4.0084,-4.0047,-4.0781,-3.935,-3.8652,-3.8489,-3.7488,-3.6612,-3.5814,-3.5412,-3.5287,-3.5351,-3.5165,-3.4996,-3.4692,-3.3558,-3.2679,-3.1952,0.0,0.0,0.0,0.0,0.0,0.0,0.0,0.0,0.0,0.0,0.0,0.0,0.0,0.0,0.0,0.0,0.0,0.0,0.0,0.0,-3.6431,-3.723,-3.7421,-3.8005,-3.9014,-3.8563,-3.9142,-4.075,-4.1637,-4.2673,-4.3778,-4.3309,-4.1816,-3.9469,-3.9277,-3.7853,-3.5468,-3.366,-3.2891,-3.2756,-3.1083,0.0,0.0,0.0,0.0,0.0,0.0,0.0,0.0,0.0,0.0,0.0,0.0,0.0,-2.6524,-2.5707,-2.5495,-2.5649,-2.6467,-2.7371,-2.8063,-2.8005,-2.9294,-3.0794,-3.1525,-3.1369,-3.1007,-3.086,-3.18,-3.1667,-2.8404,-2.9769,-3.2724,-3.6846,-3.8744,0.0,0.0,0.0,0.0,0.0,0.0,0.0,0.0,0.0,0.0,0.0,0.0,0.0,0.0,0.0,0.0,0.0,0.0,0.0,-3.7753,-3.8432,-3.957,-4.1093,-3.9533,-3.9203,-3.9955,-3.9093,-3.8018,-3.6868,-3.678,-3.5794,-3.4241,-3.4202,-3.435,-3.4506,-3.3829,-3.3136,-3.251,-3.2432,-3.1901,-3.1258,0.0,0.0,0.0,0.0,0.0,0.0,0.0,0.0,0.0,0.0,0.0,0.0,0.0,0.0,0.0,0.0,0.0,0.0,0.0,0.0,-3.4907,-3.565,-3.639,-3.694,-3.7359,-3.8846,-4.0397,-4.2034,-4.2558,-4.3255,-4.4077,-4.2862,-4.1489,-3.9988,-3.895,-3.7373,-3.543,-3.4218,-3.3391,-3.2795,-3.1679,-3.0891,0.0,0.0,0.0,0.0,0.0,0.0,0.0,0.0,-2.5514,-2.5726,-2.5399,-2.5534,-2.5726,-2.5399,-2.5303,-2.536,-2.5687,-2.6813,-2.7775,-2.7236,-2.7986,-2.9198,-3.0583,-3.0791,-3.0758,-3.0953,-3.1807,-3.2147,-3.1004,0.0,-3.333,-3.6938,0.0,0.0,0.0,0.0,0.0,0.0,0.0,0.0,0.0,0.0,0.0,0.0,0.0,0.0,0.0,0.0,0.0,0.0,0.0,0.0,0.0,-3.7055,-3.7514,-3.812,-3.801,-3.7845,-3.7643,-3.7349,-3.6741,-3.5948,-3.5663,-3.4957,-3.4086,-3.3785,-3.3709,-3.3795,-3.3508,-3.3237,-3.2933,-3.2459,-3.2104,-3.1799,0.0,0.0,0.0,0.0,0.0,0.0,0.0,0.0,0.0,0.0,0.0,0.0,0.0,0.0,0.0,0.0,0.0,0.0,0.0,-3.2301,-3.3667,-3.4429,-3.5628,-3.6413,-3.667,-3.8506,-4.014,-4.1519,-4.2171,-4.2473,-4.2393,-4.1711,-4.0931,-4.0046,-3.8623,-3.7353,-3.618,-3.4507,-3.3449,-3.2814,-3.1718,-3.0929,0.0,0.0,0.0,0.0,0.0,0.0,0.0,0.0,-2.5303,-2.5303,-2.5303,-2.5303,-2.5303,-2.5303,-2.5303,-2.5303,-2.5303,-2.6178,-2.6948,-2.6351,-2.6832,-2.8005,-2.9967,-3.0522,-3.0849,-3.1597,-3.1862,-3.2008,-3.2176,-3.243,0.0,0.0,0.0,0.0,0.0,0.0,0.0,0.0,0.0,0.0,0.0,0.0,0.0,0.0,0.0,0.0,0.0,0.0,0.0,0.0,0.0,0.0,0.0,-3.5257,-3.5257,-3.4761,-3.5569,-3.6064,-3.6303,-3.6303,-3.5956,-3.5326,-3.5004,-3.4392,-3.3569,-3.3244,-3.2946,-3.273,-3.2966,-3.2916,-3.2645,-3.2121,-3.1935,-3.1867,0.0,0.0,0.0,0.0,0.0,0.0,0.0,0.0,0.0,0.0,0.0,0.0,0.0,0.0,0.0,0.0,0.0,0.0,-2.8943,-3.1219,-3.2902,-3.3631,-3.5351,-3.6652,-3.7441,-3.7477,-3.7881,-3.8689,-4.0098,-3.9929,-3.8331,-3.9809,-4.0046,-3.9238,-3.8373,-3.7988,-3.7738,-3.4353,-3.2891,-3.2737,-3.1102,-3.0398,-3.0302,0.0,0.0,0.0,0.0,0.0,0.0,0.0,-2.5303,-2.5303,-2.5303,-2.5303,-2.5303,-2.5303,-2.5303,-2.5303,-2.5303,-2.5303,-2.5303,-2.5303,-2.5967,-2.7274,-2.9802,-3.0786,-3.1585,-3.3072,-3.2311,-3.1384,-3.1384,-3.2045,0.0,0.0,0.0,0.0,0.0,0.0,0.0,0.0,0.0,0.0,0.0,0.0,0.0,0.0,0.0,0.0,0.0,0.0,0.0,0.0,0.0,0.0,0.0,-3.2981,-3.2981,-3.1403,-3.221,-3.388,-3.6266,-3.6266,-3.5789,-3.4972,-3.4972,-3.4009,-3.25,-3.2466,-3.1986,-3.1258,-3.1985,-3.1833,-3.119,-3.119,-3.119,-3.119,0.0,0.0,0.0,0.0,0.0,0.0,0.0,0.0,0.0,0.0,0.0,0.0,0.0,0.0,0.0,0.0,0.0,0.0,-2.7705,-2.9232,-3.0581,-3.1613,-3.3522,-3.4926,-3.5734,-3.689,-3.7716,-3.8136,-3.8721,-3.8934,-3.8746,-3.9358,-3.8873,-3.7488,-3.7834,-3.6661,-3.4391,-3.3968,-3.3122,-3.2064,-3.2141,-3.1448,-3.0302,0.0,0.0,0.0,0.0,0.0,0.0,0.0,0.0,0.0,-2.5303,-2.5303,-2.5303,-2.5303,-2.5303,-2.5303,-2.5303,-2.5755,-2.6217,-2.6217,-2.7294,-2.8563,-2.9313,-2.9613,-3.0084,-3.139,-3.1064,-3.0558,-3.0558,-3.076,0.0,0.0,0.0,0.0,0.0,0.0,0.0,0.0,0.0,0.0,0.0,0.0,0.0,0.0,0.0,0.0,0.0,0.0,0.0,0.0,0.0,0.0,0.0,0.0,-3.2064,-3.1384,-3.1641,-3.2449,-3.3715,-3.3715,-3.3568,-3.3321,-3.3603,-3.2798,-3.1297,-3.1194,-3.0884,-3.0497,-3.1241,-3.1376,-3.119,-3.119,-3.119,-3.119,0.0,0.0,0.0,0.0,0.0,0.0,0.0,0.0,0.0,0.0,0.0,0.0,0.0,0.0,0.0,0.0,0.0,0.0,0.0,0.0,-2.9608,-3.0792,-3.2429,-3.3862,-3.4972,-3.6321,-3.6914,-3.6747,-3.7483,-3.7608,-3.7243,-3.8287,-3.8411,-3.7738,-3.7911,-3.6661,-3.4372,-3.3891,-3.2718,-3.1256,-3.2083,-3.1621,-3.0302,0.0,0.0,0.0,0.0,0.0,0.0,0.0,0.0,0.0,-2.5303,-2.5303,-2.5245,-2.4928,-2.4812,-2.4812,-2.4812,-2.5447,-2.6178,-2.6505,-2.7852,-2.9102,-2.9102,-2.9475,-3.0117,-3.1202,-3.0767,-3.021,-3.021,-3.021,0.0,0.0,0.0,0.0,0.0,0.0,0.0,0.0,0.0,0.0,0.0,0.0,0.0,0.0,0.0,0.0,0.0,0.0,0.0,0.0,0.0,0.0,0.0,0.0,0.0,-2.9617,-2.9522,-3.0081,-3.1201,-3.1843,-3.2118,-3.2129,-3.2218,-3.1693,-3.0761,-3.0342,-3.0057,-2.9873,-3.02,-3.0311,-3.0311,-3.0311,-3.0311,-3.0311,0.0,0.0,0.0,0.0,0.0,0.0,0.0,0.0,0.0,0.0,-2.4779,0.0,0.0,0.0,0.0,0.0,0.0,0.0,0.0,0.0,-2.9558,-3.0712,-3.2128,-3.3643,-3.5284,-3.6046,-3.5991,-3.5119,-3.6296,-3.6123,-3.4752,-3.6881,-3.8219,-3.8796,-3.8084,-3.7161,-3.5968,-3.3564,-3.1641,-3.0256,-3.1121,-3.0948,-3.0102,-2.9294,0.0,0.0,0.0,0.0,0.0,0.0,0.0,0.0,-2.5303,-2.5303,-2.5159,-2.4409,-2.4168,-2.4129,-2.4187,-2.4736,-2.5514,-2.639,-2.7783,-2.8994,-2.9167,-2.9893,-3.079,-3.1581,0.0,-2.9953,-2.9898,0.0,0.0,0.0,0.0,0.0,0.0,0.0,0.0,0.0,0.0,0.0,0.0,0.0,0.0,0.0,0.0,0.0,0.0,0.0,0.0,0.0,0.0,0.0,0.0,0.0,0.0,0.0,-2.67,-2.7383,-2.8828,-3.0448,-3.1256,-3.1384,-3.0857,-3.0648,-3.0589,-2.9779,-2.9418,-2.9334,-2.9104,-2.9011,-2.9011,-2.9011,-2.9011,-2.9011,0.0,0.0,0.0,0.0,0.0,0.0,0.0,0.0,0.0,0.0,0.0,0.0,0.0,0.0,0.0,0.0,0.0,0.0,0.0,0.0,-2.8954,-2.9855,-3.3128,-3.5879,-3.7881,-3.7459,-3.6835,-3.6028,-3.5413,-3.4992,-3.4733,-3.6269,-3.6372,-3.5315,-3.5815,-3.4449,-3.1667,-3.0448,-2.9333,-2.8506,-2.9333,-2.9159,-2.8409,-2.8236,-2.7621,0.0,0.0,0.0,0.0,0.0,0.0,0.0,-2.5303,-2.5303,-2.5264,-2.5101,-2.4582,-2.4245,-2.487,-2.5168,-2.5514,-2.639,-2.7275,-2.8262,-2.9576,-2.8901,-2.8053,-2.8242,-2.8293,-2.8117,-2.7493,0.0,0.0,0.0,0.0,0.0,0.0,0.0,0.0,0.0,0.0,0.0,0.0,0.0,0.0,0.0,0.0,0.0,0.0,0.0,0.0,0.0,0.0,0.0,-2.7433,-2.7239,-2.7059,0.0,-2.67,-2.6778,-2.7181,-2.8796,-3.021,-3.1311,-2.9966,-2.9401,-2.9443,-2.9218,-2.8737,-2.8201,-2.8774,-2.9011,-2.9011,-2.9011,-2.9011,-2.9011,0.0,0.0,0.0,0.0,0.0,0.0,0.0,0.0,0.0,0.0,0.0,0.0,0.0,0.0,0.0,0.0,0.0,0.0,0.0,0.0,0.0,-3.041,-3.3585,-3.5823,-3.6879,-3.6523,-3.5917,-3.5092,-3.386,-3.3759,-3.4713,-3.556,-3.5748,-3.5372,-3.5026,-3.3449,-3.0948,-2.964,-2.839,-2.7371,-2.8602,-2.8621,-2.789,-2.789,-2.7351,-2.6486,-2.561,0.0,0.0,0.0,0.0,0.0,0.0,0.0,-2.5207,-2.4832,-2.4428,-2.411,-2.4101,-2.4697,-2.561,-2.6909,-2.7405,-2.7854,-2.883,-2.7728,-2.6524,-2.6604,-2.7027,-2.7241,0.0,0.0,0.0,0.0,0.0,0.0,0.0,0.0,0.0,0.0,0.0,0.0,0.0,0.0,0.0,0.0,0.0,0.0,0.0,0.0,0.0,0.0,0.0,0.0,-2.645,-2.6262,-2.6065,-2.5881,-2.569,-2.576,-2.6062,-2.7291,-2.8319,-2.9053,-2.8227,-2.788,-2.7882,-2.7665,-2.7236,-2.6726,-2.6985,-2.6977,-2.6911,-2.7232,-2.7368,-2.7418,0.0,0.0,0.0,0.0,0.0,0.0,0.0,0.0,0.0,0.0,0.0,0.0,0.0,0.0,0.0,0.0,0.0,0.0,0.0,0.0,0.0,-3.1531,-3.3606,-3.4788,-3.499,-3.4844,-3.4412,-3.3587,-3.2329,-3.272,-3.4632,-3.4792,-3.5356,-3.6138,-3.4647,-3.2949,-3.1141,-2.939,-2.7775,-2.6505,-2.789,-2.8044,-2.7448,-2.7448,-2.7005,-2.6274,-2.5553,-2.5303,-2.5303,-2.5303,0.0,0.0,0.0,0.0,-2.5168,-2.4505,-2.4206,-2.3975,-2.3389,-2.4235,-2.5668,-2.7274,-2.7405,-2.7224,-2.7547,-2.6564,-2.5627,-2.5755,-2.6126,0.0,0.0,0.0,0.0,0.0,0.0,0.0,0.0,0.0,0.0,0.0,0.0,0.0,0.0,0.0,0.0,0.0,0.0,0.0,0.0,0.0,0.0,0.0,0.0,-2.5303,-2.5303,-2.5099,-2.4937,-2.4828,-2.4607,-2.4744,-2.5278,-2.5899,-2.6337,-2.6612,-2.6612,-2.6551,-2.6469,-2.608,-2.5729,-2.5376,-2.5045,-2.4731,-2.4608,-2.5338,-2.5609,-2.571,0.0,0.0,0.0,0.0,0.0,0.0,0.0,0.0,0.0,0.0,-2.2415,0.0,0.0,0.0,0.0,0.0,0.0,0.0,-2.8316,0.0,0.0,-3.2349,-3.3084,-3.3927,-3.4972,-3.4321,-3.3568,-3.2761,-3.1893,-3.2421,-3.4251,-3.4055,-3.405,-3.4143,-3.3421,-3.1718,-2.9333,-2.764,-2.637,-2.5495,-2.5707,-2.5726,-2.5649,-2.5649,-2.5572,-2.5457,-2.5341,-2.5303,-2.5303,-2.5303,-2.5303,0.0,0.0,0.0,-2.5284,-2.5168,-2.4639,-2.4225,-2.4812,-2.513,-2.5534,-2.6524,-2.6063,-2.5545,-2.6333,-2.5768,-2.5082,0.0,0.0,0.0,0.0,0.0,0.0,0.0,0.0,0.0,0.0,0.0,0.0,0.0,0.0,0.0,0.0,0.0,0.0,0.0,0.0,0.0,0.0,0.0,-2.5303,-2.5303,-2.5303,0.0,-2.5303,-2.5099,-2.4998,-2.4974,-2.4651,-2.4534,-2.4611,-2.4542,-2.5273,-2.6612,-2.6612,-2.6407,-2.6056,-2.5729,-2.5367,-2.5016,-2.4701,-2.4537,-2.4608,-2.5338,-2.5609,-2.571,0.0,0.0,0.0,0.0,0.0,0.0,0.0,0.0,0.0,0.0,0.0,-2.3071,0.0,0.0,0.0,-2.6294,-2.7472,-2.8162,-2.8069,-2.9259,-3.0129,-3.0552,-3.1616,-3.2237,-3.2294,-3.1531,-3.0723,-2.9916,-2.9108,-3.0065,-3.2643,-3.2664,-3.3733,-3.5552,-3.356,-3.1781,-3.0117,-2.7643,-2.6101,-2.5303,-2.5303,-2.5303,-2.5303,-2.5303,-2.5303,-2.5303,-2.5303,-2.5303,-2.5303,-2.5303,-2.5303,-2.5303,-2.5303,0.0,0.0,0.0,-2.4873,-2.4607,-2.462,-2.4274,-2.4101,-2.4986,-2.4749,-2.4583,-2.5524,-2.5304,-2.4891,-2.4917,0.0,0.0,0.0,0.0,0.0,0.0,0.0,0.0,0.0,0.0,0.0,0.0,0.0,0.0,0.0,0.0,0.0,0.0,0.0,0.0,0.0,-2.5303,-2.5303,-2.5303,-2.5303,0.0,-2.5303,-2.5214,-2.5065,-2.4877,-2.462,-2.4426,-2.4339,-2.4247,-2.4593,-2.5254,-2.5254,-2.5155,-2.4972,-2.4827,-2.4562,-2.4251,-2.3903,-2.368,-2.3562,-2.416,-2.4374,-2.4475,0.0,0.0,0.0,0.0,0.0,0.0,0.0,0.0,0.0,0.0,0.0,0.0,0.0,0.0,0.0,0.0,-2.7923,-2.8311,-2.8113,-2.913,-2.96,-2.9305,-3.0448,-3.0723,-2.9916,-2.9329,-2.8521,-2.7493,-2.6888,-2.8246,-3.1409,-3.1594,-3.3571,-3.678,-3.4187,-3.2112,-3.0445,-2.8115,-2.6694,-2.5928,-2.5476,-2.5303,-2.5303,-2.5303,-2.5303,-2.5303,-2.5303,-2.5303,-2.5303,-2.5303,-2.5303,-2.5284,-2.5253,-2.5111,0.0,0.0,0.0,-2.4862,-2.4206,-2.3736,-2.3485,-2.3706,-2.3822,-2.4077,-2.4832,0.0,-2.4702,0.0,0.0,0.0,0.0,0.0,0.0,0.0,0.0,0.0,0.0,0.0,0.0,0.0,0.0,0.0,0.0,0.0,0.0,0.0,0.0,0.0,-2.5303,-2.5303,-2.5303,-2.5303,-2.5303,-2.5303,-2.5303,-2.5303,-2.5149,-2.4855,-2.4651,-2.4461,-2.4266,-2.4228,-2.419,-2.419,-2.419,-2.419,-2.419,-2.4016,-2.3795,-2.3522,-2.3135,-2.2832,-2.2659,-2.3204,-2.3393,-2.3511,0.0,0.0,0.0,0.0,0.0,0.0,0.0,0.0,0.0,0.0,0.0,0.0,-2.3376,-2.4483,-2.5596,-2.6719,-2.778,-2.8547,-2.8897,-2.8676,-2.8971,-3.0075,-3.0228,0.0,-2.9067,-2.9012,-2.8223,-2.6667,-2.6631,-2.8246,-3.1384,-3.1409,-3.318,-3.6297,-3.5053,-3.2428,-2.8916,-2.8689,-2.8268,-2.7621,-2.5967,-2.5303,-2.5303,-2.5303,-2.5303,-2.5303,-2.5303,-2.5303,-2.5303,-2.5303,-2.5303,-2.5264,-2.5077,-2.501,-2.4974,0.0,0.0,0.0,-2.4038,-2.4481,-2.4812,-2.3254,-2.3485,-2.4101,-2.4149,0.0,0.0,0.0,0.0,0.0,0.0,0.0,0.0,0.0,0.0,0.0,0.0,0.0,0.0,0.0,0.0,0.0,0.0,0.0,0.0,0.0,0.0,0.0,-2.5303,-2.5303,-2.5303,-2.5303,-2.5303,-2.5303,-2.5303,-2.5303,-2.5203,-2.4998,-2.4855,-2.4685,-2.4478,-2.4284,-2.419,-2.419,-2.419,-2.419,-2.4151,-2.3522,-2.3236,-2.3183,-2.2588,-2.2338,-2.2423,-2.3122,-2.3393,-2.3511,0.0,0.0,0.0,0.0,0.0,0.0,0.0,0.0,0.0,0.0,0.0,0.0,0.0,-2.5509,-2.664,-2.7727,-2.842,-2.853,-2.7888,-2.8433,-2.864,-2.8288,-2.9009,-2.8815,-2.7493,-2.7475,-2.6667,-2.5052,-2.5052,-2.6447,-2.909,-2.909,-2.9714,-3.0895,-3.2218,-3.1804,-2.9954,-2.8004,-2.679,-2.6178,-2.5553,-2.5303,-2.5303,-2.5303,-2.5303,-2.5303,-2.5303,-2.5303,-2.5303,-2.5303,-2.5303,-2.5264,-2.5057,-2.4937,-2.4842,-2.467,-2.4636,-2.4524,-2.3807,-2.396,-2.42,-2.3588,-2.3352,-2.3417,-2.3975,-2.411,0.0,0.0,0.0,0.0,0.0,0.0,0.0,0.0,0.0,0.0,0.0,0.0,0.0,0.0,0.0,0.0,0.0,0.0,0.0,0.0,0.0,0.0,-2.5371,-2.5363,-2.5376,-2.5421,-2.5383,-2.5348,-2.5303,-2.5303,-2.5203,-2.501,-2.485,-2.47,-2.4495,-2.4284,-2.419,-2.419,-2.419,-2.419,-2.417,-2.3937,-2.3837,-2.3774,-2.3129,-2.2883,-2.2841,-2.2733,-2.2699,-2.2733,0.0,0.0,0.0,0.0,0.0,0.0,0.0,0.0,0.0,0.0,0.0,0.0,0.0,0.0,-2.7228,-2.8296,-2.8558,-2.8272,-2.7484,-2.8175,-2.8304,-2.7644,-2.8481,-2.8242,-2.6649,-2.6612,-2.5805,-2.419,-2.419,-2.5291,-2.7402,-2.7402,-2.7695,-2.8246,-2.9496,-2.9857,-2.9401,-2.7415,-2.639,-2.6028,-2.5523,-2.5476,-2.5736,-2.5736,-2.5928,-2.614,0.0,0.0,-2.5687,-2.5399,-2.5264,-2.5163,-2.4993,-2.478,-2.4559,-2.4426,-2.4444,-2.4398,-2.3964,-2.4022,-2.414,-2.3873,-2.3523,-2.3321,-2.361,0.0,0.0,0.0,0.0,0.0,0.0,0.0,0.0,0.0,0.0,0.0,0.0,0.0,0.0,0.0,0.0,0.0,0.0,0.0,0.0,0.0,0.0,0.0,-2.5434,-2.5434,-2.5459,-2.5508,-2.5434,-2.5387,-2.533,-2.5313,-2.5203,-2.501,-2.485,-2.47,-2.4495,-2.4284,-2.419,-2.419,-2.419,-2.419,-2.419,-2.4074,-2.3976,-2.3816,-2.3236,-2.2989,-2.2849,-2.2443,-2.231,-2.231,0.0,0.0,0.0,0.0,0.0,0.0,0.0,0.0,0.0,-2.2378,0.0,0.0,0.0,0.0,0.0,-2.8368,-2.8156,-2.7933,-2.7933,-2.7908,-2.8057,-2.8368,-2.8718,-2.8187,-2.6631,-2.6594,-2.5786,-2.419,-2.419,-2.4997,-2.6539,-2.6539,-2.7365,-2.8773,-2.7236,-2.6686,-2.6933,-2.7071,-2.7294,-2.7402,-2.5904,-2.5813,-2.6563,-2.6563,-2.7082,0.0,-2.6871,-2.6563,0.0,-2.5591,0.0,0.0,-2.4842,-2.4528,-2.419,-2.419,-2.4339,-2.4495,0.0,0.0,0.0,-2.4033,-2.3954,0.0,-2.3024,0.0,0.0,0.0,0.0,0.0,0.0,0.0,0.0,0.0,0.0,0.0,0.0,0.0,0.0,0.0,0.0,0.0,0.0,0.0,0.0,0.0,0.0,-2.5493,-2.5493,-2.5493,-2.5498,-2.5493,-2.5441,-2.5394,-2.5398,-2.533,-2.5203,-2.501,-2.4883,-2.47,-2.4512,-2.4303,-2.4227,-2.419,-2.419,-2.419,-2.417,-2.3837,-2.3522,-2.3189,-2.2848,-2.2537,-2.2321,-2.231,-2.231,-2.231,0.0,0.0,0.0,0.0,0.0,0.0,0.0,0.0,0.0,0.0,0.0,0.0,-2.5848,-2.7397,-2.8711,-2.955,-2.9326,-2.8874,-2.8307,-2.7995,-2.7893,-2.8029,-2.7543,-2.7071,-2.6612,-2.6025,-2.5217,-2.419,-2.419,-2.4428,-2.4869,0.0,-2.5107,-2.5511,-2.5052,-2.4986,-2.52,-2.5393,-2.5652,-2.5904,-2.5466,-2.5437,0.0,0.0,0.0,0.0,0.0,-2.5649,-2.561,0.0,-2.5264,-2.5171,0.0,-2.4528,-2.419,-2.419,-2.4247,-2.4284,-2.4284,0.0,0.0,0.0,0.0,0.0,0.0,0.0,0.0,0.0,0.0,0.0,0.0,0.0,0.0,0.0,0.0,0.0,0.0,0.0,0.0,0.0,0.0,0.0,0.0,0.0,0.0,0.0,0.0,-2.5511,-2.5564,-2.5629,-2.5611,-2.5567,-2.5517,-2.5453,-2.5398,-2.533,-2.5274,-2.5214,-2.503,-2.4864,-2.4716,-2.4512,-2.4339,-2.419,-2.419,-2.419,-2.417,-2.3837,-2.3795,-2.3837,-2.3021,-2.2797,-2.2908,-2.247,-2.231,-2.231,0.0,0.0,0.0,0.0,0.0,0.0,0.0,0.0,0.0,0.0,0.0,0.0,-2.7774,-2.9278,-3.0178,-3.0137,-2.9812,-2.9347,-2.8745,-2.829,-2.8051,-2.8112,-2.7785,-2.7291,-2.6612,-2.6135,-2.5328,-2.419,-2.419,0.0,0.0,0.0,-2.419,-2.419,-2.419,-2.4321,-2.4512,-2.4716,-2.4949,0.0,-2.5264,0.0,0.0,-2.5851,-2.6082,0.0,0.0,0.0,-2.6274,-2.5553,-2.5212,0.0,0.0,-2.4444,-2.4209,-2.4303,-2.4284,-2.4247,-2.4392,-2.4478,-2.4528,-2.4591,0.0,0.0,-2.3389,-2.3472,0.0,0.0,0.0,0.0,0.0,0.0,0.0,0.0,0.0,0.0,0.0,0.0,0.0,0.0,0.0,0.0,0.0,0.0,0.0,0.0,-2.5498,-2.5567,-2.5636,-2.5683,-2.5683,-2.5637,-2.559,-2.5517,-2.5441,-2.5387,-2.5321,-2.5303,-2.5099,-2.4943,-2.479,-2.4591,-2.4393,-2.419,-2.419,-2.419,-2.417,-2.3837,-2.3816,-2.3937,-2.3346,-2.3069,-2.2947,-2.259,-2.2415,-2.231,0.0,0.0,0.0,0.0,0.0,0.0,0.0,0.0,0.0,0.0,-2.742,-2.8465,-3.038,-3.1344,-3.1512,-3.0672,-3.0055,-2.9583,-2.9242,-2.8658,-2.8355,-2.8402,-2.8609,-2.8058,-2.6631,-2.6521,-2.5713,0.0,0.0,0.0,0.0,0.0,0.0,0.0,0.0,0.0,-2.4561,-2.4746,0.0,-2.5046,-2.5224,-2.5774,0.0,0.0,-2.6948,-2.7505,-2.6736,-2.6948,-2.7371,-2.5832,-2.508,0.0,0.0,0.0,0.0,0.0,-2.4393,-2.4339,-2.47,-2.467,-2.4594,-2.476,0.0,0.0,-2.3068,-2.3127,-2.31,0.0,0.0,0.0,0.0,0.0,0.0,0.0,0.0,0.0,0.0,0.0,0.0,0.0,0.0,0.0,0.0,0.0,-2.5406,-2.5398,-2.5531,-2.5631,-2.5683,-2.5703,-2.5703,-2.5703,-2.5633,-2.5558,-2.5493,-2.5428,-2.5363,-2.5303,-2.5111,-2.4968,-2.4832,-2.4623,-2.4409,-2.4228,-2.4209,-2.419,-2.417,-2.3876,-2.3774,-2.3753,-2.3671,-2.3277,-2.2746,-2.2721,-2.2527,-2.231,0.0,0.0,0.0,0.0,0.0,0.0,0.0,0.0,0.0,-2.8972,-2.9429,-3.057,-3.2781,-3.2101,-3.192,-3.2922,-3.1494,-3.0417,-3.0016,-2.8688,-2.8057,-2.8384,-2.7533,-2.6924,-2.6612,-2.597,-2.5144,0.0,0.0,0.0,0.0,0.0,0.0,-2.4209,-2.4375,-2.4543,-2.476,0.0,0.0,-2.5234,-2.5274,0.0,-2.5553,-2.5553,-2.5649,-2.5793,-2.561,-2.5649,-2.5774,-2.5399,-2.508,-2.479,0.0,0.0,0.0,-2.4495,0.0,0.0,-2.4775,-2.4775,0.0,0.0,0.0,0.0,-2.4389,-2.3836,-2.3251,0.0,0.0,0.0,0.0,0.0,0.0,0.0,0.0,0.0,0.0,0.0,0.0,0.0,0.0,0.0,0.0,0.0,-2.5406,-2.5398,-2.5531,-2.5603,-2.5629,-2.5662,-2.5703,-2.5703,-2.5573,-2.5503,-2.5493,-2.5376,-2.5313,-2.5303,-2.5264,-2.5141,-2.4949,-2.4814,-2.4623,-2.4426,-2.4266,-2.419,-2.419,-2.4132,-2.4094,-2.4054,-2.3522,-2.3212,-2.3069,-2.2797,-2.2527,-2.231,0.0,0.0,0.0,0.0,0.0,0.0,0.0,0.0,-2.9898,-3.0839,-3.18,-3.2579,-3.305,-3.2897,-3.2757,-3.2757,-3.1907,-3.1139,-3.0523,-2.9566,-2.891,-2.8707,-2.8118,-2.7438,-2.6631,-2.6209,-2.5401,0.0,0.0,0.0,0.0,0.0,0.0,-2.3621,-2.4225,-2.4318,-2.4088,0.0,-2.5065,-2.5163,-2.5264,0.0,-2.5303,-2.5303,-2.5303,-2.5303,-2.5303,-2.5303,-2.536,-2.5813,-2.5482,0.0,0.0,-2.4766,-2.467,0.0,-2.4766,-2.4847,0.0,0.0,0.0,-2.4877,0.0,0.0,0.0,-2.3627,-2.306,0.0,0.0,0.0,0.0,0.0,0.0,0.0,0.0,0.0,0.0,0.0,0.0,0.0,0.0,0.0,0.0,0.0,-2.5253,-2.5391,-2.5465,-2.5503,-2.5551,-2.5607,-2.5658,-2.5658,-2.5573,-2.552,-2.5493,-2.5406,-2.533,-2.5303,-2.5303,-2.5184,-2.4998,-2.4869,-2.4685,-2.4495,-2.4284,-2.419,-2.4171,-2.3616,-2.3412,-2.3409,-2.3444,-2.3346,-2.3165,-2.2865,-2.2571,-2.231,-2.7469,-2.7467,0.0,0.0,0.0,0.0,0.0,0.0,-3.0496,-3.1922,-3.339,-3.3968,-3.3035,-3.3651,-3.3801,-3.3036,-3.2166,-3.1572,-3.1391,-3.0348,-2.9457,-2.8815,-2.892,-2.8168,-2.641,-2.6521,-2.5805,0.0,0.0,0.0,0.0,0.0,0.0,-2.3254,-2.3998,-2.4038,-2.3637,-2.4474,0.0,-2.5077,0.0,-2.5303,-2.5303,-2.5303,-2.5303,-2.5303,-2.5303,-2.5303,-2.5399,-2.612,-2.5738,-2.501,-2.501,-2.493,0.0,0.0,0.0,0.0,0.0,0.0,0.0,0.0,0.0,-2.4358,0.0,0.0,0.0,0.0,0.0,0.0,0.0,0.0,0.0,0.0,0.0,0.0,0.0,0.0,0.0,0.0,0.0,0.0,0.0,0.0,-2.5146,-2.536,-2.5398,-2.5421,-2.5488,-2.5547,-2.5573,-2.5573,-2.5564,-2.5539,-2.5473,-2.5401,-2.5346,-2.5303,-2.5303,-2.5214,-2.5046,-2.4883,-2.4716,-2.4526,-2.4303,-2.4116,-2.3895,-2.3027,-2.2585,-2.2493,-2.313,-2.32,-2.2876,-2.2822,-2.2588,-2.231,-2.7321,-2.7023,0.0,0.0,0.0,0.0,0.0,0.0,-3.0023,-3.1263,-3.2756,-3.3935,-3.4482,-3.4383,-3.5065,-3.7054,-3.3037,-3.1254,-3.3331,-3.0075,-2.8026,-2.7934,-2.8631,-2.7915,-2.5605,-2.6245,-2.5805,-2.419,0.0,0.0,0.0,0.0,0.0,0.0,-2.3755,-2.3992,-2.4601,0.0,-2.4601,0.0,-2.5284,-2.5303,0.0,-2.5303,-2.5303,-2.5303,-2.5303,-2.5303,-2.5322,0.0,-2.5239,-2.501,0.0,-2.4998,-2.4986,-2.4998,0.0,0.0,0.0,0.0,0.0,0.0,-2.4752,0.0,0.0,0.0,0.0,0.0,0.0,0.0,0.0,0.0,0.0,0.0,0.0,0.0,0.0,0.0,0.0,0.0,0.0,0.0,0.0,0.0,0.0,-2.5303,-2.5371,-2.5394,-2.5408,-2.5468,-2.5503,-2.5503,-2.544,-2.5415,-2.5413,-2.5329,-2.5303,-2.5303,-2.5303,-2.5303,-2.5253,-2.4936,-2.479,-2.4746,-2.4357,-2.3804,-2.3125,-2.2997,-2.2539,-2.1917,-2.2177,-2.2089,-2.1868,-2.2478,-2.2554,-2.231,-2.6815,-2.7165,-2.7504,0.0,0.0,0.0,0.0,0.0,-3.2366,-3.1773,-3.3776,-3.5162,-3.4783,-3.4871,-3.5311,-3.6319,-3.4537,-3.3375,0.0,0.0,-3.0375,-2.9898,-2.9769,-2.8998,-2.753,-2.6906,-2.6043,-2.4907,-2.4428,0.0,0.0,0.0,0.0,0.0,-2.3901,0.0,-2.4077,0.0,-2.4877,0.0,0.0,0.0,0.0,-2.5303,-2.5303,-2.5303,-2.5303,-2.5303,-2.5303,0.0,-2.5234,0.0,0.0,0.0,0.0,0.0,0.0,0.0,0.0,0.0,0.0,0.0,0.0,0.0,-2.4495,0.0,-2.3786,0.0,0.0,0.0,0.0,0.0,0.0,0.0,0.0,0.0,0.0,0.0,0.0,0.0,0.0,0.0,0.0,0.0,0.0,0.0,0.0,-2.5329,-2.5329,-2.542,-2.5447,-2.5441,-2.5408,-2.5413,-2.5406,-2.533,-2.5303,-2.5303,-2.5303,-2.5253,-2.513,-2.4896,-2.4482,-2.3914,-2.3619,-2.3052,-2.2263,-2.1625,-2.1189,-2.0862,-2.0749,-2.1172,-2.189,-2.2306,-2.2415,-2.231,-2.6504,-2.7131,-2.7606,-2.7875,0.0,0.0,0.0,0.0,0.0,-3.2072,-3.4296,-3.5682,-3.5021,-3.5535,-3.6068,-3.6492,-3.5864,-3.495,0.0,0.0,-3.1623,0.0,0.0,0.0,-2.8062,-2.731,-2.6429,-2.5403,0.0,0.0,0.0,0.0,0.0,0.0,0.0,-2.4091,-2.3906,0.0,-2.4952,-2.5303,-2.5303,-2.5303,-2.5303,-2.5303,-2.5303,-2.5303,-2.5303,-2.5303,-2.5303,-2.5303,-2.5303,0.0,-2.5303,0.0,0.0,0.0,0.0,0.0,-2.5046,0.0,0.0,0.0,0.0,0.0,0.0,0.0,0.0,0.0,0.0,0.0,0.0,0.0,0.0,-2.1986,0.0,0.0,0.0,0.0,0.0,0.0,0.0,0.0,0.0,0.0,0.0,0.0,-2.5034,0.0,-2.4986,-2.5222,-2.5352,-2.5299,-2.5352,-2.5352,-2.5288,-2.5303,-2.5303,-2.5303,-2.5303,-2.5184,-2.4998,-2.4869,-2.4249,-2.3284,-2.3104,-2.2409,-2.1382,-2.0588,-2.0154,-1.9938,-1.9765,-2.0386,-2.1432,-2.1902,-2.2163,-2.231,-2.6539,-2.6708,-2.6725,-2.6759,0.0,0.0,0.0,0.0,0.0,0.0,0.0,0.0,0.0,0.0,0.0,0.0,0.0,-3.51,-3.5307,0.0,-3.0044,0.0,0.0,-2.9536,0.0,0.0,-2.6979,0.0,0.0,0.0,0.0,0.0,0.0,0.0,-2.3715,-2.4002,-2.4724,-2.4317,-2.4582,-2.5303,-2.5303,-2.5303,-2.5303,0.0,-2.5303,-2.5303,-2.5303,0.0,0.0,-2.5303,-2.5303,0.0,0.0,0.0,0.0,0.0,0.0,0.0,0.0,0.0,0.0,-2.4543,0.0,0.0,0.0,0.0,-2.419,0.0,0.0,0.0,0.0,0.0,-2.3639,-2.206,-2.2226,0.0,0.0,0.0,0.0,0.0,0.0,0.0,0.0,0.0,0.0,0.0,-2.4389,0.0,-2.4187,-2.487,-2.5214,-2.5022,-2.5194,-2.5214,-2.5003,-2.5214,-2.5303,-2.5303,-2.5303,-2.5184,-2.4998,-2.4869,-2.4249,-2.3284,-2.3104,-2.2061,-2.0539,-2.0503,-2.0026,-1.9353,-1.9591,-1.9732,-1.992,-2.109,-2.1858,-2.231,-2.6707,-2.7097,-2.7436,-2.7483,-2.7255,0.0,0.0,-3.1315,0.0,0.0,-3.4931,0.0,0.0,-3.7914,-3.8776,0.0,0.0,-3.762,-3.7598,-3.574,0.0,0.0,0.0,-3.1843,0.0,0.0,0.0,0.0,0.0,0.0,0.0,0.0,0.0,0.0,0.0,-2.4407,0.0,0.0,0.0,0.0,0.0,-2.5303,-2.5303,0.0,0.0,-2.5303,-2.5303,-2.5303,0.0,-2.5303,-2.5303,-2.5303,-2.5303,-2.5303,-2.5303,-2.5303,-2.5303,0.0,0.0,0.0,-2.4716,-2.4393,0.0,0.0,0.0,0.0,0.0,0.0,0.0,0.0,0.0,-2.419,-2.3657,-2.206,-2.164,-2.086,0.0,0.0,0.0,0.0,0.0,0.0,0.0,0.0,0.0,-2.2831,-2.3331,-2.3774,0.0,-2.436,-2.4716,-2.5184,-2.5264,-2.5264,-2.5203,-2.5264,-2.5303,-2.5303,-2.5303,-2.5149,-2.485,-2.4209,-2.333,-2.2255,-2.1636,-2.0721,-1.9711,-1.9711,-1.9546,-1.9326,-1.9388,-1.9542,-1.9776,-2.0312,-2.0968,-2.1634,-2.7063,-2.7266,-2.7504,0.0,0.0,0.0,0.0,0.0,0.0,0.0,-3.6429,0.0,-3.8603,0.0,-3.9538,0.0,-3.9932,-3.9118,-3.8423,-3.7332,0.0,-3.3054,-3.3495,-3.2632,0.0,0.0,0.0,0.0,0.0,-2.5273,0.0,-2.419,-2.419,-2.4209,0.0,-2.4501,-2.437,-2.4903,-2.502,0.0,0.0,-2.5303,0.0,0.0,-2.5303,0.0,0.0,-2.5303,-2.5303,-2.5303,-2.5303,-2.5303,-2.5303,-2.5303,-2.5303,-2.5303,-2.5303,-2.5233,-2.4902,-2.4804,0.0,0.0,-2.419,0.0,-2.419,0.0,0.0,0.0,0.0,0.0,0.0,0.0,-2.3309,-2.188,-2.1056,-2.0144,0.0,-1.9679,0.0,0.0,0.0,0.0,0.0,0.0,-2.3312,-2.2408,-2.2908,-2.3514,0.0,0.0,-2.4359,-2.5165,-2.5184,-2.5184,-2.5184,-2.5264,-2.5303,-2.5303,-2.5303,-2.4954,-2.4313,-2.3761,-2.2701,-2.1308,-2.0723,-2.0042,-1.9305,-1.9305,-1.9305,-1.9289,-1.9212,-1.9236,-1.9356,-1.9762,-2.0269,-2.0873,-2.774,-2.7351,0.0,0.0,-2.8571,0.0,0.0,0.0,-3.5561,0.0,-3.781,-3.8784,-3.8984,-3.9478,-4.0054,-4.0822,-4.0433,-3.9518,-3.8003,-3.7635,0.0,0.0,-3.2999,-3.1971,-2.8062,0.0,0.0,0.0,0.0,0.0,-2.4263,-2.4227,-2.4209,-2.4228,-2.4639,0.0,-2.3596,-2.4747,-2.4793,-2.4168,-2.4986,-2.5303,-2.5303,-2.5303,0.0,-2.5303,-2.5303,-2.5303,-2.5303,-2.5303,-2.5303,-2.5303,-2.5303,-2.5303,-2.5303,-2.5303,-2.5303,-2.5233,-2.4902,-2.4804,-2.47,-2.4303,0.0,0.0,0.0,0.0,-2.419,0.0,0.0,0.0,0.0,0.0,0.0,-2.166,-2.0562,-1.9647,-1.9039,0.0,0.0,0.0,0.0,0.0,0.0,-2.3518,-2.4072,-2.1639,-2.3043,-2.4033,0.0,0.0,0.0,-2.4972,-2.501,-2.501,-2.501,-2.5192,-2.5284,-2.5303,-2.5303,-2.4678,-2.3496,-2.3458,-2.2364,-2.0503,-2.0448,-2.0005,-1.9305,-1.9305,-1.9305,-1.9274,-1.9086,-1.8825,-1.8672,-1.9394,-1.9767,-2.0002,-2.8636,-2.9414,-3.0224,0.0,-3.0023,-3.0351,0.0,0.0,0.0,0.0,-3.8408,-3.8901,-3.9468,-3.9629,-3.9887,-4.0317,-3.9713,0.0,0.0,0.0,0.0,-3.4192,-3.3899,-3.2761,-3.0503,-3.0283,-2.9512,-2.8081,0.0,0.0,-2.509,-2.4616,-2.4409,-2.4426,0.0,-2.448,-2.3738,-2.4206,-2.4302,-2.4168,-2.4986,-2.5303,0.0,0.0,-2.5303,-2.5303,-2.5303,-2.5303,-2.5303,-2.5303,-2.5303,-2.5303,-2.5303,-2.5303,-2.5303,-2.5303,-2.5303,-2.5233,-2.4902,-2.4804,-2.47,-2.4303,-2.419,-2.419,0.0,0.0,0.0,0.0,0.0,0.0,0.0,0.0,0.0,-2.274,-2.1486,-2.0394,-1.9796,0.0,0.0,-2.2003,0.0,0.0,0.0,-2.2167,-2.1857,-2.0688,-2.2177,0.0,0.0,0.0,0.0,-2.4972,-2.501,-2.501,-2.501,-2.5046,-2.5152,-2.5303,-2.5303,-2.4678,-2.3477,-2.2886,-2.1836,-2.0466,-1.9877,-1.9491,-1.9305,-1.9305,-1.9305,-1.9274,-1.9086,-1.8715,-1.8356,-1.8903,-1.8773,-1.8532,-2.8924,-3.064,0.0,-3.3071,0.0,0.0,-3.5455,0.0,0.0,-3.8959,-3.9335,0.0,-3.9547,-3.9599,-3.9605,-3.9679,-3.8923,0.0,-3.8823,0.0,0.0,-3.4559,-3.3715,-3.2192,-2.9879,-2.9732,0.0,-2.6906,0.0,0.0,-2.4986,-2.4667,-2.4561,-2.4639,0.0,-2.4541,-2.3797,-2.4015,-2.4302,-2.4659,-2.512,0.0,0.0,-2.5337,-2.5363,-2.5383,-2.5354,-2.5329,-2.5339,-2.5303,-2.5322,-2.5339,-2.5303,-2.5303,-2.5303,-2.5303,-2.5303,-2.5233,-2.4902,-2.4804,-2.47,-2.4303,-2.419,-2.419,-2.419,-2.419,-2.419,0.0,0.0,0.0,0.0,0.0,0.0,-2.2446,-2.1399,-2.0725,0.0,0.0,0.0,0.0,-2.3022,0.0,0.0,0.0,-2.1961,0.0,0.0,0.0,0.0,0.0,0.0,0.0,-2.4855,-2.5034,-2.5141,-2.5141,-2.5152,-2.5163,-2.5163,-2.4357,-2.2839,-2.237,-2.1357,-1.995,-1.9491,-1.9305,-1.9305,-1.9305,-1.9243,-1.9134,-1.8789,-1.8469,-1.8218,-1.8365,-1.8166,-1.7957,-2.9372,0.0,0.0,0.0,0.0,0.0,0.0,-3.8474,0.0,-4.0039,0.0,-4.0089,-3.943,-3.9244,-3.9106,-3.8832,0.0,-3.7479,-3.7173,-3.6413,-3.5275,-3.3715,-3.2669,-3.0834,-2.8026,-2.8448,-2.7328,0.0,0.0,0.0,-2.4694,0.0,0.0,0.0,0.0,0.0,0.0,-2.4024,-2.4505,-2.5149,-2.5264,-2.5348,-2.5394,-2.5394,-2.5447,-2.5484,-2.5434,-2.5413,-2.5383,-2.5331,-2.5339,-2.5379,-2.5322,-2.5303,-2.5303,-2.5303,-2.5303,-2.5194,-2.475,-2.4634,-2.4512,-2.4008,-2.397,-2.4081,-2.4081,-2.4174,-2.4266,-2.4266,-2.4266,0.0,0.0,0.0,0.0,-2.1877,0.0,0.0,0.0,0.0,0.0,0.0,0.0,0.0,0.0,0.0,0.0,0.0,0.0,0.0,0.0,0.0,0.0,0.0,-2.4678,0.0,-2.5264,0.0,-2.5192,-2.5034,-2.5022,-2.4024,-2.2204,-2.2174,-2.1179,-1.9455,-1.9455,-1.9366,-1.9259,-1.9259,-1.9134,-1.8896,-1.843,-1.8229,-1.8166,-1.7949,-1.7833,-1.7896,-3.2165,0.0,0.0,0.0,0.0,-3.8436,-4.0276,-3.9743,-3.9409,-4.0113,-4.078,-4.0634,-3.9229,-3.8474,-3.8002,-3.7783,-3.7028,0.0,0.0,0.0,0.0,-3.2852,-3.0754,-2.936,-2.8792,-2.764,-2.6845,0.0,0.0,0.0,-2.5731,-2.5167,0.0,0.0,0.0,0.0,-2.4053,-2.4101,0.0,-2.4379,-2.5024,-2.5339,-2.5398,-2.5398,-2.5441,-2.5508,-2.5498,-2.5447,-2.5383,-2.5331,-2.5303,-2.5313,-2.5293,-2.5303,-2.5303,-2.5303,-2.5303,-2.5079,-2.4005,-2.3742,-2.3493,-2.2474,-2.2842,-2.3459,-2.3459,-2.4108,-2.47,-2.47,-2.47,-2.4639,-2.4478,0.0,0.0,0.0,0.0,0.0,0.0,0.0,0.0,0.0,0.0,0.0,0.0,0.0,0.0,0.0,0.0,0.0,0.0,0.0,0.0,0.0,0.0,0.0,0.0,0.0,0.0,-2.5253,-2.5088,-2.4379,-2.3234,-2.3116,-2.2054,-2.0283,-2.0283,-1.9819,-1.9052,-1.9052,-1.8896,-1.8659,-1.8566,-1.8391,-1.8187,-1.8146,-1.7992,-1.7828,-3.4641,0.0,0.0,0.0,0.0,0.0,0.0,-4.0961,0.0,-4.0684,-4.0302,-3.9719,-3.8922,-3.8122,-3.7252,-3.6274,-3.5477,-3.4468,-3.322,-3.2761,-3.2192,-3.1403,-2.9837,0.0,-2.7787,-2.6594,-2.587,-2.5651,0.0,0.0,-2.5479,-2.5152,0.0,-2.5163,0.0,-2.5117,0.0,0.0,0.0,-2.4814,-2.52,-2.5391,-2.5459,-2.5498,-2.5547,-2.5601,-2.5561,-2.5535,-2.5493,-2.5383,-2.5368,-2.5391,-2.5331,-2.5303,-2.5303,-2.5303,-2.5005,-2.4524,-2.3826,-2.3316,-2.2817,-2.2171,-2.2361,-2.2734,-2.2734,-2.3441,-2.4115,-2.4115,-2.44,-2.4575,-2.4375,-2.4445,0.0,0.0,0.0,0.0,0.0,0.0,0.0,0.0,0.0,0.0,0.0,0.0,0.0,0.0,0.0,0.0,0.0,0.0,0.0,0.0,0.0,0.0,0.0,0.0,0.0,-2.5152,-2.5046,-2.4448,-2.3397,-2.3329,-2.2296,-2.0503,-2.0503,-1.9996,-1.9134,-1.8896,-1.8623,-1.8371,-1.8229,-1.8121,-1.7941,-1.7569,-1.7586,-1.7811,0.0,-3.7395,0.0,0.0,-4.0579,0.0,-4.0873,-4.1387,-4.1552,-4.0946,-3.9588,-3.8634,-3.8469,-3.7551,-3.6376,-3.4862,-3.4009,-3.2878,-3.1335,-3.1029,-3.0546,-2.9789,-2.8764,-2.764,-2.6374,-2.5548,-2.4949,0.0,0.0,0.0,0.0,-2.5057,0.0,0.0,0.0,0.0,0.0,0.0,-2.5368,-2.5421,-2.5421,-2.5451,-2.5535,-2.557,-2.5637,-2.5683,-2.5636,-2.5607,-2.5573,-2.5451,-2.5453,-2.5465,-2.5339,-2.5303,-2.5303,-2.5303,-2.4736,-2.4024,-2.3651,-2.2909,-2.2159,-2.179,-2.184,-2.1997,-2.1997,-2.2842,-2.3619,-2.3619,-2.4143,-2.4556,-2.4409,-2.4607,0.0,0.0,0.0,0.0,0.0,0.0,0.0,0.0,0.0,0.0,0.0,0.0,0.0,0.0,0.0,0.0,0.0,0.0,0.0,0.0,0.0,0.0,-2.5303,0.0,-2.5214,0.0,-2.4986,-2.4496,-2.3624,-2.3529,-2.2506,-2.0794,-2.0794,-2.0193,-1.9196,-1.8698,-1.843,-1.8249,-1.7992,-1.79,-1.7815,-1.7241,-1.7352,-1.7811,0.0,0.0,0.0,0.0,0.0,0.0,0.0,-4.0065,-4.0102,-4.001,-3.9258,-3.8414,-3.7679,-3.6193,-3.489,-3.399,-3.3183,-3.2127,-3.0764,-2.9761,-2.8946,-2.8311,-2.6646,-2.5678,-2.5531,-2.4722,-2.4467,0.0,0.0,0.0,0.0,0.0,0.0,0.0,0.0,0.0,0.0,-2.5498,-2.5473,-2.5484,-2.5484,-2.5539,-2.5598,-2.5601,-2.5637,-2.5703,-2.5683,-2.5658,-2.5595,-2.5526,-2.5459,-2.5391,-2.5312,-2.5303,-2.5303,-2.5303,-2.4736,-2.389,-2.2965,-2.2073,-2.1192,-2.0259,-2.0706,-2.1374,-2.1374,-2.2756,-2.4034,-2.4034,-2.4533,-2.4962,-2.4917,-2.485,-2.479,0.0,0.0,0.0,0.0,0.0,0.0,-2.4171,0.0,0.0,0.0,0.0,0.0,0.0,0.0,0.0,0.0,0.0,0.0,0.0,0.0,-2.5303,-2.5303,-2.5303,0.0,-2.5264,-2.4962,-2.4747,-2.4647,-2.4281,-2.3217,-2.1692,-2.1692,-2.0675,-1.8984,-1.845,-1.8371,-1.8528,-1.827,-1.8166,-1.8166,-1.8097,-1.7945,-1.7811,0.0,0.0,0.0,0.0,0.0,0.0,0.0,-3.99,-3.9533,-3.8579,-3.8175,-3.7661,-3.6853,-3.5891,-3.4759,-3.3445,-3.272,-3.1474,-2.9401,-2.8895,-2.8316,-2.7583,-2.6284,-2.5579,-2.5579,-2.4782,-2.4528,0.0,0.0,0.0,0.0,0.0,0.0,0.0,0.0,-2.5547,-2.5607,-2.552,-2.5511,-2.5558,-2.5558,-2.559,-2.5603,-2.5637,-2.5682,-2.5683,-2.5659,-2.5611,-2.5573,-2.5488,-2.5415,-2.5383,-2.5322,-2.5303,-2.5207,-2.4716,-2.3985,-2.3111,-2.2182,-2.132,-2.0593,-2.0203,-2.0402,-2.0706,-2.0706,-2.2055,-2.3321,-2.3321,-2.4312,-2.5118,-2.4917,-2.5,-2.5049,0.0,0.0,0.0,0.0,0.0,0.0,0.0,0.0,-2.4247,0.0,0.0,0.0,0.0,0.0,0.0,0.0,0.0,0.0,-2.4181,0.0,-2.5348,-2.5303,-2.5303,-2.5303,-2.5303,-2.516,-2.4987,-2.479,-2.4623,-2.3553,-2.1748,-2.0737,-1.9699,-1.8752,-1.8528,-1.831,-1.8103,-1.8014,-1.7971,-1.7919,-1.7458,-1.7514,-1.7698,-3.8857,0.0,-3.8946,0.0,-3.9698,-3.9551,-3.9551,-3.959,-3.9091,-3.7487,-3.7313,-3.7045,-3.6159,-3.5355,-3.4315,-3.2892,-3.2182,-3.0882,-2.8663,-2.8221,-2.7697,-2.689,-2.5884,0.0,-2.5353,-2.4793,-2.4623,-2.4869,-2.5026,0.0,0.0,0.0,0.0,0.0,-2.5567,-2.5607,-2.5683,-2.5601,-2.5595,-2.5633,-2.5633,-2.5633,-2.5634,-2.5683,-2.5703,-2.5683,-2.5611,-2.5595,-2.5554,-2.5441,-2.5383,-2.5363,-2.5313,-2.5303,-2.5139,-2.4341,-2.3475,-2.2601,-2.1735,-2.0908,-2.0312,-2.0312,-2.0312,-2.0312,-2.0312,-2.16,-2.2928,-2.3428,-2.4485,-2.5233,-2.4975,-2.5138,-2.5253,0.0,0.0,0.0,0.0,0.0,0.0,0.0,-2.419,-2.4266,-2.4478,0.0,0.0,0.0,0.0,0.0,0.0,0.0,0.0,0.0,0.0,0.0,0.0,0.0,-2.5214,-2.5214,-2.5107,-2.4936,-2.4697,-2.4148,-2.3268,-2.2042,-2.0115,-1.9243,-1.9129,-1.8749,-1.8371,-1.8014,-1.7878,-1.7811,-1.7743,-1.7219,-1.7294,-1.7551,-3.9635,-3.9239,-3.8946,-3.9753,-3.9239,-3.8707,-3.8707,-3.8923,-3.854,-3.6905,-3.6944,-3.6697,-3.5621,-3.4258,-3.3089,-3.2279,-3.1412,-3.0311,-2.8893,-2.7786,-2.6865,0.0,0.0,-2.4495,-2.4495,-2.4495,-2.4663,-2.501,0.0,0.0,-2.5398,0.0,0.0,-2.5603,-2.5662,-2.5703,-2.5703,-2.5703,-2.5703,-2.5703,-2.5703,-2.5703,-2.5703,-2.5703,-2.5703,-2.5683,-2.5611,-2.5558,-2.5484,-2.5421,-2.5354,-2.5313,-2.5303,-2.5303,-2.5139,-2.4341,-2.3475,-2.2601,-2.1735,-2.0908,-2.0312,-2.0312,-2.0312,-2.0312,-2.0312,-2.16,-2.3274,-2.4918,-2.5284,-2.5303,-2.5284,-2.5303,-2.5303,-2.5303,0.0,0.0,0.0,0.0,0.0,0.0,-2.419,-2.4266,-2.4478,0.0,0.0,0.0,0.0,0.0,0.0,0.0,0.0,-2.5367,-2.5386,0.0,-2.5303,-2.5099,-2.4991,-2.501,-2.4663,-2.4512,-2.4439,-2.2659,-2.2262,-2.285,-2.0372,-1.9748,-2.0378,-1.9129,-1.8603,-1.8528,-1.8014,-1.7811,-1.7811,-1.7794,-1.7572,-1.7304,-3.7387,-3.7239,-3.7129,-3.7404,-3.7839,-3.8155,-3.8155,-3.8364,-3.8174,-3.7103,-3.6721,-3.5989,-3.4491,-3.394,-3.3329,0.0,-3.1821,-3.0521,0.0,-2.7872,-2.7031,-2.5597,-2.5089,-2.4845,-2.4845,-2.4845,-2.4924,-2.506,0.0,0.0,0.0,-2.5601,-2.5611,-2.5662,-2.5683,-2.5703,-2.5703,-2.5703,-2.5703,-2.5703,-2.5703,-2.5703,-2.5703,-2.5703,-2.5703,-2.5683,-2.5611,-2.5558,-2.5479,-2.5415,-2.5354,-2.5303,-2.5303,-2.5303,-2.5034,-2.362,-2.3032,-2.2485,-2.1081,-2.0485,-2.0312,-2.0312,-2.0312,-2.0446,-2.0985,-2.2447,-2.3985,-2.5082,-2.5303,-2.5303,-2.5303,-2.5339,-2.5379,-2.5379,0.0,0.0,0.0,0.0,0.0,0.0,-2.4607,-2.4666,0.0,-2.495,0.0,0.0,0.0,0.0,0.0,0.0,0.0,0.0,-2.5477,0.0,-2.5313,-2.5243,-2.5141,-2.501,-2.4898,-2.4723,-2.4439,-2.2624,-2.2244,-2.2868,-2.0372,-1.9669,-2.0209,-1.9055,-1.8489,-1.829,-1.7949,-1.7811,-1.7811,-1.7811,-1.7726,-1.7589,-3.6636,-3.6356,-3.6244,-3.6541,-3.6889,-3.7242,-3.7561,-3.7838,-3.7709,-3.6896,-3.6594,-3.5812,-3.4144,-3.3651,0.0,-3.2273,-3.1584,-3.0275,-2.8044,-2.789,-2.708,-2.528,-2.5077,-2.501,-2.501,0.0,0.0,-2.5213,-2.5424,-2.5598,-2.5703,-2.566,-2.566,-2.5703,-2.5703,-2.5703,-2.5703,-2.5703,-2.5703,-2.5703,-2.5703,-2.5703,-2.5703,-2.5703,-2.5703,-2.5683,-2.5611,-2.5567,-2.5535,-2.5465,-2.5391,-2.5339,-2.5339,-2.5119,-2.4582,-2.3197,-2.2793,-2.2427,-2.0754,-2.0312,-2.0369,-2.0677,-2.0754,-2.1043,-2.2216,-2.3321,-2.4341,-2.5139,-2.5303,-2.5303,-2.533,-2.5379,-2.542,-2.5434,0.0,-2.5337,0.0,0.0,0.0,0.0,0.0,0.0,0.0,-2.5101,0.0,0.0,0.0,0.0,0.0,0.0,0.0,-2.5493,-2.5493,0.0,-2.5313,-2.5224,-2.5111,-2.501,-2.4872,-2.4708,-2.4458,-2.2937,-2.252,-2.2868,-2.0619,-1.9844,-2.012,-1.8923,-1.8351,-1.8166,-1.7905,-1.7811,-1.7811,-1.7811,-1.7726,-1.7526,-3.693,-3.633,0.0,0.0,-3.6371,0.0,-3.6936,-3.7261,-3.7183,-3.6439,-3.6431,-3.5911,-3.4295,-3.3333,-3.2487,-3.1679,0.0,0.0,0.0,-2.789,-2.7028,-2.5111,-2.5022,0.0,-2.5027,-2.51,-2.5222,-2.5415,-2.5531,-2.5637,-2.5683,-2.5683,-2.5683,-2.5683,-2.5683,-2.5683,-2.5683,-2.5683,-2.5703,-2.5703,-2.5703,-2.5703,-2.5703,-2.5703,-2.5703,-2.5683,-2.5633,-2.5603,-2.5595,-2.5535,-2.5413,-2.5323,-2.5316,-2.4725,-2.3869,-2.3052,-2.2754,-2.235,-2.0735,-2.0312,-2.0485,-2.1224,-2.1512,-2.2013,-2.3657,-2.4091,-2.4399,-2.5159,-2.5303,-2.5322,-2.5383,-2.5406,-2.5402,-2.5425,-2.5362,-2.5263,-2.506,0.0,0.0,0.0,0.0,0.0,0.0,-2.5194,-2.5341,0.0,0.0,0.0,0.0,0.0,0.0,-2.5493,-2.5493,-2.5434,-2.5313,-2.5111,-2.5022,-2.4998,-2.4648,-2.4495,-2.4476,-2.3455,-2.2997,-2.2905,-2.1025,-2.021,-2.0101,-1.8786,-1.8208,-1.8166,-1.7905,-1.7811,-1.7811,-1.7766,-1.7572,-1.7248,0.0,0.0,-3.5052,-3.522,-3.578,-3.6273,-3.6463,-3.6714,-3.6819,-3.6646,-3.5556,-3.4391,-3.3314,-3.2487,-3.1641,-3.0794,-3.0513,-2.9698,-2.8005,-2.789,-2.711,-2.5301,-2.5224,-2.5255,-2.5297,-2.5321,-2.5396,-2.5554,-2.5585,-2.5616,-2.5611,-2.5567,-2.5551,-2.5551,-2.5551,-2.559,-2.5611,-2.5611,-2.5659,-2.5703,-2.5703,-2.5703,-2.5703,-2.5703,-2.5703,-2.5703,-2.5683,-2.5637,-2.5601,-2.5573,-2.5087,-2.448,-2.4484,-2.3881,-2.3122,-2.2876,-2.2331,-2.1581,-2.0581,-2.0312,-2.0346,-2.0534,-2.1571,-2.2673,-2.3098,-2.4135,-2.5082,-2.5264,-2.5303,-2.5331,-2.5391,-2.5447,-2.5274,-2.468,-2.4563,-2.4534,-2.4499,0.0,0.0,0.0,-2.5262,-2.528,-2.531,-2.5434,-2.5525,0.0,0.0,0.0,0.0,0.0,-2.5636,-2.5493,-2.5493,-2.5434,-2.5313,-2.5253,-2.5152,-2.4998,-2.4648,-2.4495,-2.4476,-2.3455,-2.2997,-2.2887,-2.1167,-2.0351,-2.0102,-1.8961,-1.8391,-1.8166,-1.7905,-1.7811,-1.7766,-1.7526,-1.7368,-1.7224,-3.5147,-3.507,-3.507,-3.507,-3.5553,-3.5921,-3.5921,-3.6051,-3.6007,-3.5603,-3.4802,-3.3754,-3.2499,-3.1989,-3.1221,-2.991,-2.9813,-2.9256,-2.7986,-2.7525,-2.6717,-2.536,-2.533,-2.5371,-2.5406,-2.542,-2.5486,-2.5544,-2.5556,-2.5554,-2.5554,-2.5526,-2.5493,-2.5493,-2.5493,-2.5531,-2.5558,-2.5595,-2.5609,-2.566,-2.5683,-2.5703,-2.5703,-2.5703,-2.5703,-2.5703,-2.5703,-2.5682,-2.5657,-2.5657,-2.5015,-2.4253,-2.4248,-2.3378,-2.2344,-2.2301,-2.1932,-2.1362,-2.0532,-2.0328,-2.0449,-2.0831,-2.1942,-2.3048,-2.3403,-2.418,-2.4919,-2.5313,-2.5391,-2.5401,-2.5488,-2.5195,-2.482,-2.4404,-2.4007,-2.3881,-2.4252,-2.4204,0.0,-2.5337,-2.5453,-2.5465,-2.5498,-2.5558,-2.5607,-2.5637,0.0,0.0,-2.5703,-2.5703,-2.5636,-2.5493,-2.5493,-2.5434,-2.5313,-2.5214,-2.5099,-2.4998,-2.4648,-2.4495,-2.4476,-2.3842,-2.3364,-2.2923,-2.1515,-2.0644,-2.012,-1.8903,-1.833,-1.8166,-1.7905,-1.7811,-1.7789,-1.7612,-1.7415,-1.7224,-3.5507,-3.5493,-3.5493,-3.5493,-3.5493,-3.5493,-3.5493,-3.5391,-3.5045,-3.4295,-3.4021,-3.3341,-3.1881,-3.1651,-3.0946,-2.9273,-2.9021,-2.8576,-2.7755,-2.7005,-2.6227,-2.5351,-2.536,-2.5401,-2.5421,-2.549,-2.5514,-2.5493,-2.5479,-2.5473,-2.5473,-2.5463,-2.5477,-2.5477,-2.5477,-2.5488,-2.5498,-2.5547,-2.5587,-2.5595,-2.5658,-2.5682,-2.5683,-2.5662,-2.5683,-2.5684,-2.5547,-2.5586,-2.5664,-2.5391,-2.4781,-2.4102,-2.3961,-2.2906,-2.1699,-2.1554,-2.1561,-2.1446,-2.0543,-2.0357,-2.0593,-2.1329,-2.2278,-2.3193,-2.3878,-2.4224,-2.4608,-2.5352,-2.5493,-2.5531,-2.5595,-2.4898,-2.4321,-2.4394,-2.3666,-2.3378,-2.4193,0.0,-2.4526,-2.5376,-2.5484,-2.5511,-2.557,-2.5603,-2.5636,-2.5703,-2.5703,0.0,0.0,-2.5683,-2.5637,-2.5488,-2.5498,-2.5434,-2.5313,-2.5141,-2.5046,-2.5034,-2.4723,-2.4559,-2.4545,-2.4339,-2.3787,-2.2942,-2.1917,-2.0952,-2.0047,-1.8786,-1.8208,-1.8103,-1.7883,-1.7811,-1.7789,-1.7726,-1.7549,-1.7248,-3.5515,-3.5493,-3.5493,-3.5493,-3.5493,-3.5493,-3.5493,-3.4872,-3.4353,-3.4218,-3.2974,-3.2019,-3.1816,-3.1148,-3.0311,-2.9343,-2.8594,-2.7786,-2.6862,-2.6678,-2.6246,-2.5422,-2.5398,-2.5453,-2.5561,-2.5586,-2.5551,-2.5493,-2.5441,-2.542,-2.5401,-2.5354,-2.533,-2.533,-2.533,-2.5363,-2.5415,-2.5421,-2.5465,-2.5526,-2.5535,-2.5561,-2.5605,-2.5554,-2.5603,-2.5605,-2.4795,-2.5033,-2.5488,-2.4004,-2.3418,-2.3163,-2.2428,-2.2008,-2.1628,-2.083,-2.1156,-2.1561,-2.0644,-2.0432,-2.0521,-2.0655,-2.1901,-2.313,-2.3247,-2.4312,-2.5333,-2.5474,-2.5493,-2.5531,-2.5595,-2.4898,-2.4321,-2.4394,-2.3672,-2.3375,0.0,0.0,-2.4505,-2.5318,-2.5471,-2.5493,-2.5503,-2.5629,-2.5683,-2.5703,-2.5703,-2.5682,-2.5629,-2.5662,-2.5602,-2.542,-2.5477,-2.5434,-2.5313,-2.5264,-2.5253,-2.5253,-2.5041,-2.4858,-2.4746,-2.4561,-2.3913,-2.2942,-2.2099,-2.1025,-1.9783,-1.8903,-1.827,-1.7878,-1.7811,-1.7811,-1.7766,-1.7479,-1.7344,-1.7248,-3.4863,-3.5194,-3.5493,-3.5493,-3.5493,-3.5493,-3.5493,-3.4783,-3.4091,-3.3627,-3.2569,-3.1491,-3.0552,-3.0153,-2.9419,-2.8065,-2.7589,-2.6967,-2.6079,-2.5967,-2.5809,-2.5479,-2.5498,-2.5515,-2.5559,-2.5508,-2.5465,-2.5391,-2.5363,-2.5348,-2.5348,-2.5313,-2.5303,-2.5303,-2.5303,-2.5322,-2.5346,-2.5376,-2.5427,-2.5459,-2.5498,-2.5526,-2.5547,-2.5503,-2.5543,-2.5478,-2.4602,-2.4581,-2.4758,-2.353,-2.2811,-2.2383,-2.199,-2.1539,-2.1069,-2.063,-2.0783,-2.1017,-2.0627,-2.0537,-2.068,-2.1148,-2.1518,-2.2103,-2.349,-2.403,-2.451,-2.543,-2.5605,-2.5629,-2.5658,-2.4937,-2.4353,-2.4394,-2.3672,0.0,0.0,-2.4277,-2.4569,-2.5401,-2.5539,-2.5564,-2.5603,-2.5661,-2.5683,-2.5658,-2.5657,-2.5634,-2.5603,-2.5633,-2.5586,-2.5453,-2.5408,-2.5158,-2.4659,-2.4973,-2.5141,-2.5141,-2.4968,-2.4869,-2.4804,-2.47,-2.4142,-2.3228,-2.2312,-2.1299,-2.0241,-1.9074,-1.845,-1.8208,-1.7905,-1.7811,-1.7789,-1.7635,-1.7455,-1.7272,-3.4226,-3.4805,-3.529,-3.5483,-3.5522,-3.5477,-3.5283,-3.4563,-3.3741,-3.2869,-3.1948,-3.0856,-2.9499,-2.9265,-2.8554,-2.6985,-2.6836,-2.6466,-2.5605,-2.5473,-2.5482,-2.5531,-2.5564,-2.5565,-2.5493,-2.5441,-2.5379,-2.5303,-2.5303,-2.5303,-2.5303,-2.5303,-2.5303,-2.5303,-2.5303,-2.5303,-2.5293,-2.5346,-2.5387,-2.5383,-2.5434,-2.5451,-2.5482,-2.5465,-2.5463,-2.5391,-2.4545,-2.4265,-2.4144,-2.3113,-2.2371,-2.1835,-2.164,-2.1269,-2.0859,-2.0664,-2.0702,-2.0778,-2.0644,-2.0605,-2.0762,-2.1426,-2.1387,-2.1699,-2.3652,-2.3926,-2.4141,-2.543,-2.5703,-2.5703,-2.5703,-2.498,-2.4473,-2.4668,0.0,0.0,0.0,-2.4605,-2.4832,-2.548,-2.5573,-2.5607,-2.5658,-2.5664,-2.5659,-2.5603,-2.5593,-2.5564,-2.5554,-2.5573,-2.539,-2.4938,-2.5166,-2.4909,-2.411,-2.4558,-2.4885,-2.5077,-2.4784,-2.4712,-2.4842,-2.4842,-2.4454,-2.3724,-2.2528,-2.1626,-2.0889,-1.9326,-1.8604,-1.8469,-1.804,-1.7839,-1.7811,-1.7811,-1.7635,-1.7415,-3.4023,-3.436,-3.4651,-3.5454,-3.559,-3.5359,-3.4688,-3.3835,-3.2967,-3.2104,-3.0535,-2.9499,-2.9494,-2.8778,-2.7932,-2.7069,-2.6921,-2.6546,-2.5741,-2.5611,-2.5595,-2.5598,-2.5605,-2.557,-2.5493,-2.5441,-2.5379,-2.5303,-2.5303,-2.5303,-2.5303,-2.5303,-2.5303,-2.5303,-2.5303,-2.5303,-2.5303,-2.5313,-2.5303,-2.5303,-2.5313,-2.5346,-2.5398,-2.5339,-2.5391,-2.5386,-2.4452,-2.4191,-2.4042,-2.238,-2.1809,-2.1663,-2.0863,-2.1167,-2.1641,-2.084,-2.1128,-2.1548,-2.08,-2.0605,-2.0625,-2.0684,-2.1816,-2.2969,-2.3144,-2.4394,-2.5547,-2.5664,-2.5703,-2.5703,-2.5703,-2.498,-2.4668,-2.5469,0.0,0.0,-2.5391,-2.5503,-2.5476,-2.5415,-2.5511,-2.559,-2.5531,-2.5566,-2.5603,-2.5601,-2.5547,-2.5473,-2.5415,-2.5539,-2.4862,-2.3233,-2.4567,-2.4909,-2.411,-2.4139,-2.4534,-2.5274,-2.4505,-2.4434,-2.4986,-2.4986,-2.4879,-2.4601,-2.2791,-2.186,-2.1502,-1.9701,-1.8678,-1.8229,-1.8187,-1.8014,-1.7811,-1.7811,-1.7789,-1.7749,-3.1895,-3.2881,-3.3882,-3.4652,-3.4428,-3.4206,-3.4464,-3.334,-3.2333,-3.2002,-3.0512,-2.9303,-2.8804,-2.7984,-2.7127,-2.6269,-2.6171,-2.6034,-2.5723,-2.5682,-2.5643,-2.5604,-2.5556,-2.5517,-2.5447,-2.5368,-2.534,-2.5303,-2.5303,-2.5303,-2.5303,-2.5303,-2.5303,-2.5303,-2.5303,-2.5303,-2.5303,-2.5303,-2.5303,-2.5303,-2.5303,-2.5313,-2.533,-2.5303,-2.533,-2.5186,-2.3794,-2.3345,-2.317,-2.1418,-2.088,-2.0867,-2.0536,-2.1049,-2.182,-2.2029,-2.1922,-2.1678,-2.1366,-2.1718,-2.2158,-2.2141,-2.2635,-2.3379,-2.4473,-2.4805,-2.5059,-2.5586,-2.5703,-2.5703,-2.5703,-2.543,-2.5312,-2.5644,0.0,-2.5291,-2.5566,-2.5601,-2.5573,-2.5539,-2.5564,-2.5592,-2.5565,-2.5598,-2.5564,-2.5473,-2.5453,-2.5421,-2.5406,-2.5447,-2.4935,-2.3776,-2.4752,-2.4659,-2.3321,-2.4312,-2.5005,-2.5303,-2.4986,-2.4956,-2.5192,-2.5192,-2.4828,-2.4138,-2.3299,-2.2518,-2.1766,-2.0174,-1.9388,-1.9099,-1.8272,-1.7992,-1.8057,-1.8057,-1.8057,-1.8057,-3.0497,-3.1596,-3.2746,-3.3806,-3.3569,-3.334,-3.3717,-3.2794,-3.1875,-3.1328,-3.0055,-2.8867,-2.7988,-2.7109,-2.6348,-2.5742,-2.5703,-2.5703,-2.5703,-2.5683,-2.5658,-2.5603,-2.5526,-2.5453,-2.5406,-2.533,-2.5303,-2.5303,-2.5303,-2.5303,-2.5303,-2.5303,-2.5264,-2.5214,-2.5274,-2.5264,-2.5214,-2.5274,-2.5303,-2.5303,-2.5303,-2.5303,-2.5303,-2.5303,-2.5139,-2.4774,-2.362,-2.2901,-2.2279,-2.1081,-2.0538,-2.0419,-2.0691,-2.1381,-2.2168,-2.2474,-2.2507,-2.2327,-2.1787,-2.2707,-2.3649,-2.2851,-2.3066,-2.3761,-2.4977,-2.4994,-2.4915,-2.5544,-2.5659,-2.5636,-2.5636,-2.5636,-2.5637,-2.5661,-2.5662,-2.5644,-2.5607,-2.5629,-2.5627,-2.5567,-2.5603,-2.5603,-2.5577,-2.5579,-2.5531,-2.5401,-2.5376,-2.5387,-2.5398,-2.542,-2.5056,-2.4222,-2.4962,-2.4681,-2.3225,-2.4351,-2.5063,-2.5303,-2.5043,-2.5063,-2.5303,-2.5303,-2.4917,-2.4236,-2.3721,-2.3112,-2.2342,-2.0698,-1.9914,-1.9686,-1.8606,-1.8187,-1.8208,-1.829,-1.827,-1.8187,-3.0183,-3.068,-3.125,-3.2989,-3.3282,-3.3044,-3.2304,-3.2187,-3.1562,-2.9824,-2.8848,-2.7969,-2.7109,-2.6211,-2.5703,-2.5703,-2.5703,-2.5703,-2.5703,-2.5634,-2.5601,-2.5601,-2.5463,-2.5406,-2.5398,-2.533,-2.5303,-2.5303,-2.5303,-2.5303,-2.5303,-2.5303,-2.5203,-2.501,-2.5214,-2.5192,-2.5022,-2.5214,-2.5284,-2.5303,-2.5284,-2.5284,-2.5284,-2.5284,-2.4793,-2.4091,-2.4091,-2.2985,-2.1504,-2.1504,-2.0988,-2.0462,-2.1333,-2.2253,-2.2814,-2.1894,-2.2791,-2.3709,-2.1991,-2.3416,-2.4793,-2.2348,-2.2989,-2.4233,-2.4283,-2.4923,-2.5526,-2.5593,-2.5551,-2.5493,-2.5493,-2.5493,-2.5511,-2.5595,-2.5601,-2.5598,-2.559,-2.566,-2.5658,-2.5526,-2.5629,-2.5644,-2.5508,-2.5492,-2.5477,-2.5406,-2.5339,-2.5321,-2.5391,-2.5471,-2.5105,-2.4245,-2.5056,-2.5053,-2.411,-2.4091,-2.4505,-2.5284,-2.4495,-2.4533,-2.5303,-2.5303,-2.5303,-2.5235,-2.4037,-2.3515,-2.3337,-2.1337,-2.0227,-1.9763,-1.9219,-1.866,-1.8229,-1.8508,-1.843,-1.8208,-2.7903,-2.9068,-3.0266,-3.136,-3.1589,-3.1756,-3.2148,-3.168,-3.0879,-2.9746,-2.8848,-2.7969,-2.7109,-2.6211,-2.5703,-2.5703,-2.566,-2.5605,-2.5561,-2.5508,-2.5471,-2.5471,-2.5421,-2.5376,-2.5321,-2.5303,-2.5303,-2.5303,-2.5303,-2.5303,-2.5303,-2.5152,-2.5065,-2.501,-2.5057,-2.5065,-2.4984,-2.461,-2.4774,-2.5245,-2.4697,-2.4447,-2.4447,-2.4447,-2.3928,-2.3186,-2.3186,-2.2851,-2.2408,-2.2408,-2.226,-2.2207,-2.3075,-2.313,-2.303,-2.3923,-2.4146,-2.3965,-2.3283,-2.4107,-2.4841,-2.3721,-2.4286,-2.5124,-2.5141,-2.5327,-2.5517,-2.5535,-2.5503,-2.5493,-2.5493,-2.5493,-2.5517,-2.5535,-2.5564,-2.5607,-2.56,-2.5623,-2.5634,-2.5636,-2.5584,-2.5544,-2.5506,-2.5454,-2.5394,-2.533,-2.5313,-2.5303,-2.5321,-2.539,-2.5305,-2.5053,-2.5286,-2.5304,-2.5012,-2.4405,-2.4521,-2.536,-2.4555,-2.4587,-2.5371,-2.5371,-2.5264,-2.5069,-2.4719,-2.4104,-2.3247,-2.1914,-2.0841,-1.9992,-1.9074,-1.8734,-1.877,-1.8843,-1.8715,-1.8469,-2.6867,-2.783,-2.8827,-2.9679,-3.0135,-3.0449,-3.0625,-3.0508,-2.9941,-2.873,-2.8085,-2.7419,-2.6539,-2.5948,-2.5629,-2.5629,-2.5573,-2.5539,-2.5451,-2.5421,-2.5391,-2.5363,-2.5363,-2.5329,-2.5313,-2.5303,-2.5303,-2.5303,-2.5303,-2.5264,-2.5173,-2.4732,-2.4454,-2.4325,-2.4372,-2.4227,-2.3935,-2.3971,-2.4303,-2.4755,-2.3908,-2.3783,-2.4052,-2.3725,-2.3043,-2.2331,-2.2677,-2.237,-2.1908,-2.2581,-2.3024,-2.3389,-2.3832,-2.389,-2.3918,-2.4532,-2.4579,-2.4358,-2.3915,-2.434,-2.4847,-2.4532,-2.4876,-2.5313,-2.5337,-2.5376,-2.5428,-2.5459,-2.5441,-2.5415,-2.5415,-2.5415,-2.5428,-2.5465,-2.5484,-2.5531,-2.5554,-2.5585,-2.5623,-2.5661,-2.5586,-2.5531,-2.5503,-2.5441,-2.536,-2.5313,-2.5303,-2.5303,-2.5303,-2.5363,-2.5391,-2.5405,-2.5432,-2.544,-2.5441,-2.461,-2.4593,-2.5386,-2.4927,-2.496,-2.5398,-2.5398,-2.529,-2.5111,-2.5034,-2.4574,-2.3783,-2.238,-2.138,-2.0553,-1.9254,-1.8789,-1.8843,-1.8843,-1.8678,-1.845,-2.6697,-2.6933,-2.7226,-2.8027,-2.8886,-2.9199,-2.8398,-2.8964,-2.8867,-2.7206,-2.6923,-2.6554,-2.5696,-2.5543,-2.5493,-2.5493,-2.5484,-2.5471,-2.5391,-2.5383,-2.5363,-2.5293,-2.5303,-2.5284,-2.5274,-2.5284,-2.5284,-2.5274,-2.5284,-2.5203,-2.4991,-2.4247,-2.3727,-2.3456,-2.3488,-2.3143,-2.2602,-2.3389,-2.3896,-2.4129,-2.3186,-2.3283,-2.3898,-2.3032,-2.2158,-2.1504,-2.2438,-2.1795,-2.0757,-2.2429,-2.3543,-2.4159,-2.3976,-2.4536,-2.509,-2.4164,-2.4403,-2.4834,-2.4055,-2.4301,-2.4775,-2.4746,-2.485,-2.4991,-2.506,-2.5168,-2.5284,-2.5352,-2.5339,-2.5303,-2.5303,-2.5303,-2.5331,-2.5383,-2.5398,-2.5432,-2.5483,-2.5558,-2.56,-2.5611,-2.5585,-2.5567,-2.5517,-2.5428,-2.5363,-2.5284,-2.5284,-2.5303,-2.5303,-2.5363,-2.5401,-2.542,-2.5465,-2.5499,-2.5503,-2.4781,-2.476,-2.5427,-2.5415,-2.541,-2.5427,-2.5408,-2.5368,-2.5293,-2.5099,-2.4873,-2.4496,-2.2705,-2.1686,-2.1113,-1.9561,-1.8843,-1.866,-1.8604,-1.8432,-1.8232,-2.5781,-2.6369,-2.6899,-2.7094,-2.7858,-2.8365,-2.817,-2.8306,-2.8033,-2.6977,-2.6829,-2.6489,-2.5628,-2.5517,-2.5493,-2.5493,-2.5459,-2.5398,-2.534,-2.5331,-2.5313,-2.5303,-2.5303,-2.5224,-2.5077,-2.5214,-2.5224,-2.5077,-2.5224,-2.5203,-2.4991,-2.4701,-2.4598,-2.4594,-2.3831,-2.3852,-2.4352,-2.3409,-2.3804,-2.4909,-2.3389,-2.2908,-2.2985,-2.21,-2.1273,-2.0738,-2.2067,-2.2331,-2.2274,-2.3957,-2.4741,-2.4995,-2.4809,-2.4889,-2.5003,-2.4688,-2.4709,-2.4776,-2.4445,-2.446,-2.4528,-2.4375,-2.4459,-2.4648,-2.4818,-2.4962,-2.5069,-2.5072,-2.5205,-2.5303,-2.5303,-2.5303,-2.5293,-2.5322,-2.5371,-2.5415,-2.5496,-2.5512,-2.5566,-2.5663,-2.5541,-2.545,-2.5498,-2.5391,-2.5254,-2.5088,-2.5214,-2.5303,-2.5303,-2.5363,-2.5415,-2.5488,-2.5499,-2.5523,-2.557,-2.5403,-2.5398,-2.5558,-2.4928,-2.4965,-2.5554,-2.5493,-2.5447,-2.5368,-2.5105,-2.4428,-2.3381,-2.224,-2.1097,-1.9994,-1.9052,-1.8842,-1.9026,-1.8717,-1.8626,-1.8555,-2.5484,-2.5863,-2.6179,-2.6179,-2.6904,-2.7333,-2.6924,-2.7216,-2.7177,-2.6296,-2.6149,-2.5951,-2.5498,-2.5421,-2.5394,-2.5394,-2.5368,-2.5339,-2.5293,-2.5214,-2.5152,-2.5152,-2.5103,-2.5012,-2.4904,-2.5012,-2.5012,-2.4904,-2.5012,-2.5012,-2.4885,-2.4412,-2.4217,-2.4271,-2.3731,-2.3632,-2.3809,-2.334,-2.3752,-2.4572,-2.2758,-2.2335,-2.2697,-2.1741,-2.1091,-2.0939,-2.2441,-2.3296,-2.3767,-2.4255,-2.4752,-2.513,-2.4956,-2.4904,-2.4877,-2.4716,-2.4654,-2.4623,-2.4528,-2.4426,-2.4321,-2.4228,-2.4266,-2.441,-2.4607,-2.4799,-2.4911,-2.4986,-2.5088,-2.5152,-2.5152,-2.5243,-2.5243,-2.5091,-2.5235,-2.5332,-2.5309,-2.541,-2.5531,-2.5638,-2.554,-2.5396,-2.5271,-2.5207,-2.5111,-2.501,-2.5099,-2.5203,-2.5284,-2.533,-2.5376,-2.5459,-2.5476,-2.5538,-2.5605,-2.5605,-2.5624,-2.5638,-2.5214,-2.5212,-2.5601,-2.5539,-2.5451,-2.5398,-2.5216,-2.4719,-2.3908,-2.2815,-2.1896,-2.1018,-1.952,-1.9156,-1.9363,-1.8653,-1.8531,-1.8499,-2.544,-2.5471,-2.5471,-2.5471,-2.6065,-2.6298,-2.5574,-2.6085,-2.6279,-2.5554,-2.5415,-2.5383,-2.5383,-2.533,-2.5303,-2.5303,-2.5303,-2.5293,-2.5253,-2.5088,-2.4998,-2.4962,-2.4869,-2.479,-2.4746,-2.4746,-2.4746,-2.4746,-2.479,-2.4804,-2.4785,-2.4049,-2.375,-2.3803,-2.3625,-2.3347,-2.3026,-2.3392,-2.3707,-2.3841,-2.2089,-2.1835,-2.2403,-2.1518,-2.1168,-2.1373,-2.2908,-2.4077,-2.481,-2.4151,-2.4385,-2.4937,-2.4799,-2.4712,-2.4651,-2.4476,-2.4373,-2.4301,-2.4426,-2.4284,-2.4132,-2.419,-2.419,-2.4228,-2.4356,-2.4556,-2.4771,-2.4898,-2.4949,-2.4962,-2.4962,-2.5107,-2.5126,-2.4847,-2.5024,-2.5186,-2.512,-2.529,-2.5469,-2.5567,-2.5483,-2.5294,-2.4955,-2.4949,-2.4949,-2.4924,-2.4949,-2.5041,-2.5212,-2.5243,-2.5283,-2.5345,-2.5446,-2.5539,-2.5601,-2.5607,-2.5637,-2.5703,-2.5703,-2.5662,-2.5607,-2.5551,-2.5488,-2.542,-2.5311,-2.5143,-2.4822,-2.3589,-2.2841,-2.2319,-2.0209,-1.9486,-1.9513,-1.8623,-1.8393,-1.8261,-2.534,-2.534,-2.534,-2.534,-2.5418,-2.5456,-2.536,-2.5437,-2.5456,-2.534,-2.5322,-2.5313,-2.5313,-2.5313,-2.5303,-2.5303,-2.5303,-2.5224,-2.5046,-2.5022,-2.4949,-2.4828,-2.4818,-2.4716,-2.4526,-2.4545,-2.4545,-2.4545,-2.4716,-2.4804,-2.4804,-2.4691,-2.4778,-2.5022,-2.4156,-2.411,-2.4648,-2.4022,-2.3695,-2.3505,-2.2546,-2.1821,-2.132,-2.1109,-2.1029,-2.123,-2.2712,-2.3801,-2.4556,-2.4444,-2.4606,-2.4785,-2.4591,-2.4335,-2.4137,-2.421,-2.384,-2.3486,-2.4095,-2.3998,-2.3837,-2.4132,-2.419,-2.4133,-2.3878,-2.4192,-2.4561,-2.4559,-2.4697,-2.4832,-2.4832,-2.4861,-2.4861,-2.4804,-2.4847,-2.4924,-2.5071,-2.5139,-2.5232,-2.5469,-2.5297,-2.4998,-2.462,-2.4727,-2.4756,-2.4591,-2.4727,-2.4828,-2.4874,-2.4981,-2.5064,-2.5149,-2.5383,-2.5539,-2.5601,-2.566,-2.5683,-2.5703,-2.5703,-2.5703,-2.5683,-2.5629,-2.5551,-2.5468,-2.5219,-2.4954,-2.4559,-2.3403,-2.2337,-2.1314,-2.0176,-1.9542,-1.9219,-1.8857,-1.8534,-1.809,-2.5303,-2.5303,-2.5264,-2.5152,-2.5122,-2.5107,-2.5024,-2.5031,-2.5031,-2.5031,-2.5031,-2.5031,-2.5031,-2.5031,-2.5031,-2.5031,-2.5031,-2.4975,-2.4891,-2.478,-2.4693,-2.4639,-2.451,-2.4409,-2.4321,-2.4321,-2.4321,-2.4321,-2.4409,-2.4575,-2.4804,-2.4685,-2.4809,-2.5111,-2.4594,-2.4555,-2.4858,-2.4389,-2.3927,-2.3426,-2.2497,-2.1717,-2.1135,-2.1432,-2.1564,-2.1741,-2.3228,-2.4077,-2.4495,-2.4495,-2.4561,-2.4572,-2.4317,-2.4043,-2.3824,-2.3674,-2.3414,-2.3259,-2.3566,-2.3671,-2.3692,-2.3649,-2.3795,-2.3837,-2.35,-2.3741,-2.408,-2.421,-2.4439,-2.4623,-2.4623,-2.4582,-2.4498,-2.4459,-2.4503,-2.4618,-2.4892,-2.5028,-2.5148,-2.5267,-2.5174,-2.487,-2.428,-2.4298,-2.4244,-2.395,-2.4209,-2.4398,-2.4511,-2.4743,-2.4937,-2.5034,-2.5194,-2.5363,-2.5547,-2.5567,-2.5631,-2.5703,-2.5661,-2.5661,-2.5703,-2.5633,-2.5573,-2.5551,-2.5232,-2.5101,-2.5014,-2.3942,-2.3324,-2.2836,-2.109,-1.9787,-1.8842,-1.8553,-1.8436,-1.8197]},{"header":{"parameterUnit":"m.s-1","parameterCategory":1,"la1":30.6,"la2":28.766,"lo1":-90.7593,"lo2":-88.6598,"dy":0.0162,"dx":0.0183,"nx":116,"ny":114,"refTime":"2023-07-31T00:00:00:Z","depth":0,"parameterNumber":3,"parameterNumberName":"V-component_of_WINDS"},"data":[0.0,0.0,0.0,0.0,0.0,0.0,0.0,0.0,0.0,0.0,0.0,0.0,0.0,0.0,0.0,0.0,0.0,0.0,0.0,0.0,0.0,0.0,0.0,0.0,0.0,0.0,0.0,0.0,0.0,0.0,0.0,0.0,0.0,0.0,0.0,0.0,0.0,0.0,0.0,0.0,0.0,0.0,0.0,0.0,0.0,0.0,0.0,0.0,0.0,0.0,0.0,0.0,0.0,0.0,0.0,0.0,0.0,0.0,0.0,0.0,0.0,0.0,0.0,0.0,0.0,0.0,0.0,0.0,0.0,0.0,0.0,0.0,0.0,0.0,0.0,0.0,0.0,0.0,0.0,0.0,0.0,0.0,0.0,0.0,0.0,0.0,0.0,0.0,0.0,0.0,0.0,0.0,0.0,0.0,0.0,0.0,0.0,0.0,0.0,0.0,0.0,0.0,0.0,0.0,0.0,0.0,0.0,0.0,0.0,0.0,0.0,0.0,0.0,0.0,0.0,0.0,0.0,0.0,0.0,0.0,0.0,0.0,0.0,0.0,0.0,0.0,0.0,0.0,0.0,0.0,0.0,0.0,0.0,0.0,0.0,0.0,0.0,0.0,0.0,0.0,0.0,0.0,0.0,0.0,0.0,0.0,0.0,0.0,0.0,0.0,0.0,0.0,0.0,0.0,0.0,0.0,0.0,0.0,0.0,0.0,0.0,0.0,0.0,0.0,0.0,0.0,0.0,0.0,0.0,0.0,0.0,0.0,0.0,0.0,0.0,0.0,0.0,0.0,0.0,0.0,0.0,0.0,0.0,0.0,0.0,0.0,0.0,0.0,0.0,0.0,0.0,0.0,0.0,0.0,0.0,0.0,0.0,0.0,0.0,0.0,0.0,0.0,0.0,0.0,0.0,0.0,0.0,0.0,0.0,0.0,0.0,0.0,0.0,0.0,0.0,0.0,0.0,0.0,0.0,0.0,0.0,0.0,0.0,0.0,0.0,0.0,0.0,0.0,0.0,0.0,0.0,0.0,0.0,0.0,0.0,0.0,0.0,0.0,0.0,0.0,0.0,0.0,0.0,0.0,0.0,0.0,0.0,0.0,0.0,0.0,0.0,0.0,0.0,0.0,0.0,0.0,0.0,0.0,0.0,0.0,0.0,0.0,0.0,0.0,0.0,0.0,0.0,0.0,0.0,0.0,0.0,0.0,0.0,0.0,0.0,0.0,0.0,0.0,0.0,0.0,0.0,0.0,0.0,0.0,0.0,0.0,0.0,0.0,0.0,0.0,0.0,0.0,0.0,0.0,0.0,0.0,0.0,0.0,0.0,0.0,0.0,0.0,0.0,0.0,0.0,0.0,0.0,0.0,0.0,0.0,0.0,0.0,0.0,0.0,0.0,0.0,0.0,0.0,0.0,0.0,0.0,0.0,0.0,0.0,0.0,0.0,0.0,0.0,0.0,0.0,0.0,0.0,0.0,0.0,0.0,0.0,0.0,0.0,0.0,0.0,0.0,0.0,0.0,0.0,0.0,0.0,0.0,0.0,0.0,0.0,0.0,0.0,0.0,0.0,0.0,0.0,0.0,0.0,0.0,0.0,0.0,0.0,0.0,0.0,0.0,0.0,0.0,0.0,0.0,0.0,0.0,0.0,0.0,0.0,0.0,0.0,0.0,0.0,0.0,0.0,0.0,0.0,0.0,0.0,0.0,0.0,0.0,0.0,0.0,0.0,0.0,0.0,0.0,0.0,0.0,0.0,0.0,0.0,0.0,0.0,0.0,0.0,0.0,0.0,0.0,0.0,0.0,0.0,0.0,0.0,0.0,0.0,0.0,0.0,0.0,0.0,0.0,0.0,0.0,0.0,0.0,0.0,0.0,0.0,0.0,0.0,0.0,0.0,0.0,0.0,0.0,0.0,0.0,0.0,0.0,0.0,0.0,0.0,0.0,0.0,0.0,0.0,0.0,0.0,0.0,0.0,0.0,0.0,0.0,0.0,0.0,0.0,0.0,0.0,0.0,0.0,0.0,0.0,0.0,0.0,0.0,0.0,0.0,0.0,0.0,0.0,0.0,0.0,0.0,0.0,0.0,0.0,0.0,0.0,0.0,0.0,0.0,0.0,0.0,0.0,0.0,0.0,0.0,0.0,0.0,0.0,0.0,0.0,0.0,0.0,0.0,0.0,0.0,0.0,0.0,0.0,0.0,0.0,0.0,0.0,0.0,0.0,0.0,0.0,0.0,0.0,0.0,0.0,0.0,0.0,0.0,0.0,0.0,0.0,0.0,0.0,0.0,0.0,0.0,0.0,0.0,0.0,0.0,0.0,0.0,0.0,0.0,0.0,0.0,0.0,0.0,0.0,0.0,0.0,0.0,0.0,0.0,0.0,0.0,0.0,0.0,0.0,0.0,0.0,0.0,0.0,0.0,0.0,0.0,0.0,0.0,0.0,0.0,0.0,0.0,0.0,0.0,0.0,0.0,0.0,0.0,0.0,0.0,0.0,0.0,0.0,0.0,0.0,0.0,0.0,0.0,0.0,0.0,0.0,0.0,0.0,0.0,0.0,0.0,0.0,0.0,0.0,0.0,0.0,0.0,0.0,0.0,0.0,0.0,0.0,0.0,0.0,0.0,0.0,0.0,0.0,0.0,0.0,0.0,0.0,0.0,0.0,0.0,0.0,0.0,0.0,0.0,0.0,0.0,0.0,0.0,0.0,0.0,0.0,0.0,0.0,0.0,0.0,0.0,0.0,0.0,0.0,0.0,0.0,0.0,0.0,0.0,0.0,0.0,0.0,0.0,0.0,0.0,0.0,0.0,0.0,0.0,0.0,0.0,0.0,0.0,0.0,0.0,0.0,0.0,0.0,0.0,0.0,0.0,0.0,0.0,0.0,0.0,0.0,0.0,0.0,0.0,0.0,0.0,0.0,0.0,0.0,0.0,0.0,0.0,0.0,0.0,0.0,0.0,0.0,0.0,0.0,0.0,0.0,0.0,0.0,0.0,0.0,0.0,0.0,0.0,0.0,0.0,0.0,0.0,0.0,0.0,0.0,0.0,0.0,0.0,0.0,0.0,0.0,0.0,0.0,0.0,0.0,0.0,0.0,0.0,0.0,0.0,0.0,0.0,0.0,0.0,0.0,0.0,0.0,0.0,0.0,0.0,0.0,0.0,0.0,0.0,0.0,0.0,0.0,0.0,0.0,0.0,0.0,0.0,0.0,0.0,0.0,0.0,0.0,0.0,0.0,0.0,0.0,0.0,0.0,0.0,0.0,0.0,0.0,0.0,0.0,0.0,0.0,0.0,0.0,0.0,0.0,0.0,0.0,0.0,0.0,0.0,0.0,0.0,0.0,0.0,0.0,0.0,0.0,0.0,0.0,0.0,0.0,0.0,0.0,0.0,0.0,0.0,0.0,0.0,0.0,0.0,0.0,0.0,0.0,0.0,0.0,0.0,0.0,0.0,0.0,0.0,0.0,0.0,0.0,0.0,0.0,0.0,0.0,0.0,0.0,0.0,0.0,0.0,0.0,0.0,0.0,0.0,0.0,0.0,0.0,0.0,0.0,0.0,0.0,0.0,0.0,0.0,0.0,0.0,0.0,0.0,0.0,0.0,0.0,0.0,0.0,0.0,0.0,0.0,0.0,0.0,0.0,0.0,0.0,0.0,0.0,0.0,0.0,0.0,0.0,0.0,0.0,0.0,0.0,0.0,0.0,0.0,0.0,0.0,0.0,0.0,0.0,0.0,0.0,0.0,0.0,0.0,0.0,0.0,0.0,0.0,0.0,0.0,0.0,0.0,0.0,0.0,0.0,0.0,0.0,0.0,0.0,0.0,0.0,0.0,0.0,0.0,0.0,0.0,0.0,0.0,0.0,0.0,0.0,0.0,0.0,0.0,0.0,0.0,0.0,0.0,0.0,0.0,0.0,0.0,0.0,0.0,0.0,0.0,0.0,0.0,0.0,0.0,0.0,0.0,0.0,0.0,0.0,0.0,0.0,0.0,0.0,0.0,0.0,0.0,0.0,0.0,0.0,0.0,0.0,0.0,0.0,0.0,0.0,0.0,0.0,0.0,0.0,0.0,0.0,0.0,0.0,0.0,0.0,0.0,0.0,0.0,0.0,0.0,0.0,0.0,0.0,0.0,0.0,0.0,0.0,0.0,0.0,0.0,0.0,0.0,0.0,0.0,0.0,0.0,0.0,0.0,0.0,0.0,0.0,0.0,0.0,0.0,0.0,0.0,0.0,0.0,0.0,0.0,0.0,0.0,0.0,0.0,0.0,0.0,0.0,0.0,0.0,0.0,0.0,0.0,0.0,0.0,0.0,0.0,0.0,0.0,0.0,0.0,0.0,0.0,0.0,0.0,0.0,0.0,0.0,0.0,0.0,0.0,0.0,0.0,0.0,0.0,0.0,0.0,0.0,0.0,0.0,0.0,0.0,0.0,0.0,0.0,0.0,0.0,0.0,0.0,0.0,0.0,0.0,0.0,0.0,0.0,0.0,0.0,0.0,0.0,0.0,0.0,0.0,0.0,0.0,0.0,0.0,0.0,0.0,0.0,0.0,0.0,0.0,0.0,0.0,0.0,0.0,0.0,0.0,0.0,0.0,0.0,0.0,0.0,0.0,0.0,0.0,0.0,0.0,0.0,0.0,0.0,0.0,0.0,0.0,0.0,0.0,0.0,0.0,0.0,0.0,0.0,0.0,0.0,0.0,0.0,0.0,0.0,0.0,0.0,0.0,0.0,0.0,0.0,0.0,0.0,0.0,0.0,0.0,0.0,0.0,0.0,0.0,0.0,0.0,0.0,0.0,0.0,0.0,0.0,0.0,0.0,0.0,0.0,0.0,0.0,0.0,0.0,0.0,0.0,0.0,0.0,0.0,0.0,0.0,0.0,0.0,0.0,0.0,0.0,0.0,0.0,0.0,0.0,0.0,0.0,0.0,0.0,0.0,0.0,0.0,0.0,0.0,0.0,0.0,0.0,0.0,0.0,0.0,0.0,0.0,0.0,0.0,0.0,0.0,0.0,0.0,0.0,0.0,0.0,0.0,0.0,0.0,0.0,0.0,0.0,0.0,0.0,0.0,0.0,0.0,0.0,0.0,0.0,0.0,0.0,0.0,0.0,0.0,0.0,0.0,0.0,0.0,0.0,0.0,0.0,0.0,0.0,0.0,0.0,0.0,0.0,0.0,0.0,0.0,0.0,0.0,0.0,0.0,0.0,0.0,0.0,0.0,0.0,0.0,0.0,0.0,0.0,0.0,0.0,0.0,0.0,0.0,0.0,0.0,0.0,0.0,0.0,0.0,0.0,0.0,0.0,0.0,0.0,0.0,0.0,0.0,0.0,0.0,0.0,0.0,0.0,0.0,0.0,0.0,0.0,0.0,0.0,0.0,0.0,0.0,0.0,0.0,0.0,0.0,0.0,0.0,0.0,0.0,0.0,0.0,0.0,0.0,0.0,0.0,0.0,0.0,0.0,0.0,0.0,0.0,0.0,0.0,0.0,0.0,0.0,0.0,0.0,0.0,0.0,0.0,0.0,0.0,0.0,0.0,0.0,0.0,0.0,0.0,0.0,0.0,0.0,0.0,0.0,0.0,0.0,0.0,0.0,0.0,0.0,0.0,0.0,0.0,0.0,0.0,0.0,0.0,0.0,0.0,0.0,0.0,0.0,0.0,0.0,0.0,0.0,0.0,0.0,0.0,0.0,0.0,0.0,0.0,0.0,0.0,0.0,0.0,0.0,0.0,0.0,0.0,0.0,0.0,0.0,0.0,0.0,0.0,0.0,0.0,0.0,0.0,0.0,0.0,0.0,0.0,0.0,0.0,0.0,0.0,0.0,0.0,0.0,0.0,0.0,0.0,0.0,0.0,0.0,0.0,0.0,0.0,0.0,0.0,0.0,0.0,0.0,0.0,0.0,0.0,0.0,0.0,0.0,0.0,0.0,0.0,0.0,0.0,0.0,0.0,0.0,0.0,0.0,0.0,0.0,0.0,0.0,0.0,0.0,0.0,0.0,0.0,0.0,0.0,0.0,0.0,0.0,0.0,0.0,0.0,0.0,0.0,0.0,0.0,0.0,0.0,0.0,0.0,0.0,0.0,0.0,0.0,-1.8775,0.0,0.0,0.0,0.0,0.0,0.0,0.0,0.0,0.0,0.0,0.0,0.0,0.0,0.0,0.0,0.0,0.0,0.0,0.0,0.0,0.0,0.0,0.0,0.0,0.0,0.0,0.0,0.0,0.0,0.0,0.0,0.0,0.0,0.0,0.0,0.0,0.0,0.0,0.0,-0.0395,-0.1446,-0.3,-0.4768,-0.5963,-0.659,0.0,0.0,0.0,0.0,0.0,0.0,0.0,0.0,0.0,0.0,0.0,0.0,0.0,0.0,0.0,0.0,0.0,0.0,0.0,0.0,0.0,0.0,0.0,0.0,0.0,0.0,0.0,0.0,0.0,0.0,0.0,0.0,0.0,0.0,0.0,0.0,0.0,0.0,0.0,0.0,0.0,0.0,0.0,0.0,0.0,0.0,0.0,0.0,0.0,0.0,0.0,0.0,0.0,0.0,0.0,0.0,0.0,0.0,0.0,0.0,0.0,0.0,0.0,0.0,0.0,0.0,0.0,0.0,0.0,0.0,0.0,-2.0501,0.0,0.0,0.0,0.0,0.0,0.0,0.0,0.0,0.0,0.0,0.0,0.0,0.0,0.0,0.0,0.0,0.0,0.0,0.0,0.0,0.0,0.0,0.0,0.0,0.0,0.0,0.0,0.0,0.0,0.0,0.0,0.0,0.0,0.0,0.0,-0.0151,-0.0228,-0.0227,-0.1365,-0.3037,-0.5154,-0.7345,-0.7934,-0.7315,-0.7204,0.0,0.0,0.0,0.0,0.0,0.0,0.0,0.0,0.0,0.0,0.0,0.0,0.0,0.0,0.0,0.0,0.0,0.0,0.0,0.0,0.0,0.0,0.0,0.0,0.0,0.0,0.0,0.0,0.0,0.0,0.0,0.0,0.0,0.0,0.0,0.0,0.0,0.0,0.0,0.0,0.0,0.0,0.0,0.0,0.0,0.0,0.0,0.0,0.0,0.0,0.0,0.0,0.0,0.0,0.0,0.0,0.0,0.0,0.0,0.0,0.0,0.0,0.0,0.0,-2.1523,-2.1105,-2.1558,-2.2098,-2.2516,-2.2595,-2.2338,-2.1798,0.0,0.0,0.0,0.0,0.0,0.0,0.0,0.0,0.0,0.0,0.0,0.0,0.0,0.0,0.0,0.0,0.0,0.0,0.0,0.0,0.0,0.0,0.0,0.0,0.0,0.0,0.0,0.0,0.0,0.0,0.0,0.0,0.0,0.0,-0.0935,-0.1312,-0.1133,-0.3233,-0.5137,-0.6814,-0.8275,-0.9479,-1.0369,-0.9499,-0.9451,-0.9805,0.0,0.0,0.0,0.0,0.0,0.0,0.0,0.0,0.0,0.0,0.0,0.0,0.0,0.0,0.0,0.0,0.0,0.0,0.0,0.0,0.0,0.0,0.0,0.0,0.0,0.0,0.0,0.0,0.0,0.0,0.0,0.0,0.0,0.0,0.0,0.0,0.0,0.0,0.0,0.0,0.0,-0.4178,-0.4436,0.0,0.0,0.0,0.0,0.0,0.0,0.0,0.0,0.0,0.0,0.0,0.0,0.0,0.0,-1.996,-2.1693,-2.2436,-2.2097,-2.3349,-2.3584,-2.2908,-2.3785,-2.3971,-2.3761,-2.4224,0.0,-2.391,-2.3848,0.0,0.0,0.0,0.0,0.0,0.0,0.0,0.0,0.0,0.0,0.0,0.0,0.0,0.0,0.0,0.0,0.0,0.0,0.0,0.0,0.0,0.0,0.0,0.0,0.0,0.0,0.0,0.0,0.0,0.0,0.0,-0.0628,0.0,-0.0465,-0.1306,-0.2463,-0.4205,-0.6121,-0.8159,-0.9384,-1.0611,-1.1895,-1.1987,-1.1458,-1.033,-0.9455,0.0,0.0,0.0,0.0,0.0,0.0,0.0,0.0,0.0,0.0,0.0,0.0,0.0,0.0,0.0,0.0,0.0,0.0,0.0,0.0,0.0,0.0,0.0,0.0,0.0,0.0,0.0,0.0,0.0,0.0,0.0,0.0,0.0,0.0,0.0,0.0,0.0,0.0,0.0,-0.4465,-0.5106,-0.5981,-0.7689,-0.9005,0.0,0.0,0.0,0.0,0.0,0.0,0.0,0.0,0.0,-2.0416,-2.1714,-2.2577,-2.2995,-2.4094,-2.4512,-2.4336,-2.4893,-2.4834,-2.432,-2.4406,-2.4995,-2.5706,-2.5709,-2.6155,-2.6746,-2.5095,-2.414,-2.3577,0.0,0.0,0.0,0.0,0.0,-2.202,0.0,0.0,0.0,0.0,0.0,0.0,0.0,0.0,0.0,0.0,0.0,0.0,0.0,0.0,0.0,0.4092,0.0,0.0,0.0,0.0,0.0,0.0,-0.1635,-0.1097,0.0,-0.0543,-0.1956,-0.4371,-0.5395,-0.7225,-0.9666,-1.049,-1.1844,-1.3454,-1.4174,-1.3435,-1.1544,-1.0955,-1.0338,-0.9617,0.0,0.0,0.0,0.0,0.0,0.0,0.0,0.0,0.0,0.0,0.0,0.0,0.0,0.0,0.0,0.0,0.0,0.0,0.0,0.0,0.0,0.0,0.0,0.0,0.0,0.0,0.0,0.0,0.0,0.0,0.0,0.0,0.0,0.0,0.0,0.0,0.0,-0.5101,-0.604,-0.7289,-0.8927,-1.0162,0.0,0.0,0.0,0.0,0.0,0.0,-1.77,-2.0219,-2.2141,-2.3374,-2.4371,-2.5127,-2.5557,-2.5898,-2.6064,-2.6064,-2.5957,-2.5732,-2.5391,-2.4834,-2.5219,-2.6411,-2.5946,-2.6617,-2.7717,-2.6129,-2.5135,-2.4607,-2.4318,-2.3941,0.0,-2.3414,-2.3364,-2.3339,0.0,0.0,0.0,0.0,0.0,0.0,0.0,0.0,0.0,0.0,0.0,0.0,0.0,0.0,0.3925,0.1958,0.0535,-0.0706,0.0,0.0,0.0,-0.1858,-0.1663,-0.1097,0.0,-0.2077,-0.4412,-0.6916,-0.7175,-0.877,-1.1546,-1.1773,-1.3233,-1.5644,-1.5644,-1.5332,-1.4639,-1.252,-1.1508,-1.1242,-0.932,0.0,0.0,0.0,0.0,0.0,0.0,0.0,0.0,0.0,0.0,0.0,0.0,0.0,0.0,0.0,0.0,0.0,0.0,0.0,0.0,0.0,0.0,0.0,0.0,0.0,0.0,0.0,0.0,0.0,0.0,0.0,0.0,0.0,0.0,0.0,0.0,0.0,0.0,-0.7667,-0.9822,0.0,0.0,0.0,0.0,-1.4783,-1.6221,-1.8119,-2.045,-2.2102,-2.3937,-2.6112,-2.6279,-2.6484,-2.6914,-2.6943,-2.6953,-2.6943,-2.6543,-2.6338,-2.6289,-2.543,-2.4888,-2.4539,-2.4116,-2.4348,-2.5144,-2.6596,-2.6879,-2.6294,-2.5184,-2.4757,-2.4669,-2.4142,-2.3954,-2.3879,0.0,0.0,0.0,0.0,0.0,0.0,0.0,0.0,0.0,0.0,0.0,0.0,0.0,0.368,0.2569,0.1834,-0.0197,-0.1476,-0.1696,0.0,0.0,-0.1744,-0.1623,-0.1523,-0.1282,-0.3483,-0.5198,-0.6373,-0.725,-0.908,-1.1829,-1.191,-1.3307,-1.5832,-1.5832,-1.5611,-1.519,-1.4037,-1.3046,-1.2202,-1.0343,-0.8891,0.0,0.0,0.0,0.0,0.0,0.0,0.0,0.0,0.0,0.0,0.0,0.0,0.0,0.0,0.0,0.0,0.0,0.0,0.0,0.0,0.0,0.0,0.0,0.0,0.0,0.0,0.0,0.0,0.0,0.0,0.0,0.0,0.0,0.0,0.0,0.0,0.0,-1.1063,-1.2505,0.0,-1.4123,-1.4753,-1.5451,-1.6039,-1.7768,-1.975,-2.2017,-2.3876,-2.573,-2.7598,-2.7607,-2.7685,-2.7832,-2.7568,-2.7432,-2.7422,-2.6728,-2.6387,-2.6357,-2.5469,-2.5282,-2.5462,-2.5013,-2.5238,-2.5931,-2.6542,-2.67,-2.6469,-2.64,-2.5963,-2.5297,-2.5096,-2.482,-2.4494,0.0,0.0,0.0,0.0,0.0,0.0,0.0,0.0,0.0,0.0,0.0,0.4351,0.4055,0.2668,0.1393,0.0507,-0.1437,-0.2749,-0.304,0.0,0.0,-0.2353,-0.1902,-0.214,-0.3147,-0.4788,-0.5905,-0.6575,-0.7472,-0.9002,-1.1268,-1.1653,-1.3108,-1.5146,-1.5635,-1.5665,-1.5364,-1.4877,-1.3988,-1.2826,-1.1278,-1.0155,-0.9217,0.0,0.0,0.0,0.0,0.0,0.0,0.0,0.0,0.0,0.0,0.0,0.0,0.0,0.0,0.0,0.0,0.0,0.0,0.0,0.0,0.0,0.0,0.0,0.0,0.0,0.0,0.0,0.0,0.0,0.0,0.0,0.0,0.0,0.0,0.0,-1.0686,-1.2372,-1.3506,-1.4634,-1.5728,-1.6192,-1.6667,-1.7261,-1.9002,-2.0878,-2.3071,-2.499,-2.6717,-2.8291,-2.8291,-2.8291,-2.8291,-2.7881,-2.7666,-2.7656,-2.6797,-2.6387,-2.6357,-2.5469,-2.5282,-2.5462,-2.5013,-2.5076,-2.5389,-2.5808,-2.5917,-2.5993,-2.6771,-2.6461,-2.5635,-2.5815,-2.5674,-2.5322,0.0,0.0,0.0,0.0,0.0,0.0,0.0,0.0,0.0,0.0,0.3121,0.2735,0.193,0.1695,0.0585,-0.1957,-0.3199,-0.43,-0.5569,-0.5443,0.0,-0.3615,-0.26,-0.3134,-0.5376,-0.5799,-0.6608,-0.7818,-0.7967,-0.8726,-0.9998,-1.1268,-1.2522,-1.3872,-1.5146,-1.5571,-1.5285,-1.5097,-1.4315,-1.3186,-1.2265,-1.139,-1.0533,0.0,0.0,0.0,0.0,0.0,0.0,0.0,0.0,0.0,0.0,0.0,0.0,0.0,0.0,0.0,0.0,0.0,0.0,0.0,0.0,0.0,0.0,0.0,0.0,0.0,0.0,0.0,0.0,0.0,0.0,0.0,0.0,0.0,-0.7146,-0.7818,-0.9272,-1.1532,-1.2825,-1.4456,-1.6544,-1.7295,-1.7883,-1.847,-1.9909,-2.1572,-2.3566,-2.5168,-2.6726,-2.8174,-2.8291,-2.8291,-2.8291,-2.7861,-2.7646,-2.7637,-2.6777,-2.6357,-2.6318,-2.5459,-2.4824,-2.4375,-2.3965,-2.3545,-2.3222,-2.4296,-2.4787,-2.4862,-2.606,-2.6127,-2.573,-2.626,-2.649,-2.637,0.0,0.0,0.0,0.0,0.0,0.0,0.0,0.0,0.0,0.0,0.2197,0.2039,0.1847,0.0978,0.0204,-0.0518,-0.25,-0.344,-0.2891,0.0,-0.362,-0.2462,-0.3576,-0.4753,-0.5823,-0.6683,-0.7432,-0.7977,-0.8018,-0.8726,-0.9998,-1.0391,-1.1165,-1.2528,-1.3878,-1.4218,-1.4056,-1.493,-1.497,-1.4362,-1.3118,-1.2048,-1.1133,0.0,0.0,0.0,0.0,0.0,0.0,0.0,0.0,0.0,0.0,0.0,0.0,0.0,0.0,0.0,0.0,0.0,0.0,0.0,0.0,0.0,0.0,0.0,0.0,0.0,0.0,0.0,0.0,0.0,0.0,0.0,0.0,-0.8402,-0.8885,-1.0337,-1.2097,-1.4306,-1.5215,-1.6405,-1.811,-1.8657,-1.8945,-1.9118,-1.9768,-2.0644,-2.2145,-2.3844,-2.5336,-2.6617,-2.7726,-2.8291,-2.8291,-2.7559,-2.7197,-2.7178,-2.6328,-2.5752,-2.542,-2.5176,-2.4668,-2.3955,-2.3838,-2.3545,-2.3135,-2.3474,-2.3551,-2.378,-2.5771,-2.6433,-2.6261,-2.6428,-2.649,-2.637,0.0,0.0,0.0,0.0,0.0,0.0,0.0,0.0,0.0,0.0,0.1045,0.1011,0.1071,0.0383,-0.02,-0.0901,-0.2139,-0.2963,-0.3354,0.0,-0.4037,-0.3307,-0.5257,-0.6665,-0.746,-0.874,-0.9208,-0.8825,-0.8825,-0.892,-0.9217,-0.9706,-1.0391,-1.1165,-1.2522,-1.2929,-1.2791,-1.3444,-1.4037,-1.4472,-1.3332,-1.2845,-1.2643,-1.1608,-1.1022,-1.0672,-1.1206,-1.1483,-1.1594,-1.1906,0.0,0.0,0.0,0.0,0.0,0.0,0.0,0.0,0.0,0.0,0.0,0.0,0.0,0.0,0.0,0.0,0.0,0.0,0.0,0.0,0.0,0.0,0.0,0.0,-0.797,-0.8657,-0.9594,-1.0526,-1.2165,-1.4852,-1.5456,-1.6628,-1.8876,-1.9265,-1.9366,-1.9366,-1.9519,-2.0219,-2.1479,-2.2557,-2.4036,-2.6054,-2.6943,-2.7726,-2.8291,-2.7441,-2.7012,-2.7002,-2.5957,-2.542,-2.5332,-2.4961,-2.4521,0.0,-2.3867,-2.3545,-2.3135,-2.3135,-2.3135,0.0,0.0,0.0,0.0,0.0,-2.6498,-2.6395,0.0,0.0,0.0,0.0,0.0,0.0,0.0,0.0,0.0,0.0,0.0,0.0,-0.0168,-0.009,-0.0566,-0.1794,-0.185,-0.2813,0.0,-0.5515,-0.5424,-0.5199,-0.7098,-0.8586,-0.9457,-1.1058,-1.1253,-0.9968,-0.9989,-0.9312,-0.8038,-0.9217,-0.9805,-0.9801,-1.1072,-1.1658,-1.1643,-1.1627,-1.2421,-1.3831,-1.3251,-1.3619,-1.4402,-1.3313,-1.3026,-1.3213,-1.3213,-1.2906,-1.2538,-1.2766,0.0,0.0,0.0,0.0,0.0,0.0,0.0,0.0,0.0,0.0,0.0,0.0,0.0,0.0,0.0,0.0,0.0,0.0,0.0,0.0,0.0,0.0,0.0,0.0,-0.8594,-0.9133,-0.9551,-0.9507,-1.0638,-1.4078,-1.4493,-1.5908,-1.9127,-1.9399,-1.9406,-1.9372,-1.9399,-1.9958,-2.1252,0.0,0.0,0.0,0.0,-2.676,-2.8223,-2.7373,-2.6943,-2.6934,-2.5723,-2.5303,-2.5557,-2.4775,-2.4365,-2.4248,-2.3877,-2.3496,-2.3135,-2.3135,-2.3105,-2.3238,-2.3484,-2.4194,-2.517,-2.621,-2.6622,0.0,0.0,0.0,0.0,0.0,0.0,0.0,0.0,0.0,0.0,-0.0989,-0.0413,-0.0257,-0.0961,-0.0425,-0.0089,-0.0363,-0.1138,-0.2336,-0.392,-0.5602,-0.6413,-0.5871,-0.8027,-0.9312,-0.9469,-1.1042,-1.1182,-0.9581,-0.9828,-0.9312,-0.8038,-0.8233,-0.8432,-0.8432,-0.9801,-1.0386,-1.0386,-1.1414,-1.2673,-1.3849,-1.3444,-1.3785,-1.4469,-1.4001,-1.3567,-1.3213,-1.3213,-1.344,-1.3714,-1.3527,-1.3554,-1.3567,-1.3033,-1.2692,0.0,0.0,0.0,0.0,0.0,0.0,0.0,0.0,0.0,0.0,0.0,0.0,0.0,0.0,0.0,0.0,0.0,0.0,0.0,-0.8309,-0.8903,-0.9367,-0.9581,-0.9683,-1.0985,-1.4284,-1.468,-1.5908,-1.9127,-1.9579,-1.9619,-1.9386,-1.9586,-1.9723,-1.9829,-2.0916,0.0,-2.4156,-2.5072,-2.6227,-2.7783,-2.6934,-2.6514,-2.6504,0.0,0.0,-2.4668,-2.4492,-2.4043,-2.3379,-2.3301,-2.3213,-2.3135,-2.3135,-2.3428,-2.4075,-2.4849,-2.5803,-2.6872,-2.7063,-2.713,-2.6979,0.0,0.0,0.0,0.0,0.0,0.0,0.0,0.0,0.0,0.0,-0.1381,-0.1008,-0.1363,-0.0589,0.0,0.0,-0.1514,-0.302,-0.4291,-0.6731,-0.802,-0.7753,-1.0306,-1.1747,-1.1672,-1.3143,-1.2855,-1.0725,-1.0826,-0.9899,-0.8038,-0.8038,-0.8038,-0.8038,-0.8726,-0.9019,-0.9019,-0.9702,-1.0676,-1.2027,-1.2491,-1.3176,-1.3988,-1.4202,-1.4028,-1.3647,-1.3647,-1.3741,-1.3868,-1.3868,-1.3868,-1.3814,-1.352,-1.2924,-1.2012,0.0,0.0,0.0,0.0,0.0,0.0,0.0,0.0,0.0,0.0,0.0,0.0,0.0,0.0,-0.6153,0.0,0.0,-0.8007,-0.7737,-0.89,-0.9771,-0.9924,-1.0005,-1.1244,-1.4289,-1.4665,-1.5908,-1.9127,-1.9633,-1.974,-1.9593,-1.9853,-1.9887,-1.9599,-2.0254,-2.165,-2.3718,-2.4132,-2.5352,-2.7666,-2.6816,-2.6387,-2.6387,-2.5713,-2.5176,-2.4736,-2.4521,-2.4072,-2.3467,-2.3467,-2.334,-2.3135,-2.3135,-2.4012,-2.5365,-2.5858,-2.6427,-2.7012,-2.7507,-2.7519,-2.7205,0.0,0.0,0.0,0.0,0.0,0.0,0.0,0.0,0.0,0.0,-0.2559,-0.1979,-0.2167,-0.1336,-0.0682,0.0,0.0,-0.4176,-0.5489,-0.7889,-0.9418,-0.9988,-1.2457,-1.3802,-1.3802,-1.5114,-1.4638,-1.2169,-1.2022,-1.0681,-0.8432,-0.8137,-0.8038,-0.8038,-0.8038,-0.8038,-0.8038,-0.8038,-0.8726,-1.0096,-1.1072,-1.2289,-1.3438,-1.3983,-1.4123,-1.4075,-1.3961,-1.3599,-1.3192,-1.3539,-1.3335,-1.299,-1.3016,-1.2518,-1.1477,-0.9807,-0.8746,0.0,0.0,0.0,0.0,0.0,0.0,0.0,0.0,-0.934,-0.8564,-0.8981,-0.8388,-0.7323,-0.5944,-0.7041,-0.7907,-0.7111,-0.8406,-0.9673,-1.0175,-1.0192,-1.1208,-1.3808,-1.4366,-1.579,-1.8648,-1.9502,-1.978,-1.972,-2.004,-2.008,-1.9733,-1.9773,-2.1031,-2.3727,-2.3365,-2.4567,-2.7539,-2.6777,-2.6348,-2.625,-2.5449,-2.5019,-2.4922,-2.4492,-2.4062,-2.3662,-2.3662,-2.3467,-2.3135,-2.3135,-2.4307,-2.6224,-2.6389,-2.6622,-2.6976,-2.7903,-2.7921,-2.7431,0.0,0.0,0.0,0.0,0.0,0.0,0.0,0.0,0.0,0.0,0.0,0.0,0.0,0.0,0.0,0.0,-0.4118,-0.5581,-0.7151,-0.8347,-0.9763,-1.1545,-1.2769,-1.3438,-1.3438,-1.5018,-1.4924,-1.3245,-1.2325,-1.1165,-0.9702,-0.8528,-0.8038,-0.8038,-0.8038,-0.8038,-0.8038,-0.8038,-0.8726,-0.9998,-1.0194,-1.1515,-1.3362,-1.3265,-1.3573,-1.4015,-1.3494,-1.2538,-1.1532,-1.1823,-1.1399,-1.0789,-1.1038,-1.093,-1.0509,-0.895,-0.8216,-0.7561,-0.6282,-0.5918,-0.6239,-0.8045,-0.8295,-0.9053,0.0,-1.2079,-1.1043,-1.1402,-1.0649,-0.912,-0.6635,-0.6541,-0.6886,-0.7022,-0.7414,-0.8247,-0.9622,-0.9873,-1.0461,-1.2221,-1.377,-1.5311,-1.7085,-1.8775,-1.9693,-1.9432,-1.992,-1.9993,-1.9446,-1.9659,-2.1031,-2.3727,-2.3365,-2.4436,-2.709,-2.6621,-2.6191,-2.5801,-2.5303,-2.4863,-2.4473,-2.4053,-2.3623,-2.3213,-2.3213,-2.3184,-2.3135,-2.3135,-2.3887,-2.5126,-2.6141,-2.7059,-2.8016,-2.861,-2.8486,-2.7946,0.0,0.0,0.0,0.0,0.0,0.0,0.0,0.0,0.0,0.0,0.0,0.0,0.0,0.0,0.0,-0.4053,-0.5361,-0.6793,-0.8332,-1.0276,-1.193,-1.2978,-1.4159,-1.4779,-1.4779,-1.5475,-1.5089,-1.3714,-1.248,-1.1263,-0.9998,-0.8627,-0.8038,-0.8038,-0.8038,-0.8038,-0.8038,-0.8038,-0.8333,-0.892,-0.9706,-1.0559,-1.1377,-1.1764,-1.1774,-1.1721,-1.2072,-1.1323,0.0,-1.0137,-1.0111,-1.0078,-1.0326,-1.0035,-0.9507,-0.873,-0.7962,-0.721,-0.6561,-0.7053,-0.8048,-0.9199,-1.0279,-1.1585,-1.3981,-1.3374,-1.2248,-1.2093,-1.1102,-0.9495,-0.6909,-0.7489,-0.8064,0.0,-0.8083,-0.9202,-0.9828,-0.9876,-1.003,-1.0655,-1.2876,-1.5162,-1.6833,-1.8657,-1.982,-1.9867,-2.0254,-2.0307,-1.9893,-1.9826,-2.0945,-2.3423,-2.2856,-2.387,-2.665,-2.6221,-2.5918,-2.5732,-2.5283,-2.4834,-2.4404,-2.3984,-2.3555,-2.3135,-2.3135,-2.3135,-2.3135,-2.3135,-2.38,-2.4872,-2.5294,-2.6532,-2.8231,-2.9105,-2.8863,-2.8072,0.0,0.0,0.0,0.0,0.0,0.0,0.0,0.0,0.0,0.0,0.0,0.0,0.0,0.0,0.0,-0.5529,-0.6599,-0.8026,-0.9809,-1.1855,-1.3344,-1.423,-1.5227,-1.5745,-1.5832,-1.5832,-1.5146,-1.3878,-1.2522,-1.1263,-0.9998,-0.8583,-0.7997,-0.8038,-0.7994,-0.7997,-0.8038,-0.8038,-0.8038,-0.8038,-0.9019,-0.9596,-0.9854,-1.0263,-0.9858,-0.9267,-1.0155,-0.949,0.0,-0.7827,-0.7978,-0.8309,-0.8649,-0.8537,-0.825,-0.8123,-0.7571,-0.6994,-0.7102,-0.807,-0.9294,-1.0679,-1.2122,-1.3628,-1.5002,-1.4654,-1.3702,-1.2945,-1.1832,-1.0048,-0.7471,-0.7826,-0.8268,-0.7249,-0.8291,-0.9306,-0.9804,-0.9795,-0.9659,-0.9557,-1.228,-1.4745,-1.6025,-1.8257,-1.9766,-1.9973,-2.0267,-2.0307,-2.0007,-1.9873,-2.0656,-2.2544,-2.2461,-2.3471,-2.5758,-2.5867,-2.5859,-2.5732,-2.5156,-2.4727,-2.4394,-2.3857,-2.3437,-2.3135,-2.3135,-2.3135,-2.3135,-2.3135,-2.3551,-2.4372,-2.4713,-2.5699,-2.722,-2.856,-2.8699,-2.8084,0.0,0.0,0.0,0.0,0.0,0.0,0.0,0.0,0.0,0.0,0.0,0.0,0.0,0.0,-0.6958,-0.7815,-0.8052,-0.9229,-1.1869,-1.221,-1.323,-1.5279,-1.5411,-1.5538,-1.5818,-1.5832,-1.5146,-1.3878,-1.2522,-1.1263,-0.9993,-0.8466,-0.7896,-0.8031,-0.7885,-0.7899,-0.8038,-0.8038,-0.8038,-0.8038,-0.8038,-0.8724,-0.9729,-0.9078,-0.8119,-0.7254,-0.7663,0.0,-0.5283,-0.4566,-0.4461,-0.4686,-0.5005,-0.5817,-0.6788,-0.6785,-0.6682,-0.6805,-0.7978,-0.8519,-0.9381,-1.2412,-1.3453,-1.4284,-1.5906,-1.6233,-1.5816,-1.4684,-1.3233,-1.1281,-0.8598,-0.7273,-0.6666,-0.6882,-0.7015,-0.7812,-0.938,-0.9493,-0.9395,-0.9388,-1.1955,-1.3811,0.0,-1.7274,-1.9386,-1.9392,-1.9659,-1.97,-1.9412,-1.9653,-2.0206,-2.1107,-2.2504,-2.3564,-2.438,-2.5738,-2.6162,-2.5723,-2.4853,-2.4424,-2.4385,-2.3545,-2.3154,-2.3135,-2.3135,-2.3135,-2.3135,-2.3135,-2.3135,-2.3222,-2.4372,-2.4598,-2.4538,-2.6618,-2.7712,-2.8034,0.0,0.0,0.0,0.0,0.0,0.0,0.0,0.0,0.0,0.0,0.0,0.0,0.0,0.0,0.0,0.0,-0.954,-1.045,-1.1762,-1.2875,-1.386,-1.479,-1.519,-1.5351,-1.5257,-1.5444,-1.4875,-1.3472,-1.216,-1.0843,-0.9617,-0.8251,-0.7699,-0.7746,-0.7692,-0.775,-0.7889,-0.7889,-0.7946,-0.8021,-0.7828,-0.7999,-0.8149,-0.6871,-0.5956,-0.5368,0.0,0.0,-0.3551,-0.3164,-0.3563,-0.4222,-0.438,-0.52,-0.6183,-0.6583,-0.6664,-0.699,-0.8451,-0.9684,-1.0972,-1.2915,-1.4216,-1.5393,-1.6082,-1.6119,-1.5608,-1.4314,-1.2958,-1.1245,-0.9299,-0.8231,-0.7699,-0.7982,-0.8357,-0.8896,-0.9476,-0.9564,-0.9456,-0.9252,-1.1977,0.0,0.0,0.0,0.0,-1.9339,-1.9459,-1.9553,-1.9646,-1.9379,-1.9694,-2.0676,-2.0773,-2.1778,-2.389,-2.4398,-2.4805,-2.5283,-2.4414,-2.4004,-2.3984,-2.3408,-2.3135,-2.3135,-2.3135,-2.3135,-2.3135,-2.3135,-2.3135,-2.3105,-2.3242,-2.3688,-2.4206,-2.4277,-2.5245,-2.6663,0.0,0.0,0.0,0.0,0.0,0.0,0.0,0.0,0.0,0.0,0.0,0.0,0.0,0.0,0.0,0.0,0.0,-1.0885,-1.1815,-1.3007,-1.3741,-1.4041,-1.4516,-1.4636,-1.4342,-1.4248,-1.3442,-1.2034,-1.0972,-0.9763,-0.8509,-0.7713,-0.7417,-0.7516,-0.7461,-0.7546,-0.7733,-0.7678,-0.7648,-0.7624,-0.7438,-0.7082,-0.6524,-0.5322,-0.4385,0.0,0.0,0.0,-0.1736,-0.1625,-0.2324,-0.3251,-0.3661,-0.4846,-0.6196,-0.6586,-0.6814,-0.7433,-0.9518,-1.0866,-1.2186,-1.3975,-1.5298,-1.6166,-1.6253,-1.6046,-1.5507,-1.4627,-1.3014,-1.1389,-0.9981,-0.8977,-0.8357,-0.8272,-0.8696,-0.9093,-0.9401,-0.9401,-0.9337,-0.9245,-1.1977,-1.373,0.0,0.0,0.0,-1.9165,-1.9305,-1.9452,-1.9633,-1.9285,-1.9337,-1.9778,-1.9883,-2.0892,-2.2976,-2.3484,-2.4189,-2.5059,-2.4346,-2.3935,-2.3769,-2.334,-2.3135,-2.3135,-2.3135,-2.3135,-2.3135,-2.3135,-2.3135,-2.3096,-2.2676,-2.2814,-2.331,-2.2866,-2.3677,-2.5093,0.0,0.0,0.0,0.0,0.0,0.0,0.0,0.0,0.0,0.0,0.0,0.0,0.0,0.0,0.0,0.0,0.0,0.0,-1.2145,-1.2538,-1.2832,-1.3126,-1.3434,-1.338,-1.3087,-1.2276,-1.1209,-0.9807,-0.9123,-0.8139,-0.6881,-0.6892,-0.7044,-0.7309,-0.716,-0.7261,-0.7533,-0.7387,-0.7166,-0.6915,-0.6823,-0.6065,-0.4905,-0.4509,0.0,0.0,0.0,-0.0591,0.0,0.0,-0.0754,-0.1901,-0.2926,-0.4846,-0.6725,-0.6742,-0.7058,-0.8107,-1.1155,-1.2107,-1.2921,-1.5628,-1.6486,-1.6607,-1.6299,-1.5999,-1.5691,-1.5371,-1.3541,-1.169,-1.0722,0.0,-0.823,-0.8017,-0.8174,-0.8496,-0.9083,-0.9055,-0.9079,0.0,0.0,0.0,0.0,0.0,0.0,-1.8885,0.0,-1.9332,-1.9366,-1.9339,-1.9065,-1.851,-1.9728,-2.078,-2.155,-2.295,-2.4082,-2.4993,-2.4639,-2.4209,-2.3809,-2.3369,-2.3164,-2.3135,-2.3135,-2.3135,-2.3135,-2.3135,-2.3135,-2.3096,-2.2656,-2.2236,-2.1991,-2.2426,-2.295,-2.3599,0.0,0.0,0.0,0.0,0.0,0.0,0.0,0.0,0.0,0.0,0.0,0.0,0.0,0.0,0.0,0.0,0.0,0.0,-1.1623,-1.1931,-1.2131,-1.2204,-1.2705,-1.2524,-1.1544,-1.1581,-1.055,-0.8303,-0.8276,-0.7528,-0.6261,-0.6376,-0.6471,-0.6542,-0.6502,-0.6586,-0.6756,-0.6719,-0.6725,-0.6662,0.0,-0.5297,-0.4854,0.0,0.0,0.0,0.0,-0.013,0.0,0.0,-0.1391,-0.3401,-0.5228,-0.6309,-0.7075,-0.7302,-0.7607,-0.8514,-1.173,-1.2613,-1.327,-1.5914,-1.6486,-1.6253,-1.5738,-1.5398,-1.4977,-1.4242,-1.2296,-1.0432,-0.9775,-0.8426,0.0,-0.7651,-0.8211,0.0,-0.9256,-0.9388,0.0,-1.145,-1.3059,-1.4557,-1.5886,-1.7579,0.0,0.0,-1.8791,-1.8905,-1.9345,-1.8951,-1.8644,-1.8497,-1.836,-1.8871,-2.0135,-2.2192,-2.3447,-2.403,-2.4287,-2.4365,-2.4238,-2.3818,-2.3447,-2.3135,-2.3135,-2.3135,-2.3135,-2.3135,-2.3135,-2.3066,-2.2334,-2.1982,-2.1879,-2.1323,-2.1696,-2.2553,0.0,0.0,0.0,0.0,0.0,0.0,0.0,0.0,0.0,0.0,0.0,0.0,0.0,0.0,0.0,0.0,0.0,0.0,0.0,-1.1396,-1.1483,-1.1483,-1.1797,-1.1475,-1.0277,-1.0053,-0.9122,0.0,0.0,0.0,-0.584,-0.5989,-0.6095,-0.6159,-0.6159,-0.624,-0.6376,-0.6308,0.0,0.0,0.0,0.0,0.0,0.0,0.0,0.0,-0.0266,-0.0337,-0.0911,-0.1493,-0.2602,-0.3983,-0.5846,-0.6927,-0.7594,-0.7899,-0.8197,-0.9104,-1.2312,-1.3204,-1.3943,-1.6452,-1.6874,-1.64,-1.5431,-1.4883,-1.4203,-1.2782,-1.1325,-0.9903,-0.8745,-0.7823,-0.731,0.0,0.0,0.0,-0.9096,-0.9317,-1.009,-1.2051,-1.3532,-1.4987,-1.6628,-1.8052,-1.8978,0.0,-1.8965,-1.9018,-1.9352,-1.8931,-1.8617,-1.8497,-1.8036,-1.8275,-1.9418,-2.1313,-2.261,-2.3519,-2.3401,-2.376,-2.4394,-2.3779,-2.3369,-2.3135,0.0,-2.3135,-2.3135,-2.3135,-2.3135,-2.3076,-2.2412,-2.2051,-2.1807,-2.1113,-2.1624,-2.2702,0.0,0.0,0.0,0.0,0.0,0.0,0.0,0.0,0.0,0.0,0.0,0.0,0.0,0.0,0.0,0.0,0.0,0.0,0.0,0.0,0.0,-1.0935,-1.0935,-1.0354,-0.9145,-0.842,-0.7488,0.0,0.0,0.0,0.0,0.0,0.0,0.0,0.0,0.0,0.0,0.0,0.0,0.0,0.0,0.0,0.0,0.0,0.0,0.0,0.0,-0.0777,-0.1969,-0.3353,-0.397,-0.4325,-0.5792,-0.7082,-0.8184,-0.8459,-0.8774,-0.9612,-1.2665,-1.3758,-1.4477,-1.675,-1.7317,-1.6754,-1.5251,-1.4449,-1.3428,-1.1307,-1.0542,-0.959,-0.775,-0.7446,-0.7369,-0.7162,-0.7428,-0.8038,-0.9057,-0.9185,-1.0122,-1.2653,-1.3904,-1.5327,-1.7138,-1.8327,-1.9092,-1.9352,-1.9332,-1.9305,-1.9305,-1.9025,-1.8711,-1.8384,-1.8083,-1.819,-1.8955,-2.0174,-2.1556,-2.2991,-2.2263,-2.2741,-2.4394,-2.3405,-2.3018,-2.3135,0.0,0.0,-2.3135,-2.3135,-2.3135,-2.3096,-2.2676,-2.2256,-2.1836,-2.1396,-2.2004,-2.2999,0.0,0.0,0.0,0.0,0.0,0.0,0.0,0.0,0.0,0.0,0.0,0.0,0.0,0.0,0.0,0.0,0.0,0.0,0.0,0.0,0.0,0.0,-1.0698,-0.9893,-0.8285,-0.8091,-0.7159,-0.5357,-0.5391,0.0,0.0,0.0,0.0,0.0,0.0,0.0,0.0,0.0,0.0,0.0,0.0,0.0,0.0,0.0,0.0,0.0,0.0,-0.062,-0.1659,-0.3392,-0.4741,-0.5903,-0.7259,-0.8047,-0.8628,-0.8808,-0.9161,-0.987,-1.1904,-1.3386,-1.4605,-1.5862,-1.675,-1.67,-1.499,-1.4142,-1.3067,-1.0719,-0.9642,-0.867,-0.7436,-0.7038,-0.6944,-0.7255,-0.758,-0.8582,-1.0741,-1.0029,-1.1077,-1.5959,-1.5428,-1.5866,-1.897,-1.9342,0.0,0.0,0.0,0.0,-1.8998,-1.8724,-1.831,-1.7756,-1.7455,-1.7461,-1.7551,-1.8574,-1.9937,-2.159,-2.1168,-2.2232,-2.4312,-2.2878,-2.2565,-2.3135,0.0,0.0,-2.3135,-2.3135,-2.3135,-2.3096,-2.2676,-2.2256,-2.1836,-2.1396,-2.1174,-2.1155,0.0,0.0,0.0,0.0,0.0,0.0,0.0,0.0,0.0,0.0,-1.3407,-1.3055,0.0,0.0,0.0,0.0,0.0,0.0,0.0,0.0,0.0,0.0,0.0,0.0,0.0,-0.8027,-0.7071,-0.525,0.0,0.0,0.0,0.0,0.0,0.0,0.0,0.0,0.0,0.0,0.0,0.0,0.0,0.0,0.0,0.0,0.0,0.0,0.0,-0.1018,-0.2555,-0.3507,-0.5105,-0.6904,-0.7899,-0.8472,-0.8771,-0.9079,-0.9378,-1.0014,-1.1805,-1.2913,-1.3956,-1.5637,-1.6041,-1.5796,-1.4579,-1.3714,-1.2408,-0.9648,-0.8816,-0.8051,-0.6651,-0.6471,-0.6566,-0.6858,-0.7499,-0.8378,-0.9488,-0.9481,-1.1004,-1.5208,-1.5003,-1.5814,-1.9305,-1.9312,-1.9199,0.0,0.0,0.0,-1.8918,-1.835,-1.7883,-1.7595,-1.7148,-1.6921,-1.6921,-1.7308,-1.8184,-1.9684,-1.9993,-2.1145,-2.3138,-2.2725,-2.279,-2.3135,0.0,0.0,-2.3135,-2.3135,-2.3135,-2.3115,-2.292,-2.2451,-2.1865,-2.165,-2.1441,-2.1298,0.0,0.0,0.0,0.0,0.0,0.0,0.0,-1.1942,-1.3584,-1.4681,-1.5493,-1.5765,-1.5303,-1.3778,0.0,0.0,0.0,0.0,0.0,0.0,0.0,0.0,0.0,0.0,0.0,0.0,0.0,-0.5428,-0.5428,0.0,0.0,0.0,0.0,0.0,0.0,0.0,0.0,0.0,0.0,0.0,0.0,0.0,0.0,0.0,0.0,0.0,0.0,-0.1743,-0.3645,-0.384,-0.5419,-0.7292,-0.7943,-0.8384,-0.8723,-0.9049,-0.9364,-0.9902,-1.1382,-1.2201,-1.3199,-1.5237,-1.5399,-1.4812,-1.4245,-1.3313,-1.1708,-0.8759,-0.8063,-0.7464,-0.6015,-0.6006,-0.6268,-0.6444,-0.7267,-0.8101,-0.8796,-0.9489,-1.1181,-1.4585,-1.4975,0.0,-1.9014,-1.9058,0.0,0.0,0.0,0.0,-1.8724,-1.7943,-1.7488,-1.7488,-1.6921,-1.6613,-1.6613,-1.6386,-1.694,-1.8258,-1.8637,-1.9954,-2.2016,-2.2236,-2.2589,-2.3135,0.0,0.0,0.0,-2.3135,-2.3135,-2.3135,-2.3135,-2.2627,-2.1885,-2.1885,-2.178,-2.1593,0.0,0.0,0.0,0.0,0.0,0.0,0.0,-1.2878,-1.4353,-1.6804,-1.7054,-1.7314,-1.8107,-1.5739,0.0,0.0,0.0,0.0,0.0,0.0,0.0,0.0,0.0,0.0,0.0,0.0,0.0,-0.5428,-0.5428,0.0,0.0,0.0,0.0,0.0,0.0,0.0,0.0,0.0,0.0,0.0,0.0,0.0,0.0,0.0,0.0,0.0,0.0,-0.2698,-0.4428,-0.4833,-0.5702,-0.6614,-0.6963,-0.7729,-0.8486,-0.8397,-0.896,-0.9646,-0.9916,-1.1168,-1.2669,-1.379,-1.4498,-1.4708,-1.4206,-1.2817,-1.0905,-0.8487,-0.7483,-0.674,-0.5811,-0.585,-0.6142,-0.6427,-0.6692,-0.8053,-1.1557,-1.1299,-1.26,-1.7546,0.0,0.0,-1.8757,-1.8938,0.0,0.0,0.0,0.0,0.0,-1.7528,-1.7188,-1.7188,-1.662,-1.6313,-1.6313,-1.6286,-1.694,-1.8266,-1.7098,-1.8506,-2.1915,-2.0494,-2.1042,-2.3135,0.0,0.0,0.0,-2.3135,-2.3135,-2.3135,-2.3135,-2.2627,-2.1885,-2.1885,-2.1409,-2.0712,0.0,0.0,0.0,0.0,0.0,0.0,0.0,-1.3874,-1.5566,-1.7081,-1.8192,-1.8953,-1.9331,-1.7906,-1.6282,0.0,0.0,0.0,0.0,0.0,0.0,0.0,0.0,0.0,0.0,0.0,0.0,-0.5498,-0.5586,0.0,0.0,0.0,0.0,0.0,0.0,0.0,0.0,0.0,0.0,0.0,0.0,0.0,0.0,0.0,0.0,0.0,0.0,0.0,-0.4649,-0.4784,-0.5544,-0.6335,-0.6271,-0.6783,-0.7489,-0.7879,-0.8503,-0.9161,-0.9578,-1.0422,-1.1324,-1.2412,-1.2289,-1.2067,-1.201,-1.1021,-0.9531,-0.7695,-0.706,-0.6538,-0.5776,-0.5755,-0.5932,-0.6047,-0.6645,-0.7541,-0.879,-0.975,-1.1537,-1.4665,-1.5487,0.0,0.0,0.0,0.0,0.0,0.0,0.0,0.0,-1.7108,-1.6881,-1.6881,-1.6313,-1.6092,-1.6273,-1.6092,-1.6286,-1.6845,-1.7042,-1.7973,-1.945,-2.0201,-2.1123,-2.2059,0.0,0.0,0.0,-2.3135,-2.3135,-2.3115,-2.2861,-2.2402,-2.1855,-2.1592,-2.1103,-2.0566,0.0,0.0,0.0,0.0,0.0,0.0,-1.2526,-1.4507,-1.6291,-1.7333,-1.8428,-1.9307,-1.9687,-1.8848,-1.762,-1.5946,0.0,0.0,0.0,0.0,0.0,0.0,0.0,0.0,0.0,0.0,0.0,-0.5589,-0.5732,-0.5749,0.0,0.0,0.0,0.0,0.0,0.0,0.0,0.0,0.0,0.0,0.0,0.0,0.0,0.0,0.0,0.0,0.0,0.0,0.0,0.0,0.0,-0.6149,-0.5884,-0.6091,-0.6563,-0.7224,-0.7936,-0.8615,-0.9086,-0.954,-1.0155,-1.1265,-1.0741,-1.004,-1.0436,-0.9627,-0.838,-0.7078,-0.6552,-0.6176,-0.5637,-0.5951,-0.6226,-0.6226,-0.6907,-0.7524,-0.7694,-0.9331,-1.1134,-1.2909,0.0,-1.6235,0.0,0.0,0.0,0.0,0.0,0.0,0.0,-1.6867,-1.6667,-1.658,-1.6092,-1.5925,-1.6139,-1.6019,-1.5919,-1.5832,-1.6855,-1.7406,-1.7785,-1.9852,-2.0944,0.0,0.0,0.0,0.0,-2.2998,-2.2949,-2.291,-2.249,-2.206,-2.165,-2.1348,-2.0947,-2.0566,0.0,0.0,0.0,0.0,0.0,0.0,0.0,-1.4679,-1.6085,-1.7765,-1.7656,-1.7891,-1.916,-1.8154,-1.7559,-1.7959,0.0,0.0,0.0,0.0,0.0,0.0,0.0,0.0,0.0,0.0,-0.6466,-0.5589,-0.5732,-0.58,-0.5793,-0.5501,0.0,0.0,0.0,0.0,0.0,0.0,0.0,0.0,0.0,0.0,0.0,0.0,0.0,0.0,0.0,0.0,0.0,0.0,0.0,0.0,0.0,-0.5803,-0.5901,-0.6352,-0.7227,-0.8082,-0.8241,-0.8611,-0.924,-1.0568,-1.0175,-0.9622,-1.0308,-0.9042,-0.7618,-0.6839,-0.6013,-0.5428,-0.5428,-0.6421,-0.7279,-0.7279,-0.7603,-0.8371,-0.9978,-1.0952,-1.2103,0.0,0.0,-1.6827,0.0,0.0,0.0,0.0,0.0,0.0,0.0,0.0,-1.6573,-1.6286,-1.5985,-1.5832,-1.5832,-1.6119,-1.6119,-1.5832,-1.6126,-1.6773,-1.7777,-1.8956,0.0,0.0,0.0,0.0,0.0,-2.2685,-2.2519,-2.248,-2.206,-2.1621,-2.124,-2.123,-2.0947,-2.0566,0.0,0.0,0.0,0.0,0.0,0.0,0.0,-1.3665,-1.4796,-1.5309,-1.6021,-1.6673,-1.7055,-1.7513,-1.7871,-1.7998,0.0,0.0,0.0,0.0,0.0,0.0,0.0,0.0,0.0,0.0,-0.6631,-0.5891,-0.6139,-0.621,-0.6115,-0.602,-0.5813,0.0,0.0,0.0,0.0,0.0,0.0,0.0,0.0,0.0,0.0,0.0,0.0,0.0,0.0,0.0,0.0,0.0,0.0,0.0,0.0,0.0,0.0,-0.5827,-0.6539,-0.7336,-0.7587,-0.7906,-0.8206,-0.843,-0.8051,-0.7629,-0.7596,-0.6899,-0.6344,-0.6651,-0.6461,-0.6268,-0.6268,-0.7198,-0.7873,-0.7649,-0.8084,-0.858,-0.8896,0.0,0.0,-1.2648,-1.5401,-1.7341,0.0,0.0,0.0,0.0,0.0,0.0,0.0,0.0,-1.6573,-1.6286,-1.5985,-1.5832,-1.5832,-1.5925,-1.5925,-1.5832,-1.5925,-1.6109,-1.648,-1.7677,0.0,0.0,0.0,0.0,0.0,-2.2568,-2.2344,-2.2041,-2.1611,-2.1357,-2.1201,-2.0889,-2.0684,-2.0566,0.0,0.0,0.0,0.0,0.0,0.0,0.0,-1.2976,-1.387,-1.4168,-1.478,-1.5442,-1.6033,-1.6968,-1.7725,-1.8203,0.0,0.0,0.0,0.0,0.0,0.0,0.0,0.0,0.0,-0.6925,-0.6412,-0.6115,-0.6356,-0.6458,-0.6427,-0.6369,-0.6162,-0.5837,-0.5722,0.0,0.0,0.0,0.0,0.0,0.0,0.0,-0.4114,0.0,0.0,0.0,0.0,0.0,0.0,0.0,0.0,0.0,0.0,0.0,0.0,0.0,-0.5986,-0.6502,-0.6858,-0.717,-0.7346,-0.7163,-0.6824,-0.6471,-0.6227,-0.6154,-0.6215,-0.6626,-0.6981,-0.7177,-0.7177,-0.8077,-0.8759,-0.8699,-0.9109,-0.9447,-0.9419,0.0,0.0,-1.3152,0.0,0.0,0.0,0.0,0.0,0.0,0.0,0.0,0.0,0.0,-1.646,-1.6279,-1.5985,-1.5832,-1.5832,-1.5832,-1.5832,-1.5832,-1.5832,-1.5832,-1.5825,0.0,0.0,0.0,0.0,0.0,0.0,-2.21,-2.1875,-2.1592,-2.1162,-2.0986,-2.0947,-2.0664,-2.0566,-2.0566,0.0,0.0,0.0,0.0,0.0,0.0,0.0,0.0,0.0,0.0,-1.3834,-1.4314,-1.5814,-1.6381,-1.7161,0.0,0.0,0.0,0.0,0.0,0.0,0.0,0.0,0.0,0.0,-0.6171,-0.5979,-0.6278,-0.6441,-0.6593,-0.6729,-0.6597,-0.6454,-0.6295,-0.5996,0.0,0.0,0.0,0.0,0.0,0.0,0.0,0.0,0.0,0.0,0.0,0.0,0.0,0.0,0.0,0.0,0.0,0.0,0.0,0.0,0.0,0.0,0.0,0.0,-0.6403,-0.662,-0.6607,-0.64,-0.6159,-0.6013,-0.6388,0.0,-0.6802,-0.7478,-0.8071,-0.8091,-0.8997,-0.986,-1.0107,-1.0337,-1.0674,0.0,-1.1804,0.0,0.0,-1.5785,0.0,0.0,0.0,0.0,0.0,0.0,0.0,0.0,0.0,0.0,-1.6246,-1.5972,-1.5832,-1.5832,-1.5832,-1.5832,-1.5832,-1.5832,-1.5818,-1.5798,0.0,0.0,0.0,0.0,0.0,0.0,-2.1396,-2.1221,-2.1143,-2.0732,-2.0566,-2.0566,-2.0566,-2.0566,-2.0566,0.0,0.0,0.0,0.0,0.0,0.0,0.0,0.0,0.0,0.0,0.0,-1.3353,-1.4547,-1.587,0.0,0.0,0.0,0.0,0.0,0.0,0.0,0.0,0.0,0.0,0.0,-0.6455,-0.624,-0.6424,-0.68,-0.7,-0.7037,-0.7122,-0.7021,-0.6763,-0.6573,0.0,0.0,0.0,0.0,0.0,0.0,0.0,0.0,0.0,0.0,0.0,-0.5399,-0.58,0.0,0.0,0.0,0.0,0.0,0.0,0.0,0.0,-0.5416,-0.544,-0.5614,0.0,-0.5823,-0.5705,-0.5623,-0.5631,0.0,-0.5958,-0.6561,-0.721,-0.8012,-0.8697,-0.8971,-0.9771,-1.0507,-1.0773,-1.1238,-1.1556,-1.1721,0.0,0.0,-1.5384,0.0,0.0,0.0,0.0,0.0,0.0,0.0,0.0,0.0,0.0,0.0,-1.5939,-1.5865,-1.5832,-1.5832,-1.5832,-1.5832,-1.5832,-1.5832,-1.5712,-1.5498,0.0,0.0,0.0,0.0,0.0,0.0,-2.1279,-2.1035,-2.0713,-2.0605,-2.0566,-2.0566,-2.0566,-2.0566,-2.0566,0.0,0.0,0.0,0.0,0.0,0.0,0.0,0.0,0.0,0.0,0.0,0.0,0.0,0.0,0.0,0.0,0.0,0.0,0.0,0.0,0.0,0.0,0.0,0.0,-0.7547,-0.6703,-0.6366,-0.6576,-0.6892,-0.7112,-0.7248,-0.7333,-0.7248,-0.7014,-0.6725,-0.6424,0.0,0.0,0.0,0.0,-0.4633,0.0,0.0,0.0,0.0,0.0,-0.5221,-0.5599,0.0,-0.5681,-0.5606,-0.5498,0.0,0.0,0.0,0.0,-0.5428,-0.5428,-0.5428,-0.5474,-0.5569,-0.5488,-0.5467,-0.5467,-0.5467,-0.5937,-0.6505,-0.7317,-0.8247,-0.9033,-0.9569,-1.0147,-1.0725,-1.1108,-1.1592,0.0,0.0,0.0,-1.4409,-1.5485,0.0,0.0,0.0,0.0,0.0,0.0,0.0,0.0,0.0,0.0,0.0,0.0,-1.5832,-1.5832,-1.5832,-1.5832,-1.5832,-1.5832,-1.5698,-1.5618,-1.5585,0.0,0.0,0.0,0.0,0.0,-2.0193,-2.068,-2.0781,-2.0566,-2.0566,-2.0566,-2.0537,-2.0342,-2.0273,-2.0244,0.0,0.0,0.0,0.0,0.0,0.0,0.0,0.0,0.0,0.0,0.0,0.0,0.0,0.0,0.0,0.0,0.0,0.0,0.0,0.0,0.0,0.0,0.0,-0.8866,-0.8082,-0.6917,-0.6437,-0.6736,-0.6909,-0.7136,-0.7407,-0.7451,-0.7353,-0.7122,-0.6722,-0.6437,0.0,0.0,0.0,0.0,-0.476,0.0,0.0,0.0,0.0,0.0,0.0,0.0,0.0,-0.545,-0.5416,-0.5345,-0.5454,0.0,0.0,0.0,0.0,0.0,-0.5321,-0.5454,-0.5586,-0.5559,-0.5572,-0.5586,-0.5559,-0.5986,-0.6563,-0.7273,-0.8281,-0.9169,-0.9933,-1.0367,-1.0802,-1.1336,0.0,0.0,-1.4082,-1.4502,-1.4836,0.0,0.0,0.0,0.0,0.0,0.0,0.0,0.0,0.0,0.0,0.0,0.0,0.0,-1.5745,-1.5718,-1.5765,-1.5765,-1.5785,-1.5825,-1.5491,-1.5458,-1.5678,-1.5312,0.0,0.0,0.0,0.0,-1.9274,-2.0245,-2.0566,-2.0566,-2.0566,-2.0566,-2.0508,-2.0078,-1.9912,-1.9844,0.0,0.0,0.0,0.0,0.0,0.0,0.0,0.0,0.0,0.0,0.0,0.0,0.0,0.0,0.0,0.0,0.0,0.0,0.0,0.0,0.0,0.0,-1.1593,-0.9232,-0.8393,-0.7137,-0.6586,-0.6895,-0.717,-0.7394,-0.757,-0.7821,-0.7651,-0.7132,-0.6943,-0.6634,-0.6251,-0.6095,-0.6003,-0.5939,-0.5547,0.0,0.0,0.0,0.0,0.0,0.0,0.0,0.0,-0.5053,-0.5087,-0.5148,-0.5053,0.0,0.0,0.0,0.0,0.0,-0.5131,-0.5372,-0.5559,-0.543,-0.5494,-0.5555,-0.5426,-0.5834,-0.6395,-0.7029,-0.8039,-0.9041,-0.9675,-1.0394,-1.1035,-1.1369,0.0,-1.3801,0.0,0.0,0.0,0.0,0.0,0.0,0.0,0.0,0.0,0.0,0.0,0.0,0.0,0.0,0.0,0.0,0.0,-1.5217,-1.5464,-1.5464,-1.5585,-1.5818,-1.5284,-1.5057,-1.5174,-1.5675,-1.6361,0.0,0.0,0.0,-2.0401,-2.0557,-2.0566,-2.0566,-2.0566,-2.0566,-2.0508,-2.0078,-1.9912,-1.9805,0.0,0.0,0.0,0.0,0.0,0.0,0.0,0.0,0.0,0.0,0.0,0.0,0.0,0.0,0.0,0.0,0.0,0.0,0.0,0.0,0.0,-1.5779,-1.2669,-1.0513,-0.9542,-0.8226,-0.7739,-0.8072,-0.7706,-0.7941,-0.8752,-0.8058,-0.7611,-0.7251,-0.6943,-0.6647,-0.6352,-0.604,-0.5908,-0.5881,0.0,0.0,0.0,0.0,0.0,0.0,0.0,0.0,0.0,0.0,-0.4962,-0.5006,-0.4942,0.0,0.0,0.0,0.0,0.0,-0.4999,-0.5237,-0.543,-0.5277,-0.5471,-0.5667,-0.5518,-0.556,-0.5919,-0.7069,-0.7798,-0.8571,-0.9695,-1.0635,-1.153,-1.2472,0.0,-1.4001,0.0,0.0,0.0,0.0,0.0,0.0,0.0,0.0,0.0,0.0,0.0,0.0,0.0,0.0,0.0,0.0,0.0,0.0,-1.5164,-1.5003,-1.507,-1.5357,-1.493,-1.481,-1.504,-1.4988,-1.5613,0.0,0.0,-1.8709,-1.9766,-2.0323,-2.0566,-2.0566,-2.0566,-2.0566,-2.0488,-1.9814,-1.9424,-1.9141,0.0,0.0,0.0,0.0,0.0,0.0,0.0,0.0,0.0,0.0,0.0,0.0,0.0,0.0,0.0,0.0,0.0,0.0,0.0,0.0,-1.6839,-1.6108,-1.3748,-1.1987,-1.0852,-0.9555,-0.9145,-0.9556,-0.8826,-0.8977,-0.9806,-0.832,-0.7482,-0.7251,-0.6909,-0.663,-0.6393,-0.5979,-0.58,-0.5776,0.0,0.0,0.0,0.0,0.0,0.0,0.0,0.0,0.0,0.0,0.0,0.0,0.0,0.0,0.0,-0.4823,-0.4813,-0.4819,-0.4857,-0.5057,-0.523,-0.5111,-0.5393,-0.5681,-0.5606,-0.5603,-0.6,-0.7404,-0.8052,-0.8701,-0.9916,-1.0835,0.0,-1.332,-1.3761,0.0,0.0,0.0,0.0,0.0,0.0,0.0,0.0,0.0,0.0,0.0,0.0,0.0,0.0,0.0,0.0,0.0,0.0,0.0,-1.4656,-1.4496,-1.4603,-1.4963,-1.4589,-1.4576,-1.4843,-1.4322,-1.474,-1.5943,-1.6593,-1.7561,-1.8843,-1.9629,-2.0168,-2.041,-2.0303,-2.0205,-2.0029,-1.9375,-1.8867,-1.8447,0.0,0.0,0.0,0.0,0.0,0.0,0.0,0.0,0.0,0.0,0.0,0.0,0.0,0.0,0.0,0.0,0.0,0.0,0.0,0.0,-1.6891,-1.7163,-1.4835,-1.3086,-1.2207,-1.1058,-1.058,-1.0919,-1.1156,-1.0739,-0.9806,-0.832,-0.7373,-0.6959,-0.6926,-0.6675,-0.6254,-0.5935,-0.58,-0.5776,-0.5481,0.0,0.0,0.0,0.0,0.0,0.0,0.0,0.0,0.0,0.0,0.0,0.0,0.0,-0.4677,-0.4591,-0.4553,-0.458,-0.4667,-0.4826,-0.4948,-0.4938,-0.5165,-0.543,-0.5559,-0.6382,-0.7301,-0.7981,-0.9344,-1.0366,-1.0128,-1.0835,-1.1911,-1.332,-1.4102,0.0,0.0,0.0,0.0,0.0,0.0,0.0,0.0,0.0,0.0,0.0,0.0,0.0,0.0,0.0,0.0,0.0,0.0,0.0,-1.3741,-1.3988,-1.4402,-1.4957,-1.4389,-1.4269,-1.4543,-1.4229,-1.4594,-1.5365,-1.5423,-1.6407,-1.8015,-1.809,-1.8845,-1.9922,-1.9531,-1.9131,-1.8769,-1.863,-1.8418,-1.8047,0.0,0.0,0.0,0.0,0.0,0.0,0.0,0.0,0.0,0.0,0.0,0.0,0.0,0.0,0.0,0.0,0.0,0.0,0.0,0.0,-1.6185,-1.6624,-1.4518,-1.3172,-1.2864,-1.2155,-1.2158,-1.2751,-1.2003,-1.0584,-0.8568,-0.7847,-0.7316,-0.7051,-0.6868,-0.659,-0.6247,-0.6034,-0.5888,-0.5783,-0.5586,-0.5447,0.0,0.0,0.0,0.0,0.0,0.0,0.0,0.0,-0.4556,-0.4594,-0.4536,-0.456,-0.4594,-0.4536,-0.4519,-0.4529,-0.4587,-0.4728,-0.4897,-0.4802,-0.4935,-0.5148,-0.5393,-0.5776,-0.6538,-0.7933,-0.8821,-0.9752,-1.0979,0.0,-1.2131,-1.3353,0.0,0.0,0.0,0.0,0.0,0.0,0.0,0.0,0.0,0.0,0.0,0.0,0.0,0.0,0.0,0.0,0.0,0.0,0.0,0.0,0.0,-1.3487,-1.3654,-1.3874,-1.3834,-1.3774,-1.3701,-1.3594,-1.4104,-1.4982,-1.5599,-1.6674,-1.7933,-1.8535,-1.9072,-1.9512,-1.9346,-1.9189,-1.9014,-1.874,-1.8535,-1.8359,0.0,0.0,0.0,0.0,0.0,0.0,0.0,0.0,0.0,0.0,0.0,0.0,0.0,0.0,0.0,0.0,0.0,0.0,0.0,-1.6193,-1.561,-1.5963,-1.4214,-1.3253,-1.3347,-1.3071,-1.3236,-1.3791,-1.2292,-1.0491,-0.8625,-0.7731,-0.7217,-0.7061,-0.681,-0.6586,-0.638,-0.6084,-0.5898,-0.5786,-0.5593,-0.5454,0.0,0.0,0.0,0.0,0.0,0.0,0.0,0.0,-0.4519,-0.4519,-0.4519,-0.4519,-0.4519,-0.4519,-0.4519,-0.4519,-0.4519,-0.4616,-0.4752,-0.4646,-0.4731,-0.4938,-0.5284,-0.5726,-0.6487,-0.8172,-0.8986,-0.9939,-1.1473,-1.1804,0.0,0.0,0.0,0.0,0.0,0.0,0.0,0.0,0.0,0.0,0.0,0.0,0.0,0.0,0.0,0.0,0.0,0.0,0.0,0.0,0.0,0.0,0.0,-1.2832,-1.2832,-1.2652,-1.2946,-1.3126,-1.3213,-1.3213,-1.3533,-1.4183,-1.4858,-1.5855,-1.7104,-1.7769,-1.8356,-1.8896,-1.9033,-1.9004,-1.8848,-1.8545,-1.8437,-1.8398,0.0,0.0,0.0,0.0,0.0,0.0,0.0,0.0,0.0,0.0,0.0,0.0,0.0,0.0,0.0,0.0,0.0,0.0,-1.6626,-1.565,-1.5168,-1.5593,-1.4014,-1.334,-1.3627,-1.3641,-1.3788,-1.4082,-1.2068,-1.0886,-1.0361,-0.8099,-0.7061,-0.6919,-0.6766,-0.6698,-0.6654,-0.6057,-0.58,-0.5772,-0.5484,-0.5428,-0.5411,0.0,0.0,0.0,0.0,0.0,0.0,0.0,-0.4519,-0.4519,-0.4519,-0.4519,-0.4519,-0.4519,-0.4519,-0.4519,-0.4519,-0.4519,-0.4519,-0.4519,-0.4579,-0.4809,-0.5322,-0.6404,-0.7656,-0.8861,-1.0343,-1.1423,-1.1423,-1.1663,0.0,0.0,0.0,0.0,0.0,0.0,0.0,0.0,0.0,0.0,0.0,0.0,0.0,0.0,0.0,0.0,0.0,0.0,0.0,0.0,0.0,0.0,0.0,-1.2004,-1.2004,-1.143,-1.1724,-1.2331,-1.32,-1.32,-1.3026,-1.2815,-1.2815,-1.374,-1.5155,-1.5226,-1.6298,-1.8047,-1.8467,-1.8379,-1.8008,-1.8008,-1.8008,-1.8008,0.0,0.0,0.0,0.0,0.0,0.0,0.0,0.0,0.0,0.0,0.0,0.0,0.0,0.0,0.0,0.0,0.0,0.0,-1.5121,-1.4337,-1.3856,-1.3746,-1.2952,-1.2712,-1.3006,-1.3427,-1.3263,-1.2575,-1.1286,-1.0069,-0.8945,-0.7561,-0.6854,-0.661,-0.6671,-0.6464,-0.6064,-0.5989,-0.584,-0.5654,-0.5667,-0.5545,-0.5411,0.0,0.0,0.0,0.0,0.0,0.0,0.0,0.0,0.0,-0.4519,-0.4519,-0.4519,-0.4519,-0.4519,-0.4519,-0.4519,-0.4541,-0.4623,-0.4623,-0.4813,-0.5036,-0.5169,-0.5488,-0.6326,-0.8191,-0.9944,-1.1122,-1.1122,-1.1196,0.0,0.0,0.0,0.0,0.0,0.0,0.0,0.0,0.0,0.0,0.0,0.0,0.0,0.0,0.0,0.0,0.0,0.0,0.0,0.0,0.0,0.0,0.0,0.0,-1.0962,-1.1423,-1.1516,-1.181,-1.2271,-1.2271,-1.2218,-1.221,-1.3068,-1.3502,-1.369,-1.5215,-1.6508,-1.7607,-1.8037,-1.8115,-1.8008,-1.8008,-1.8008,-1.8008,0.0,0.0,0.0,0.0,0.0,0.0,0.0,0.0,0.0,0.0,0.0,0.0,0.0,0.0,0.0,0.0,0.0,0.0,0.0,0.0,-1.326,-1.2833,-1.2367,-1.2325,-1.2815,-1.322,-1.3072,-1.2296,-1.0925,-0.9814,-0.877,-0.7442,-0.6773,-0.6654,-0.6685,-0.6464,-0.6061,-0.5976,-0.5769,-0.5511,-0.5657,-0.5576,-0.5411,0.0,0.0,0.0,0.0,0.0,0.0,0.0,0.0,0.0,-0.4519,-0.4519,-0.4508,-0.4395,-0.4375,-0.4375,-0.4375,-0.4487,-0.4616,-0.4674,-0.4911,-0.5131,-0.5131,-0.5796,-0.6815,-0.8215,-0.9849,-1.0995,-1.0995,-1.0995,0.0,0.0,0.0,0.0,0.0,0.0,0.0,0.0,0.0,0.0,0.0,0.0,0.0,0.0,0.0,0.0,0.0,0.0,0.0,0.0,0.0,0.0,0.0,0.0,0.0,-1.027,-1.0599,-1.0949,-1.1356,-1.159,-1.169,-1.1774,-1.2854,-1.3209,-1.3057,-1.5045,-1.615,-1.673,-1.7261,-1.75,-1.75,-1.75,-1.75,-1.75,0.0,0.0,0.0,0.0,0.0,0.0,0.0,0.0,0.0,0.0,-1.0454,0.0,0.0,0.0,0.0,0.0,0.0,0.0,0.0,0.0,-1.3083,-1.2721,-1.2333,-1.2412,-1.2929,-1.312,-1.31,-1.2869,-1.101,-0.9848,-0.9231,-0.7504,-0.6739,-0.6841,-0.6715,-0.6552,-0.6342,-0.5918,-0.5579,-0.5335,-0.5488,-0.5457,-0.5308,-0.5165,0.0,0.0,0.0,0.0,0.0,0.0,0.0,0.0,-0.4519,-0.4519,-0.4436,-0.4304,-0.4207,-0.42,-0.421,-0.4362,-0.4556,-0.4653,-0.4961,-0.5178,-0.5209,-0.6833,-0.8322,-0.8462,0.0,-1.0902,-1.0882,0.0,0.0,0.0,0.0,0.0,0.0,0.0,0.0,0.0,0.0,0.0,0.0,0.0,0.0,0.0,0.0,0.0,0.0,0.0,0.0,0.0,0.0,0.0,0.0,0.0,0.0,0.0,-0.9324,-0.9967,-1.0564,-1.1082,-1.1376,-1.1423,-1.2311,-1.2773,-1.3063,-1.4685,-1.5396,-1.5597,-1.6383,-1.6665,-1.6665,-1.6665,-1.6665,-1.6665,0.0,0.0,0.0,0.0,0.0,0.0,0.0,0.0,0.0,0.0,0.0,0.0,0.0,0.0,0.0,0.0,0.0,0.0,0.0,0.0,-1.2216,-1.2443,-1.3469,-1.3952,-1.3788,-1.3634,-1.3407,-1.3113,-1.0827,-0.954,-0.9226,-0.7379,-0.6413,-0.6227,-0.6315,-0.6074,-0.5655,-0.5369,-0.5172,-0.5026,-0.5172,-0.5142,-0.5009,-0.4979,-0.487,0.0,0.0,0.0,0.0,0.0,0.0,0.0,-0.4519,-0.4519,-0.4512,-0.4426,-0.4334,-0.422,-0.4385,-0.4494,-0.4556,-0.4653,-0.524,-0.5879,-0.6085,-0.6872,-0.7517,-0.7567,-0.9057,-1.0234,-1.0007,0.0,0.0,0.0,0.0,0.0,0.0,0.0,0.0,0.0,0.0,0.0,0.0,0.0,0.0,0.0,0.0,0.0,0.0,0.0,0.0,0.0,0.0,0.0,-0.646,-0.7235,-0.7951,0.0,-0.9324,-0.9746,-0.9893,-1.0481,-1.0995,-1.1396,-1.1204,-1.1954,-1.334,-1.378,-1.48,-1.6036,-1.6529,-1.6665,-1.6665,-1.6665,-1.6665,-1.6665,0.0,0.0,0.0,0.0,0.0,0.0,0.0,0.0,0.0,0.0,0.0,0.0,0.0,0.0,0.0,0.0,0.0,0.0,0.0,0.0,0.0,-1.1902,-1.306,-1.3662,-1.3514,-1.3293,-1.3073,-1.2772,-1.0757,-0.9601,-0.9301,-0.7802,-0.6787,-0.6237,-0.6176,-0.5898,-0.5457,-0.5226,-0.5006,-0.4826,-0.5043,-0.5047,-0.4918,-0.4918,-0.4823,-0.467,-0.4573,0.0,0.0,0.0,0.0,0.0,0.0,0.0,-0.4501,-0.4379,-0.4307,-0.4197,-0.425,-0.4355,-0.4573,-0.4745,-0.5389,-0.5921,-0.5735,-0.6657,-0.748,-0.7191,-0.8328,-0.9313,0.0,0.0,0.0,0.0,0.0,0.0,0.0,0.0,0.0,0.0,0.0,0.0,0.0,0.0,0.0,0.0,0.0,0.0,0.0,0.0,0.0,0.0,0.0,0.0,-0.5381,-0.6063,-0.6862,-0.7666,-0.8409,-0.8996,-0.9486,-0.9933,-1.0307,-1.0575,-1.0274,-1.0702,-1.1692,-1.2101,-1.2991,-1.4136,-1.4728,-1.5185,-1.5459,-1.5723,-1.5801,-1.583,0.0,0.0,0.0,0.0,0.0,0.0,0.0,0.0,0.0,0.0,0.0,0.0,0.0,0.0,0.0,0.0,0.0,0.0,0.0,0.0,0.0,-1.1476,-1.2398,-1.292,-1.2822,-1.2768,-1.2525,-1.2225,-1.0974,-1.0082,-0.9523,-0.8273,-0.7354,-0.6616,-0.6187,-0.581,-0.5491,-0.5182,-0.4897,-0.4674,-0.4918,-0.4945,-0.484,-0.484,-0.4762,-0.4633,-0.4563,-0.4519,-0.4519,-0.4519,0.0,0.0,0.0,0.0,-0.4494,-0.4321,-0.4214,-0.4174,-0.4124,-0.4273,-0.4584,-0.4809,-0.5389,-0.5787,-0.5168,-0.6316,-0.7349,-0.6961,-0.7801,0.0,0.0,0.0,0.0,0.0,0.0,0.0,0.0,0.0,0.0,0.0,0.0,0.0,0.0,0.0,0.0,0.0,0.0,0.0,0.0,0.0,0.0,0.0,0.0,-0.4519,-0.4519,-0.5164,-0.5814,-0.6421,-0.7289,-0.8159,-0.8951,-0.9362,-0.9586,-0.9686,-0.9686,-0.9795,-0.9962,-1.0736,-1.1455,-1.2172,-1.2968,-1.3638,-1.4136,-1.4629,-1.4785,-1.4844,0.0,0.0,0.0,0.0,0.0,0.0,0.0,0.0,0.0,0.0,-1.2618,0.0,0.0,0.0,0.0,0.0,0.0,0.0,-1.202,0.0,0.0,-1.1854,-1.2949,-1.3364,-1.2815,-1.2492,-1.2218,-1.1924,-1.1451,-1.1006,-1.0553,-0.8412,-0.7393,-0.7335,-0.627,-0.5593,-0.5172,-0.4874,-0.465,-0.4553,-0.4591,-0.4594,-0.458,-0.458,-0.4567,-0.4546,-0.4525,-0.4519,-0.4519,-0.4519,-0.4519,0.0,0.0,0.0,-0.4515,-0.4494,-0.4345,-0.4217,-0.4375,-0.4488,-0.456,-0.4677,-0.5125,-0.5605,-0.5657,-0.5772,-0.5964,0.0,0.0,0.0,0.0,0.0,0.0,0.0,0.0,0.0,0.0,0.0,0.0,0.0,0.0,0.0,0.0,0.0,0.0,0.0,0.0,0.0,0.0,0.0,-0.4519,-0.4519,-0.4519,0.0,-0.4519,-0.5164,-0.5542,-0.5651,-0.7069,-0.7794,-0.7937,-0.8631,-0.9198,-0.9686,-0.9686,-1.007,-1.0793,-1.1455,-1.2236,-1.3023,-1.3692,-1.4024,-1.4136,-1.4629,-1.4785,-1.4844,0.0,0.0,0.0,0.0,0.0,0.0,0.0,0.0,0.0,0.0,0.0,-1.332,0.0,0.0,0.0,-1.3615,-1.2811,-1.1882,-1.0916,-1.1305,-1.149,-1.1196,-1.1978,-1.2213,-1.1834,-1.1476,-1.1182,-1.0889,-1.0595,-1.0647,-1.1081,-0.9521,-0.8881,-0.8946,-0.744,-0.661,-0.6264,-0.5186,-0.4602,-0.4519,-0.4519,-0.4519,-0.4519,-0.4519,-0.4519,-0.4519,-0.4519,-0.4519,-0.4519,-0.4519,-0.4519,-0.4519,-0.4519,0.0,0.0,0.0,-0.5004,-0.4839,-0.4452,-0.428,-0.425,-0.4406,-0.4923,-0.5338,-0.5135,-0.561,-0.6091,-0.5982,0.0,0.0,0.0,0.0,0.0,0.0,0.0,0.0,0.0,0.0,0.0,0.0,0.0,0.0,0.0,0.0,0.0,0.0,0.0,0.0,0.0,-0.4519,-0.4519,-0.4519,-0.4519,0.0,-0.4519,-0.4787,-0.5328,-0.6145,-0.7176,-0.7937,-0.8321,-0.8646,-0.8951,-0.9192,-0.9192,-0.9405,-0.9774,-1.0031,-1.0616,-1.1308,-1.1983,-1.2459,-1.2927,-1.3739,-1.4072,-1.4131,0.0,0.0,0.0,0.0,0.0,0.0,0.0,0.0,0.0,0.0,0.0,0.0,0.0,0.0,0.0,0.0,-1.2578,-1.1367,-1.0302,-1.0819,-1.1067,-1.0739,-1.1082,-1.1182,-1.0889,-1.0675,-1.0381,-1.0007,-0.9786,-1.0281,-1.1354,-1.0648,-1.0504,-1.0895,-0.8921,-0.7635,-0.6959,-0.572,-0.4947,-0.4572,-0.4549,-0.4519,-0.4519,-0.4519,-0.4519,-0.4519,-0.4519,-0.4519,-0.4519,-0.4519,-0.4519,-0.4515,-0.468,-0.5109,0.0,0.0,0.0,-0.5341,-0.465,-0.4292,-0.4141,-0.4127,-0.4577,-0.4899,-0.449,0.0,-0.5873,0.0,0.0,0.0,0.0,0.0,0.0,0.0,0.0,0.0,0.0,0.0,0.0,0.0,0.0,0.0,0.0,0.0,0.0,0.0,0.0,0.0,-0.4519,-0.4519,-0.4519,-0.4519,-0.4519,-0.4519,-0.4519,-0.4519,-0.5117,-0.6312,-0.7069,-0.783,-0.8533,-0.8699,-0.8804,-0.8804,-0.8804,-0.8804,-0.8804,-0.9159,-0.9614,-1.0167,-1.0973,-1.1633,-1.2175,-1.3128,-1.3506,-1.3574,0.0,0.0,0.0,0.0,0.0,0.0,0.0,0.0,0.0,0.0,0.0,0.0,-1.3496,-1.3155,-1.2832,-1.253,-1.2079,-1.1461,-1.0661,-1.1296,-1.1558,-1.1021,-1.1002,0.0,-1.0651,-1.0631,-1.0342,-0.9706,-0.9693,-1.0281,-1.1423,-1.1354,-1.1913,-1.2942,-1.0466,-0.8236,-0.6278,-0.6492,-0.5944,-0.487,-0.4579,-0.4519,-0.4519,-0.4519,-0.4519,-0.4519,-0.4519,-0.4519,-0.4519,-0.4519,-0.4519,-0.4625,-0.5273,-0.5487,-0.5651,0.0,0.0,0.0,-0.5274,-0.487,-0.4375,-0.41,-0.4141,-0.425,-0.4204,0.0,0.0,0.0,0.0,0.0,0.0,0.0,0.0,0.0,0.0,0.0,0.0,0.0,0.0,0.0,0.0,0.0,0.0,0.0,0.0,0.0,0.0,0.0,-0.4519,-0.4519,-0.4519,-0.4519,-0.4519,-0.4519,-0.4519,-0.4519,-0.4842,-0.5542,-0.6312,-0.702,-0.7777,-0.848,-0.8804,-0.8804,-0.8804,-0.8804,-0.891,-1.0167,-1.0712,-1.0872,-1.2264,-1.2832,-1.2881,-1.335,-1.3506,-1.3574,0.0,0.0,0.0,0.0,0.0,0.0,0.0,0.0,0.0,0.0,0.0,0.0,0.0,-1.2788,-1.2423,-1.2056,-1.141,-1.1023,-1.1056,-1.1057,-1.1066,-1.1214,-1.0918,-1.0488,-1.0007,-1.0,-0.9706,-0.9118,-0.9118,-0.9626,-1.0588,-1.0588,-1.0815,-1.1168,-1.0313,-0.912,-0.7816,-0.6594,-0.5572,-0.4616,-0.4563,-0.4519,-0.4519,-0.4519,-0.4519,-0.4519,-0.4519,-0.4519,-0.4519,-0.4519,-0.4519,-0.4625,-0.5269,-0.5814,-0.6367,-0.7074,-0.7122,-0.6801,-0.6157,-0.5531,-0.4979,-0.4853,-0.4434,-0.4076,-0.4174,-0.4197,0.0,0.0,0.0,0.0,0.0,0.0,0.0,0.0,0.0,0.0,0.0,0.0,0.0,0.0,0.0,0.0,0.0,0.0,0.0,0.0,0.0,0.0,-0.3735,-0.379,-0.3566,-0.3065,-0.3511,-0.4015,-0.4519,-0.4519,-0.4842,-0.5487,-0.6253,-0.6966,-0.7723,-0.848,-0.8804,-0.8804,-0.8804,-0.8804,-0.8857,-0.9309,-0.951,-0.9666,-1.1032,-1.1534,-1.1701,-1.2731,-1.3105,-1.3125,0.0,0.0,0.0,0.0,0.0,0.0,0.0,0.0,0.0,0.0,0.0,0.0,0.0,0.0,-1.2265,-1.1866,-1.1538,-1.1567,-1.1879,-1.1598,-1.1436,-1.1451,-1.0933,-1.0349,-0.9699,-0.9686,-0.9392,-0.8804,-0.8804,-0.9205,-0.9973,-0.9973,-1.008,-1.0281,-1.0084,-0.9486,-0.85,-0.7026,-0.5851,-0.5,-0.4615,-0.4549,-0.4538,-0.4538,-0.4572,-0.4609,0.0,0.0,-0.4587,-0.4536,-0.4625,-0.4948,-0.5655,-0.6524,-0.745,-0.7937,-0.7883,-0.7576,-0.6985,-0.6101,-0.5352,-0.5293,-0.4679,-0.406,-0.411,0.0,0.0,0.0,0.0,0.0,0.0,0.0,0.0,0.0,0.0,0.0,0.0,0.0,0.0,0.0,0.0,0.0,0.0,0.0,0.0,0.0,0.0,0.0,-0.2954,-0.2954,-0.2732,-0.2232,-0.2954,-0.3624,-0.4125,-0.4349,-0.4842,-0.5487,-0.6253,-0.6966,-0.7723,-0.848,-0.8804,-0.8804,-0.8804,-0.8804,-0.8804,-0.9061,-0.9263,-0.9562,-1.0712,-1.1275,-1.1642,-1.2569,-1.2881,-1.2881,0.0,0.0,0.0,0.0,0.0,0.0,0.0,0.0,0.0,-1.292,0.0,0.0,0.0,0.0,0.0,-1.1896,-1.2536,-1.3025,-1.3025,-1.294,-1.2565,-1.1896,-1.1024,-1.0329,-0.9693,-0.9679,-0.9385,-0.8804,-0.8804,-0.9098,-0.9659,-0.9659,-0.996,-1.0544,-0.9913,-0.9124,-0.817,-0.7699,-0.6868,-0.5887,-0.4918,-0.4551,-0.4684,-0.4684,-0.4775,0.0,-0.4738,-0.4684,0.0,-0.457,0.0,0.0,-0.6367,-0.7616,-0.8804,-0.8804,-0.8321,-0.7723,0.0,0.0,0.0,-0.5383,-0.4819,0.0,-0.406,0.0,0.0,0.0,0.0,0.0,0.0,0.0,0.0,0.0,0.0,0.0,0.0,0.0,0.0,0.0,0.0,0.0,0.0,0.0,0.0,0.0,0.0,-0.2174,-0.2174,-0.2174,-0.2119,-0.2174,-0.2899,-0.3287,-0.34,-0.4125,-0.4842,-0.5487,-0.6204,-0.6966,-0.767,-0.8427,-0.8758,-0.8804,-0.8804,-0.8804,-0.8857,-0.951,-1.0167,-1.0813,-1.1516,-1.2236,-1.2822,-1.2881,-1.2881,-1.2881,0.0,0.0,0.0,0.0,0.0,0.0,0.0,0.0,0.0,0.0,0.0,0.0,-1.3456,-1.3288,-1.3388,-1.3623,-1.298,-1.3082,-1.4268,-1.2173,-1.1411,-1.2626,-1.0919,-0.9853,-0.9686,-0.9472,-0.9178,-0.8804,-0.8804,-0.8891,-0.9051,0.0,-0.9138,-0.9285,-0.9118,-0.8603,-0.7825,-0.7102,-0.6099,-0.4918,-0.4605,-0.4543,0.0,0.0,0.0,0.0,0.0,-0.458,-0.4573,0.0,-0.4625,-0.5007,0.0,-0.7616,-0.8804,-0.8804,-0.8646,-0.848,-0.848,0.0,0.0,0.0,0.0,0.0,0.0,0.0,0.0,0.0,0.0,0.0,0.0,0.0,0.0,0.0,0.0,0.0,0.0,0.0,0.0,0.0,0.0,0.0,0.0,0.0,0.0,0.0,0.0,-0.1952,-0.1452,-0.0895,-0.0838,-0.1396,-0.212,-0.2788,-0.34,-0.4125,-0.457,-0.4787,-0.5492,-0.6199,-0.6912,-0.767,-0.8321,-0.8804,-0.8804,-0.8804,-0.8857,-0.951,-0.9614,-0.951,-1.1166,-1.1616,-1.1484,-1.252,-1.2881,-1.2881,0.0,0.0,0.0,0.0,0.0,0.0,0.0,0.0,0.0,0.0,0.0,0.0,-1.3848,-1.3653,-1.3753,-1.4213,-1.304,-1.2836,-1.4176,-1.2081,-1.1333,-1.2443,-1.0945,-0.9933,-0.9686,-0.9512,-0.9218,-0.8804,-0.8804,0.0,0.0,0.0,-0.8804,-0.8804,-0.8804,-0.8374,-0.767,-0.6912,-0.5932,0.0,-0.4625,0.0,0.0,-0.4558,-0.4599,0.0,0.0,0.0,-0.4633,-0.4563,-0.4901,0.0,0.0,-0.7883,-0.8752,-0.8427,-0.854,-0.8646,-0.8043,-0.7777,-0.7616,-0.7343,0.0,0.0,-0.54,-0.5473,0.0,0.0,0.0,0.0,0.0,0.0,0.0,0.0,0.0,0.0,0.0,0.0,0.0,0.0,0.0,0.0,0.0,0.0,0.0,0.0,-0.2343,-0.1396,-0.0671,-0.0224,-0.0224,-0.0615,-0.1341,-0.212,-0.2899,-0.3624,-0.4181,-0.4519,-0.5164,-0.5873,-0.6642,-0.7343,-0.8103,-0.8804,-0.8804,-0.8804,-0.8857,-0.951,-0.9562,-0.9309,-1.0517,-1.1065,-1.1316,-1.2138,-1.2618,-1.2881,0.0,0.0,0.0,0.0,0.0,0.0,0.0,0.0,0.0,0.0,-1.4579,-1.4037,-1.4247,-1.3873,-1.3784,-1.4221,-1.3068,-1.2634,-1.3404,-1.2313,-1.1673,-1.1764,-1.0982,-1.0282,-0.9693,-0.9653,-0.9359,0.0,0.0,0.0,0.0,0.0,0.0,0.0,0.0,0.0,-0.7509,-0.6804,0.0,-0.5324,-0.4732,-0.4545,0.0,0.0,-0.4752,-0.485,-0.4714,-0.4752,-0.4826,-0.4555,-0.5445,0.0,0.0,0.0,0.0,0.0,-0.8103,-0.8262,-0.6966,-0.7074,-0.7402,-0.675,0.0,0.0,-0.5485,-0.582,-0.6082,0.0,0.0,0.0,0.0,0.0,0.0,0.0,0.0,0.0,0.0,0.0,0.0,0.0,0.0,0.0,0.0,0.0,-0.3345,-0.34,-0.1953,-0.0839,-0.0168,-0.0056,0.0,0.0,-0.0783,-0.1563,-0.2174,-0.301,-0.379,-0.4519,-0.5109,-0.5764,-0.648,-0.7235,-0.799,-0.8699,-0.8752,-0.8804,-0.8857,-0.9465,-0.9666,-0.9718,-0.9865,-1.0669,-1.1715,-1.1765,-1.2295,-1.2881,0.0,0.0,0.0,0.0,0.0,0.0,0.0,0.0,0.0,-1.5404,-1.4513,-1.4255,-1.5199,-1.4714,-1.4547,-1.5265,-1.3776,-1.3068,-1.3917,-1.1737,-1.084,-1.1757,-1.0569,-0.98,-0.9686,-0.9452,-0.9152,0.0,0.0,0.0,0.0,0.0,0.0,-0.8752,-0.8156,-0.7503,-0.675,0.0,0.0,-0.4677,-0.457,0.0,-0.4563,-0.4563,-0.458,-0.4548,-0.4573,-0.458,-0.4545,-0.4536,-0.5445,-0.6642,0.0,0.0,0.0,-0.7723,0.0,0.0,-0.6696,-0.6696,0.0,0.0,0.0,0.0,-0.6478,-0.6722,-0.7053,0.0,0.0,0.0,0.0,0.0,0.0,0.0,0.0,0.0,0.0,0.0,0.0,0.0,0.0,0.0,0.0,0.0,-0.3345,-0.34,-0.1953,-0.1062,-0.0895,-0.0336,0.0,0.0,-0.1284,-0.2063,-0.2174,-0.3566,-0.4349,-0.4519,-0.4625,-0.5058,-0.576,-0.6475,-0.7235,-0.7937,-0.8533,-0.8804,-0.8804,-0.8962,-0.9008,-0.9113,-1.0167,-1.0762,-1.1065,-1.1616,-1.2295,-1.2881,0.0,0.0,0.0,0.0,0.0,0.0,0.0,0.0,-1.7002,-1.6919,-1.6908,-1.651,-1.5499,-1.5867,-1.6154,-1.6065,-1.429,-1.3218,-1.351,-1.1646,-1.0737,-1.1163,-1.0513,-0.9987,-0.9693,-0.9539,-0.9245,0.0,0.0,0.0,0.0,0.0,0.0,-0.8597,-0.7988,-0.7435,-0.6907,0.0,-0.5328,-0.4948,-0.4625,0.0,-0.4519,-0.4519,-0.4519,-0.4519,-0.4519,-0.4519,-0.4529,-0.4551,-0.5242,0.0,0.0,-0.6578,-0.7074,0.0,-0.6578,-0.6426,0.0,0.0,0.0,-0.6145,0.0,0.0,0.0,-0.7224,-0.7716,0.0,0.0,0.0,0.0,0.0,0.0,0.0,0.0,0.0,0.0,0.0,0.0,0.0,0.0,0.0,0.0,0.0,-0.4113,-0.3456,-0.2676,-0.2063,-0.1675,-0.095,-0.056,-0.056,-0.1284,-0.184,-0.2174,-0.3345,-0.4125,-0.4519,-0.4519,-0.4838,-0.5542,-0.6258,-0.702,-0.7723,-0.848,-0.8804,-0.8798,-0.8947,-0.8987,-0.9103,-0.9951,-1.0517,-1.0864,-1.1525,-1.2255,-1.2881,-1.4148,-1.5147,0.0,0.0,0.0,0.0,0.0,0.0,-1.7254,-1.7786,-1.8604,-1.8156,-1.5668,-1.6504,-1.7037,-1.6471,-1.4237,-1.2836,-1.2763,-1.1574,-1.0722,-1.0488,-1.0598,-1.0322,-0.9613,-0.9653,-0.9392,0.0,0.0,0.0,0.0,0.0,0.0,-0.8464,-0.7739,-0.7349,-0.7058,-0.5819,0.0,-0.5273,0.0,-0.4519,-0.4519,-0.4519,-0.4519,-0.4519,-0.4519,-0.4519,-0.4536,-0.4606,-0.5061,-0.5487,-0.5487,-0.5928,0.0,0.0,0.0,0.0,0.0,0.0,0.0,0.0,0.0,-0.7505,0.0,0.0,0.0,0.0,0.0,0.0,0.0,0.0,0.0,0.0,0.0,0.0,0.0,0.0,0.0,0.0,0.0,0.0,0.0,0.0,-0.4831,-0.3677,-0.34,-0.3065,-0.2454,-0.173,-0.1284,-0.1284,-0.1452,-0.1842,-0.2397,-0.3231,-0.3901,-0.4519,-0.4519,-0.4787,-0.5324,-0.6204,-0.6912,-0.7557,-0.8427,-0.8778,-0.8756,-0.8955,-0.9011,-0.9031,-0.964,-1.0269,-1.0972,-1.1566,-1.2264,-1.2881,-1.4222,-1.4902,0.0,0.0,0.0,0.0,0.0,0.0,-1.5546,-1.5163,-1.58,-1.6186,-1.6079,-1.5308,-1.5065,-1.5728,-1.3014,-1.1608,-1.2297,-1.1021,-1.02,-1.0167,-1.0421,-1.016,-0.9256,-0.9552,-0.9392,-0.8804,0.0,0.0,0.0,0.0,0.0,0.0,-0.7206,-0.6597,-0.6592,0.0,-0.4449,0.0,-0.4515,-0.4519,0.0,-0.4519,-0.4519,-0.4519,-0.4519,-0.4519,-0.4522,0.0,-0.4963,-0.5487,0.0,-0.5542,-0.5597,-0.5542,0.0,0.0,0.0,0.0,0.0,0.0,-0.6632,0.0,0.0,0.0,0.0,0.0,0.0,0.0,0.0,0.0,0.0,0.0,0.0,0.0,0.0,0.0,0.0,0.0,0.0,0.0,0.0,0.0,0.0,-0.4405,-0.3735,-0.3287,-0.3176,-0.2452,-0.2063,-0.2063,-0.273,-0.3121,-0.3289,-0.4012,-0.4405,-0.4519,-0.4519,-0.4519,-0.468,-0.5987,-0.6642,-0.6804,-0.8209,-0.8664,-0.8474,-0.8484,-0.8315,-0.8194,-0.9585,-1.0536,-1.1202,-1.1639,-1.2246,-1.2881,-1.4711,-1.5369,-1.572,0.0,0.0,0.0,0.0,0.0,-1.5438,-1.4063,-1.602,-1.715,-1.6405,-1.6446,-1.6748,-1.7129,-1.466,-1.3063,0.0,0.0,-1.1056,-1.0882,-1.0835,-1.0555,-1.002,-0.9793,-0.9479,-0.9004,-0.8891,0.0,0.0,0.0,0.0,0.0,-0.7593,0.0,-0.6283,0.0,-0.4779,0.0,0.0,0.0,0.0,-0.4519,-0.4519,-0.4519,-0.4519,-0.4519,-0.4519,0.0,-0.4677,0.0,0.0,0.0,0.0,0.0,0.0,0.0,0.0,0.0,0.0,0.0,0.0,0.0,-0.7723,0.0,-0.8657,0.0,0.0,0.0,0.0,0.0,0.0,0.0,0.0,0.0,0.0,0.0,0.0,0.0,0.0,0.0,0.0,0.0,0.0,0.0,0.0,-0.4012,-0.4012,-0.3234,-0.2843,-0.2899,-0.3176,-0.3289,-0.3345,-0.4125,-0.4519,-0.4519,-0.4519,-0.468,-0.5113,-0.615,-0.6732,-0.7084,-0.8133,-0.839,-0.8103,-0.8301,-0.824,-0.8218,-0.9292,-1.0098,-1.0854,-1.2048,-1.2618,-1.2881,-1.5148,-1.5664,-1.5699,-1.5135,0.0,0.0,0.0,0.0,0.0,-1.4447,-1.7006,-1.8674,-1.7652,-1.7717,-1.818,-1.8895,-1.5968,-1.4121,0.0,0.0,-1.151,0.0,0.0,0.0,-1.0214,-0.994,-0.9619,-0.9183,0.0,0.0,0.0,0.0,0.0,0.0,0.0,-0.6965,-0.6238,0.0,-0.4907,-0.4519,-0.4519,-0.4519,-0.4519,-0.4519,-0.4519,-0.4519,-0.4519,-0.4519,-0.4519,-0.4519,-0.4519,0.0,-0.4519,0.0,0.0,0.0,0.0,0.0,-0.5324,0.0,0.0,0.0,0.0,0.0,0.0,0.0,0.0,0.0,0.0,0.0,0.0,0.0,0.0,-0.7948,0.0,0.0,0.0,0.0,0.0,0.0,0.0,0.0,0.0,0.0,0.0,0.0,-0.447,0.0,-0.4406,-0.3938,-0.3732,-0.395,-0.3732,-0.3732,-0.3892,-0.4291,-0.4519,-0.4519,-0.4519,-0.4838,-0.5542,-0.6258,-0.6839,-0.7341,-0.8068,-0.8156,-0.7782,-0.8006,-0.8041,-0.8055,-0.8955,-0.9614,-1.028,-1.1892,-1.2667,-1.2881,-1.5322,-1.542,-1.543,-1.5371,0.0,0.0,0.0,0.0,0.0,0.0,0.0,0.0,0.0,0.0,0.0,0.0,0.0,-1.3474,-1.4896,0.0,-1.0935,0.0,0.0,-1.0677,0.0,0.0,-0.982,0.0,0.0,0.0,0.0,0.0,0.0,0.0,-0.7137,-0.6487,-0.6509,-0.4892,-0.4334,-0.4519,-0.4519,-0.4519,-0.4519,0.0,-0.4519,-0.4519,-0.4519,0.0,0.0,-0.4519,-0.4519,0.0,0.0,0.0,0.0,0.0,0.0,0.0,0.0,0.0,0.0,-0.7503,0.0,0.0,0.0,0.0,-0.8804,0.0,0.0,0.0,0.0,0.0,-0.8604,-0.7975,-0.8643,0.0,0.0,0.0,0.0,0.0,0.0,0.0,0.0,0.0,0.0,0.0,-0.43,0.0,-0.421,-0.4385,-0.4787,-0.5433,-0.4783,-0.4787,-0.5429,-0.4787,-0.4519,-0.4519,-0.4519,-0.4838,-0.5542,-0.6258,-0.6839,-0.7341,-0.8068,-0.8084,-0.7527,-0.7513,-0.7338,-0.7188,-0.8723,-0.9306,-0.9501,-1.0921,-1.2054,-1.2881,-1.5264,-1.5644,-1.5444,-1.4079,-1.4264,0.0,0.0,-1.5189,0.0,0.0,-1.8087,0.0,0.0,-1.9632,-1.9227,0.0,0.0,-1.4914,-1.4433,-1.3274,0.0,0.0,0.0,-1.159,0.0,0.0,0.0,0.0,0.0,0.0,0.0,0.0,0.0,0.0,0.0,-0.6999,0.0,0.0,0.0,0.0,0.0,-0.4519,-0.4519,0.0,0.0,-0.4519,-0.4519,-0.4519,0.0,-0.4519,-0.4519,-0.4519,-0.4519,-0.4519,-0.4519,-0.4519,-0.4519,0.0,0.0,0.0,-0.6912,-0.8103,0.0,0.0,0.0,0.0,0.0,0.0,0.0,0.0,0.0,-0.8804,-0.8611,-0.7975,-0.8743,-0.9233,0.0,0.0,0.0,0.0,0.0,0.0,0.0,0.0,0.0,-0.4026,-0.4114,-0.4192,0.0,-0.4241,-0.4469,-0.4838,-0.4625,-0.4625,-0.4842,-0.4625,-0.4519,-0.4519,-0.4519,-0.5117,-0.6253,-0.6317,-0.6855,-0.7717,-0.7768,-0.7542,-0.7174,-0.7174,-0.7114,-0.7034,-0.7588,-0.8396,-0.9486,-1.0971,-1.1924,-1.249,-1.5546,-1.5742,-1.5482,0.0,0.0,0.0,0.0,0.0,0.0,0.0,-1.8461,0.0,-2.096,0.0,-2.0146,0.0,-1.7779,-1.6004,-1.4846,-1.3865,0.0,-1.2031,-1.2191,-1.1877,0.0,0.0,0.0,0.0,0.0,-0.9198,0.0,-0.8804,-0.8804,-0.8752,0.0,-0.7026,-0.6473,-0.5521,-0.4863,0.0,0.0,-0.4519,0.0,0.0,-0.4519,0.0,0.0,-0.4519,-0.4519,-0.4519,-0.4519,-0.4519,-0.4519,-0.4519,-0.4519,-0.4519,-0.4519,-0.4791,-0.6209,-0.6588,0.0,0.0,-0.8804,0.0,-0.8804,0.0,0.0,0.0,0.0,0.0,0.0,0.0,-0.8541,-0.8235,-0.8829,-0.9393,0.0,-0.9598,0.0,0.0,0.0,0.0,0.0,0.0,-0.4111,-0.3951,-0.4039,-0.4093,0.0,0.0,-0.468,-0.4835,-0.4838,-0.4838,-0.4838,-0.4625,-0.4519,-0.4519,-0.4519,-0.519,-0.6458,-0.6256,-0.6778,-0.7756,-0.7594,-0.7295,-0.6979,-0.6979,-0.6979,-0.7021,-0.7231,-0.8067,-0.9232,-1.0342,-1.1293,-1.2051,-1.6016,-1.5791,0.0,0.0,-1.6412,0.0,0.0,0.0,-1.8315,0.0,-1.9578,-2.0622,-2.2281,-2.1435,-2.0851,-2.1025,-1.8426,-1.647,-1.5839,-1.4447,0.0,0.0,-1.2011,-1.1637,-1.0214,0.0,0.0,0.0,0.0,0.0,-0.8831,-0.8758,-0.8752,-0.8699,-0.7182,0.0,-0.6267,-0.5035,-0.4372,-0.4207,-0.4406,-0.4519,-0.4519,-0.4519,0.0,-0.4519,-0.4519,-0.4519,-0.4519,-0.4519,-0.4519,-0.4519,-0.4519,-0.4519,-0.4519,-0.4519,-0.4519,-0.4791,-0.6209,-0.6588,-0.6966,-0.8427,0.0,0.0,0.0,0.0,-0.8804,0.0,0.0,0.0,0.0,0.0,0.0,-0.8641,-0.8941,-0.9529,-1.0772,0.0,0.0,0.0,0.0,0.0,0.0,-0.4999,-0.4299,-0.3816,-0.4063,-0.4184,0.0,0.0,0.0,-0.5479,-0.5487,-0.5487,-0.5487,-0.4897,-0.4515,-0.4519,-0.4519,-0.5077,-0.6186,-0.6176,-0.6678,-0.7513,-0.7493,-0.7281,-0.6979,-0.6979,-0.6979,-0.7063,-0.7663,-0.8234,-0.8806,-0.9199,-1.029,-1.1606,-1.6533,-1.6982,-1.71,0.0,-1.6048,-1.6138,0.0,0.0,0.0,0.0,-1.9994,-2.0359,-2.1207,-2.1071,-2.0105,-1.8161,-1.7062,0.0,0.0,0.0,0.0,-1.2445,-1.2338,-1.1924,-1.1102,-1.1022,-1.0742,-1.0221,0.0,0.0,-0.907,-0.8356,-0.799,-0.7937,0.0,-0.5708,-0.5535,-0.465,-0.4231,-0.4207,-0.4406,-0.4519,0.0,0.0,-0.4519,-0.4519,-0.4519,-0.4519,-0.4519,-0.4519,-0.4519,-0.4519,-0.4519,-0.4519,-0.4519,-0.4519,-0.4519,-0.4791,-0.6209,-0.6588,-0.6966,-0.8427,-0.8804,-0.8804,0.0,0.0,0.0,0.0,0.0,0.0,0.0,0.0,0.0,-0.8502,-0.9065,-1.0002,-1.1257,0.0,0.0,-1.026,0.0,0.0,0.0,-0.522,-0.4348,-0.3694,-0.391,0.0,0.0,0.0,0.0,-0.5479,-0.5487,-0.5487,-0.5487,-0.5324,-0.5003,-0.4519,-0.4519,-0.5077,-0.6181,-0.5972,-0.6468,-0.75,-0.7235,-0.7094,-0.6979,-0.6979,-0.6979,-0.7063,-0.7663,-0.848,-0.9404,-1.021,-1.0567,-1.0753,-1.6699,-1.7159,0.0,-1.6399,0.0,0.0,-1.6627,0.0,0.0,-1.8583,-1.8657,0.0,-1.9825,-1.9852,-1.8997,-1.6741,-1.6322,0.0,-1.4226,0.0,0.0,-1.2579,-1.2271,-1.1717,-1.0875,-1.0822,0.0,-0.9793,0.0,0.0,-0.8543,-0.7955,-0.7509,-0.7182,0.0,-0.5441,-0.5276,-0.4505,-0.4231,-0.4348,-0.4429,0.0,0.0,-0.3956,-0.379,-0.3511,-0.3846,-0.4012,-0.407,-0.4405,-0.4294,-0.407,-0.4405,-0.4519,-0.4519,-0.4519,-0.4519,-0.4791,-0.6209,-0.6588,-0.6966,-0.8427,-0.8804,-0.8804,-0.8804,-0.8804,-0.8804,0.0,0.0,0.0,0.0,0.0,0.0,-0.856,-0.9416,-1.039,0.0,0.0,0.0,0.0,-0.9595,0.0,0.0,0.0,-0.4618,0.0,0.0,0.0,0.0,0.0,0.0,0.0,-0.5283,-0.5378,-0.5058,-0.5058,-0.5003,-0.4948,-0.4948,-0.5456,-0.6441,-0.6309,-0.6632,-0.7261,-0.7094,-0.6979,-0.6979,-0.6979,-0.7147,-0.7489,-0.8267,-0.8958,-0.9585,-1.0337,-1.0488,-1.042,-1.6703,0.0,0.0,0.0,0.0,0.0,0.0,-1.6629,0.0,-1.6893,0.0,-1.7224,-1.8177,-1.83,-1.7616,-1.6085,0.0,-1.4953,-1.3622,-1.3253,-1.2839,-1.2271,-1.1891,-1.1223,-1.02,-1.0354,-0.9947,0.0,0.0,0.0,-0.7609,0.0,0.0,0.0,0.0,0.0,0.0,-0.4453,-0.4321,-0.4491,-0.4512,-0.4015,-0.3287,-0.3287,-0.2843,-0.2286,-0.2954,-0.3289,-0.3511,-0.4239,-0.407,-0.368,-0.4294,-0.4519,-0.4519,-0.4519,-0.4519,-0.4783,-0.6171,-0.6543,-0.6913,-0.8325,-0.8665,-0.8587,-0.8587,-0.856,-0.8533,-0.8533,-0.8533,0.0,0.0,0.0,0.0,-0.8783,0.0,0.0,0.0,0.0,0.0,0.0,0.0,0.0,0.0,0.0,0.0,0.0,0.0,0.0,0.0,0.0,0.0,0.0,-0.5077,0.0,-0.4625,0.0,-0.4897,-0.5378,-0.5433,-0.5934,-0.6735,-0.6832,-0.6933,-0.7081,-0.7081,-0.7096,-0.7105,-0.7105,-0.7489,-0.8118,-0.9039,-0.9439,-0.9558,-1.0,-1.0244,-1.0332,-1.7012,0.0,0.0,0.0,0.0,-1.6912,-1.536,-1.5655,-1.6223,-1.6718,-1.6996,-1.7039,-1.6753,-1.653,-1.5741,-1.4221,-1.3844,0.0,0.0,0.0,0.0,-1.1957,-1.127,-1.0759,-1.0551,-1.006,-0.9441,0.0,0.0,0.0,-0.7196,-0.6275,0.0,0.0,0.0,0.0,-0.4404,-0.425,0.0,-0.4244,-0.4412,-0.407,-0.34,-0.34,-0.2899,-0.2232,-0.2343,-0.2843,-0.3511,-0.4239,-0.4405,-0.4349,-0.446,-0.4519,-0.4519,-0.4519,-0.4519,-0.4761,-0.593,-0.6251,-0.657,-0.7739,-0.781,-0.7566,-0.7566,-0.7256,-0.6966,-0.6966,-0.6966,-0.7182,-0.7777,0.0,0.0,0.0,0.0,0.0,0.0,0.0,0.0,0.0,0.0,0.0,0.0,0.0,0.0,0.0,0.0,0.0,0.0,0.0,0.0,0.0,0.0,0.0,0.0,0.0,0.0,-0.468,-0.5218,-0.5797,-0.6334,-0.6957,-0.7272,-0.7432,-0.7432,-0.7558,-0.7746,-0.7746,-0.807,-0.8602,-0.8756,-0.9119,-0.9518,-0.9597,-0.9922,-1.0293,-1.6246,0.0,0.0,0.0,0.0,0.0,0.0,-1.5315,0.0,-1.5821,-1.5673,-1.5446,-1.5234,-1.492,-1.43,-1.3292,-1.2913,-1.2545,-1.2091,-1.1924,-1.1717,-1.143,-1.0934,0.0,-1.0114,-0.9679,-0.9034,-0.8149,0.0,0.0,-0.6235,-0.5749,0.0,-0.4948,0.0,-0.3978,0.0,0.0,0.0,-0.3764,-0.3822,-0.3456,-0.2732,-0.2343,-0.173,-0.1118,-0.1507,-0.1898,-0.2399,-0.3511,-0.3622,-0.3456,-0.4239,-0.4519,-0.4519,-0.4519,-0.4409,-0.4545,-0.5501,-0.5705,-0.5848,-0.6778,-0.689,-0.6734,-0.6734,-0.6611,-0.6518,-0.6518,-0.6881,-0.7396,-0.8156,-0.7943,0.0,0.0,0.0,0.0,0.0,0.0,0.0,0.0,0.0,0.0,0.0,0.0,0.0,0.0,0.0,0.0,0.0,0.0,0.0,0.0,0.0,0.0,0.0,0.0,0.0,-0.5003,-0.5324,-0.5926,-0.6764,-0.7132,-0.7352,-0.7513,-0.7513,-0.7476,-0.7489,-0.807,-0.8635,-0.9159,-0.9439,-0.9686,-0.9894,-0.9639,-0.9849,-1.0283,0.0,-1.5109,0.0,0.0,-1.477,0.0,-1.4877,-1.5064,-1.5124,-1.4903,-1.4409,-1.4062,-1.4001,-1.3667,-1.324,-1.2775,-1.2378,-1.1886,-1.1096,-1.1141,-1.1042,-1.0549,-1.0398,-1.006,-0.9599,-0.9299,-0.8591,0.0,0.0,0.0,0.0,-0.5269,0.0,0.0,0.0,0.0,0.0,0.0,-0.3622,-0.3065,-0.3065,-0.2619,-0.1898,-0.134,-0.0615,-0.0056,-0.0671,-0.095,-0.1284,-0.2619,-0.2788,-0.2676,-0.407,-0.4519,-0.4519,-0.4519,-0.4362,-0.4344,-0.5027,-0.5131,-0.5167,-0.5839,-0.5954,-0.5894,-0.5894,-0.5907,-0.5944,-0.5944,-0.6639,-0.7391,-0.799,-0.7289,0.0,0.0,0.0,0.0,0.0,0.0,0.0,0.0,0.0,0.0,0.0,0.0,0.0,0.0,0.0,0.0,0.0,0.0,0.0,0.0,0.0,0.0,-0.4519,0.0,-0.4787,0.0,-0.5597,-0.6221,-0.7166,-0.7475,-0.7585,-0.7569,-0.7569,-0.745,-0.7273,-0.8423,-0.9039,-0.9399,-0.9922,-1.0127,-1.0079,-0.9705,-0.9867,-1.0283,0.0,0.0,0.0,0.0,0.0,0.0,0.0,-1.4583,-1.4596,-1.4563,-1.4289,-1.3981,-1.3714,-1.3173,-1.2699,-1.2371,-1.2078,-1.1377,-0.9922,-1.0393,-1.0179,-0.9063,-0.924,-0.9283,-0.923,-0.8998,-0.8127,0.0,0.0,0.0,0.0,0.0,0.0,0.0,0.0,0.0,0.0,-0.2343,-0.2397,-0.2286,-0.2286,-0.1842,-0.1174,-0.1118,-0.0615,0.0,-0.0056,-0.056,-0.1229,-0.2009,-0.2732,-0.3456,-0.4236,-0.4519,-0.4519,-0.4519,-0.4362,-0.432,-0.4777,-0.4843,-0.4844,-0.5287,-0.5115,-0.4836,-0.4836,-0.463,-0.44,-0.44,-0.5103,-0.5706,-0.581,-0.6253,-0.6642,0.0,0.0,0.0,0.0,0.0,0.0,-0.8798,0.0,0.0,0.0,0.0,0.0,0.0,0.0,0.0,0.0,0.0,0.0,0.0,0.0,-0.4519,-0.4519,-0.4519,0.0,-0.4625,-0.5878,-0.6573,-0.672,-0.8066,-0.8393,-0.7842,-0.7842,-0.7833,-0.7912,-0.8999,-0.9159,-0.8837,-0.9359,-0.9558,-0.9558,-0.9521,-0.9845,-1.0283,0.0,0.0,0.0,0.0,0.0,0.0,0.0,-1.4522,-1.4389,-1.4041,-1.3895,-1.3707,-1.3414,-1.2446,-1.1714,-1.1272,-1.0474,-0.9548,-0.857,-0.8697,-0.8589,-0.804,-0.8414,-0.8621,-0.8621,-0.8292,-0.7616,0.0,0.0,0.0,0.0,0.0,0.0,0.0,0.0,-0.173,-0.095,-0.184,-0.1952,-0.1563,-0.1563,-0.1341,-0.1062,-0.0615,-0.028,-0.0056,-0.0504,-0.0838,-0.1284,-0.2454,-0.3121,-0.3511,-0.4294,-0.4519,-0.4501,-0.4358,-0.4229,-0.4127,-0.4211,-0.4144,-0.4096,-0.4248,-0.4151,-0.4025,-0.4025,-0.4038,-0.406,-0.406,-0.4506,-0.5167,-0.5982,-0.5714,-0.5496,0.0,0.0,0.0,0.0,0.0,0.0,0.0,0.0,-0.8646,0.0,0.0,0.0,0.0,0.0,0.0,0.0,0.0,0.0,-0.3506,0.0,-0.4015,-0.4519,-0.4519,-0.4519,-0.4519,-0.5062,-0.5769,-0.6642,-0.7235,-0.7653,-0.7862,-0.7497,-0.776,-0.8398,-0.8837,-0.9279,-0.9677,-0.9883,-0.9961,-0.9933,-0.9677,-0.9858,-1.0321,-1.4528,0.0,-1.4175,0.0,-1.4449,-1.4396,-1.4396,-1.4117,-1.3651,-1.3091,-1.2757,-1.2575,-1.2627,-1.1402,-1.0409,-1.0056,-0.9076,-0.8203,-0.7346,-0.7496,-0.7486,-0.7331,-0.779,0.0,-0.8055,-0.7817,-0.7235,-0.6258,-0.5035,0.0,0.0,0.0,0.0,0.0,-0.1396,-0.095,-0.0056,-0.1118,-0.1229,-0.0783,-0.0783,-0.0783,-0.0727,-0.0224,0.0,-0.0112,-0.0838,-0.1229,-0.1619,-0.2899,-0.3511,-0.379,-0.4349,-0.4519,-0.4433,-0.4237,-0.4086,-0.3985,-0.3832,-0.3687,-0.3581,-0.3581,-0.3581,-0.3581,-0.3581,-0.3809,-0.4043,-0.4131,-0.4317,-0.4791,-0.5823,-0.5171,-0.468,0.0,0.0,0.0,0.0,0.0,0.0,0.0,-0.8804,-0.8533,-0.7777,0.0,0.0,0.0,0.0,0.0,0.0,0.0,0.0,0.0,0.0,0.0,0.0,0.0,-0.4787,-0.4787,-0.5222,-0.5987,-0.6907,-0.6981,-0.7392,-0.8023,-0.7321,-0.7531,-0.8367,-0.8594,-0.9159,-0.9883,-1.0166,-1.0283,-1.0244,-0.9941,-1.0085,-1.0494,-1.4622,-1.4282,-1.4175,-1.4469,-1.4282,-1.4088,-1.4088,-1.3118,-1.2152,-1.1813,-1.0681,-1.0263,-1.1146,-0.9985,-0.9021,-0.8649,-0.849,-0.7839,-0.6472,-0.6992,-0.7198,0.0,0.0,-0.7723,-0.7723,-0.7723,-0.6956,-0.5487,0.0,0.0,-0.34,0.0,0.0,-0.1062,-0.0336,0.0,0.0,0.0,0.0,0.0,0.0,0.0,0.0,0.0,0.0,-0.0112,-0.0838,-0.1563,-0.2286,-0.3065,-0.3846,-0.4463,-0.4519,-0.4519,-0.4433,-0.4237,-0.4086,-0.3985,-0.3832,-0.3687,-0.3581,-0.3581,-0.3581,-0.3581,-0.3581,-0.3809,-0.4104,-0.445,-0.4515,-0.4519,-0.4515,-0.4519,-0.4519,-0.4519,0.0,0.0,0.0,0.0,0.0,0.0,-0.8804,-0.8533,-0.7777,0.0,0.0,0.0,0.0,0.0,0.0,0.0,0.0,-0.334,-0.3342,0.0,-0.4519,-0.5164,-0.5483,-0.5487,-0.6956,-0.767,-0.7706,-0.7802,-0.8048,-0.8317,-0.7415,-0.7188,-0.7568,-0.8367,-0.8724,-0.8837,-0.9883,-1.0283,-1.0283,-1.0273,-1.0611,-1.0971,-1.3886,-1.3554,-1.3514,-1.3614,-1.3029,-1.2582,-1.2582,-1.1729,-1.0856,-1.0552,-0.9497,-0.8723,-0.868,-0.8305,-0.7925,0.0,-0.6982,-0.614,0.0,-0.5544,-0.5561,-0.5266,-0.585,-0.6195,-0.6195,-0.6195,-0.5697,-0.4758,0.0,0.0,0.0,-0.1118,-0.0838,-0.0336,-0.0112,0.0,0.0,0.0,0.0,0.0,0.0,0.0,0.0,0.0,0.0,-0.0112,-0.0838,-0.1563,-0.2341,-0.3121,-0.3846,-0.4519,-0.4519,-0.4519,-0.447,-0.4165,-0.4009,-0.3965,-0.3717,-0.3612,-0.3581,-0.3581,-0.3581,-0.3605,-0.37,-0.3958,-0.4229,-0.4423,-0.4519,-0.4519,-0.4519,-0.407,-0.368,-0.368,0.0,0.0,0.0,0.0,0.0,0.0,-0.7289,-0.7015,0.0,-0.5303,0.0,0.0,0.0,0.0,0.0,0.0,0.0,0.0,-0.2565,0.0,-0.4463,-0.4736,-0.5058,-0.5487,-0.5977,-0.674,-0.7706,-0.7845,-0.8096,-0.8323,-0.7415,-0.7403,-0.8063,-0.8534,-0.8918,-0.9319,-1.0,-1.0283,-1.0283,-1.0283,-1.039,-1.0621,-1.2258,-1.1988,-1.1952,-1.2049,-1.1543,-1.112,-1.1215,-1.0316,-0.9577,-0.9285,-0.828,-0.7368,-0.6947,-0.6923,0.0,-0.6639,-0.5996,-0.5338,-0.4945,-0.4918,-0.4897,-0.4857,-0.5273,-0.5487,-0.5487,0.0,0.0,-0.3993,-0.2504,-0.1174,0.0,-0.0448,-0.0448,0.0,0.0,0.0,0.0,0.0,0.0,0.0,0.0,0.0,0.0,0.0,0.0,-0.0112,-0.0838,-0.1396,-0.1898,-0.2676,-0.3456,-0.407,-0.407,-0.4204,-0.4334,-0.409,-0.4019,-0.3955,-0.3659,-0.3581,-0.3592,-0.3646,-0.3659,-0.371,-0.3917,-0.406,-0.4237,-0.4433,-0.4519,-0.4405,-0.4125,-0.368,-0.3234,-0.2954,0.0,-0.3561,0.0,0.0,0.0,0.0,0.0,0.0,0.0,-0.4426,0.0,0.0,0.0,0.0,0.0,0.0,0.0,-0.2174,-0.2174,0.0,-0.4463,-0.4732,-0.5109,-0.5487,-0.6086,-0.6794,-0.7711,-0.7954,-0.8196,-0.838,-0.776,-0.7817,-0.8334,-0.8824,-0.9199,-0.9558,-1.0079,-1.0283,-1.0283,-1.0283,-1.039,-1.0687,-1.0155,-0.9905,0.0,0.0,-0.9831,0.0,-0.9983,-0.9032,-0.8243,-0.8078,-0.7164,-0.6332,-0.6047,-0.5878,-0.5728,-0.5586,0.0,0.0,0.0,-0.4918,-0.507,-0.5395,-0.5433,0.0,-0.532,-0.4652,-0.3938,-0.3121,-0.1673,-0.0615,0.0056,0.0112,0.0168,0.0168,0.0168,0.0112,0.0056,0.0056,0.0056,0.0,0.0,0.0,0.0,0.0,0.0,-0.0112,-0.0783,-0.1062,-0.1229,-0.1898,-0.2615,-0.3222,-0.3277,-0.3695,-0.4101,-0.4013,-0.4012,-0.3941,-0.3656,-0.3581,-0.3612,-0.3695,-0.3745,-0.3832,-0.4065,-0.4194,-0.4247,-0.4436,-0.4519,-0.4294,-0.3511,-0.3345,-0.3063,-0.228,-0.2722,-0.3382,-0.4081,0.0,0.0,0.0,0.0,0.0,0.0,-0.3597,-0.2552,0.0,0.0,0.0,0.0,0.0,0.0,-0.2174,-0.2174,-0.2954,-0.4463,-0.5109,-0.5433,-0.5542,-0.7009,-0.7723,-0.7717,-0.8191,-0.8427,-0.8393,-0.8282,-0.8268,-0.8378,-0.9112,-0.9478,-0.9558,-1.0079,-1.0283,-1.0283,-1.0361,-1.0611,-1.1094,0.0,0.0,-0.9392,-0.952,-0.8921,-0.8458,-0.8502,-0.7637,-0.6907,-0.6875,-0.643,-0.6064,-0.5874,-0.5728,-0.5579,-0.543,-0.5449,-0.5237,-0.4938,-0.4918,-0.4841,-0.4746,-0.4732,-0.4453,-0.3837,-0.3671,-0.295,-0.1619,-0.0167,0.0671,0.0838,0.1396,0.1675,0.1675,0.1675,0.1341,0.0838,0.0838,0.0504,0.0,0.0,0.0,0.0,0.0,0.0,0.0,-0.0224,-0.0615,-0.1118,-0.1284,-0.1864,-0.2519,-0.3006,-0.325,-0.3456,-0.388,-0.3938,-0.3805,-0.3629,-0.3581,-0.3496,-0.3069,-0.3128,-0.3287,-0.3349,-0.3931,-0.4423,-0.4512,-0.4519,-0.4239,-0.3456,-0.2843,-0.2211,-0.151,-0.1502,-0.1662,-0.1874,0.0,0.0,0.0,-0.4058,-0.3947,-0.3613,-0.2393,-0.1449,0.0,0.0,0.0,0.0,0.0,-0.0671,-0.2174,-0.2174,-0.2954,-0.4463,-0.468,-0.5003,-0.5542,-0.7009,-0.7723,-0.7717,-0.8191,-0.8427,-0.8387,-0.7914,-0.7914,-0.8326,-0.8741,-0.9119,-0.9558,-1.0079,-1.0283,-1.0361,-1.0687,-1.0905,-1.1132,-0.7953,-0.7936,-0.7936,-0.7936,-0.7557,-0.7227,-0.7227,-0.6763,-0.6349,-0.6278,-0.5746,-0.5497,-0.5657,-0.5281,-0.5015,-0.5274,-0.5257,-0.5159,-0.4935,-0.4853,-0.4711,-0.4529,-0.4125,-0.3735,-0.3345,-0.2336,-0.1057,0.039,0.1228,0.1619,0.1619,0.2009,0.2174,0.2174,0.2174,0.1953,0.1563,0.1229,0.0894,0.0448,0.0112,0.0,0.0,0.0,0.0,0.0,0.0,-0.028,-0.0616,-0.0616,-0.1092,-0.1749,-0.2068,-0.2354,-0.2645,-0.2985,-0.3229,-0.3336,-0.3206,-0.2993,-0.2692,-0.2466,-0.2549,-0.2677,-0.2666,-0.3076,-0.3447,-0.3445,-0.3456,-0.3231,-0.2454,-0.1983,-0.1464,-0.0692,-0.0891,-0.1095,-0.1112,-0.2118,0.0,-0.2775,-0.2788,-0.2676,-0.2343,-0.1563,-0.095,-0.0615,0.0,0.0,0.0,0.0,-0.0671,-0.2174,-0.2174,-0.2954,-0.4463,-0.4787,-0.5164,-0.5542,-0.7009,-0.7723,-0.7717,-0.8326,-0.8504,-0.84,-0.8151,-0.8132,-0.8334,-0.8865,-0.9239,-0.9558,-1.0079,-1.0283,-1.0322,-1.0582,-1.0829,-1.1132,-0.6261,-0.6338,-0.6338,-0.6338,-0.6338,-0.6338,-0.6338,-0.624,-0.6179,-0.6047,-0.5312,-0.4983,-0.5335,-0.466,-0.4349,-0.4702,-0.4791,-0.4846,-0.4894,-0.4762,-0.4565,-0.4356,-0.3677,-0.3231,-0.3065,-0.0946,0.0835,0.2174,0.2341,0.2397,0.2397,0.2508,0.2565,0.2565,0.2565,0.2454,0.2343,0.173,0.1397,0.1229,0.056,0.028,0.0168,0.028,0.0168,0.0,0.0111,0.0112,0.0,0.0,-0.0433,-0.0947,-0.1046,-0.1401,-0.1851,-0.1933,-0.2266,-0.2586,-0.2568,-0.214,-0.1711,-0.1819,-0.1949,-0.2029,-0.2037,-0.2119,-0.2207,-0.2218,-0.2174,-0.1953,-0.1229,-0.1087,-0.0849,-0.0106,-0.0516,-0.097,-0.1109,0.0,-0.2254,-0.2388,-0.2286,-0.1952,-0.134,-0.1062,-0.0671,-0.0056,0.0,0.0,0.0,0.0056,-0.0615,-0.2006,-0.2119,-0.2954,-0.4463,-0.5058,-0.5324,-0.5378,-0.674,-0.745,-0.7563,-0.8321,-0.854,-0.8407,-0.8523,-0.8518,-0.8458,-0.9112,-0.9478,-0.9677,-1.0118,-1.0283,-1.0322,-1.039,-1.0649,-1.1094,-0.6103,-0.6338,-0.6338,-0.6338,-0.6338,-0.6338,-0.6338,-0.6149,-0.6057,-0.6034,-0.5666,-0.5215,-0.4471,-0.417,-0.3789,-0.3149,-0.3511,-0.4091,-0.4676,-0.4704,-0.4333,-0.3516,-0.34,-0.2788,-0.1507,0.0112,0.1339,0.2174,0.2899,0.3234,0.3231,0.3846,0.4125,0.4125,0.4125,0.379,0.3121,0.3065,0.2676,0.2009,0.1898,0.1507,0.1006,0.1619,0.1062,0.0056,0.0703,0.0546,0.0,0.0,-0.0051,-0.0253,-0.0783,-0.1009,-0.1181,-0.1685,-0.1526,-0.1319,-0.1806,-0.1518,-0.1031,-0.1082,-0.1196,-0.1263,-0.1269,-0.1753,-0.2216,-0.2173,-0.2174,-0.1953,-0.1229,-0.1087,-0.0849,-0.0106,-0.0103,-0.0408,0.0,0.0,-0.2468,-0.3109,-0.2621,-0.2174,-0.2063,-0.0895,-0.0112,0.0,0.0,0.028,0.0895,0.0336,-0.0391,-0.1221,-0.1893,-0.2954,-0.4463,-0.4625,-0.468,-0.468,-0.5437,-0.614,-0.6804,-0.7509,-0.8059,-0.8407,-0.8153,-0.8388,-0.8963,-0.8865,-0.9359,-1.0166,-1.0283,-1.0283,-1.0361,-1.0764,-1.0943,-1.1094,-0.5366,-0.5889,-0.6338,-0.6338,-0.6338,-0.6338,-0.6338,-0.5743,-0.5247,-0.5176,-0.4143,-0.3449,-0.3413,-0.2903,-0.2574,-0.2579,-0.2839,-0.3132,-0.3318,-0.3707,-0.357,-0.2734,-0.2343,-0.1281,0.0613,0.1728,0.2676,0.3456,0.379,0.4015,0.4015,0.4349,0.4519,0.4519,0.4519,0.4294,0.3901,0.3566,0.3178,0.2732,0.2343,0.2009,0.173,0.2063,0.1786,0.1224,0.1505,0.1181,0.0594,0.0513,0.0249,-0.0049,-0.0336,-0.0423,-0.046,-0.0765,-0.0862,-0.0872,-0.0856,-0.0627,-0.0406,-0.0415,-0.047,-0.0531,-0.0513,-0.0787,-0.1017,-0.0999,-0.1006,-0.0895,-0.056,-0.049,-0.0372,-0.0053,0.0,0.0,0.0,-0.1379,-0.1718,-0.2111,-0.1842,-0.1452,-0.1062,-0.0392,0.0168,0.056,0.0616,0.0727,0.1062,0.0783,-0.0112,-0.1668,-0.2839,-0.3704,-0.4348,-0.4798,-0.5058,-0.5058,-0.5764,-0.6258,-0.6588,-0.6966,-0.7209,-0.7324,-0.7303,-0.749,-0.782,-0.8443,-0.8999,-0.9478,-1.0079,-1.0283,-1.0322,-1.0544,-1.0802,-1.1057,-0.4582,-0.5357,-0.5906,-0.5938,-0.5944,-0.5857,-0.5588,-0.4857,-0.4218,-0.4109,-0.2795,-0.1955,-0.2322,-0.1726,-0.1496,-0.1887,-0.2053,-0.2025,-0.1734,-0.2397,-0.251,-0.1953,-0.106,0.0279,0.2174,0.2899,0.368,0.4519,0.4519,0.4519,0.4519,0.4519,0.4519,0.4519,0.4519,0.4519,0.446,0.3901,0.3624,0.3511,0.2954,0.2619,0.251,0.2676,0.2508,0.2221,0.2255,0.1856,0.1318,0.1211,0.0732,0.0191,0.0189,0.0093,0.0,0.0,-0.0226,-0.0363,-0.009,0.0,0.0,0.0,0.0,0.0,0.0,0.0,0.0,0.0,0.0,0.0,0.0,0.0,0.0,0.0,0.0,0.0,0.0,-0.1074,-0.1247,-0.1558,-0.1284,-0.095,-0.056,-0.0056,0.0504,0.1062,0.1285,0.1452,0.1619,0.1284,0.0111,-0.2017,-0.3649,-0.4392,-0.4197,-0.4885,-0.5233,-0.5273,-0.5779,-0.6161,-0.6367,-0.6367,-0.6381,-0.6468,-0.6673,-0.6819,-0.6939,-0.8055,-0.8675,-0.8958,-0.9795,-1.0196,-1.0283,-1.0283,-1.0544,-1.0829,-0.4328,-0.4753,-0.4793,-0.4825,-0.4844,-0.4498,-0.3493,-0.3183,-0.3029,-0.3021,-0.2806,-0.2322,-0.1481,-0.1319,-0.0975,-0.0236,-0.0823,-0.0927,-0.0225,-0.0838,-0.1229,-0.1174,0.0168,0.134,0.2174,0.2899,0.368,0.4519,0.4519,0.4519,0.4519,0.4519,0.4519,0.4519,0.4519,0.4519,0.4519,0.4463,0.4405,0.4405,0.4349,0.3901,0.34,0.407,0.3456,0.2277,0.2948,0.2649,0.1945,0.1909,0.1429,0.0851,0.082,0.0462,0.0,0.0,0.0461,0.08,0.0182,0.0,0.0,0.0,0.0,0.0,0.0,0.0,0.0,0.0,0.0,0.0,0.0,0.0,0.0,0.0,0.0,0.0,-0.0998,-0.1113,-0.1614,-0.2952,-0.1952,-0.1341,-0.1953,-0.0167,0.1062,0.1118,0.173,0.2397,0.3121,0.1842,0.0217,-0.1777,-0.3562,-0.4392,-0.4197,-0.4256,-0.4381,-0.457,-0.4431,-0.4805,-0.5597,-0.5597,-0.5973,-0.6592,-0.6751,-0.705,-0.7562,-0.786,-0.8561,-0.9439,-0.9518,-0.9883,-1.0283,-1.0283,-1.0322,-1.0351,-0.3352,-0.3674,-0.386,-0.4485,-0.4075,-0.3595,-0.3167,-0.2551,-0.2119,-0.2097,-0.1466,-0.0895,-0.0503,-0.0488,-0.0355,-0.0057,-0.0228,-0.0284,0.0,-0.028,-0.0224,0.0223,0.1228,0.212,0.2843,0.3622,0.4184,0.4519,0.4519,0.4519,0.4519,0.4519,0.4519,0.4519,0.4519,0.4519,0.4519,0.4519,0.4519,0.4519,0.4519,0.4349,0.4125,0.4405,0.4125,0.3652,0.3715,0.3281,0.264,0.2488,0.2011,0.1459,0.1436,0.138,0.1239,0.1347,0.1485,0.1611,0.1307,0.0948,0.0677,0.058,0.0296,0.0,0.0,0.0,0.0,0.0,0.0,0.0,0.0,0.0,0.0,0.0,0.0,-0.0276,-0.1004,-0.1118,-0.1284,-0.1842,-0.1452,-0.0838,-0.0223,0.0614,0.1452,0.2397,0.2788,0.3065,0.3345,0.1055,-0.0544,-0.1246,-0.3369,-0.4348,-0.406,-0.4287,-0.4409,-0.4519,-0.4406,-0.4569,-0.4897,-0.4897,-0.5221,-0.5795,-0.6243,-0.6777,-0.7336,-0.8253,-0.8887,-0.9315,-0.9818,-0.9922,-0.9804,-0.9804,-0.9804,-0.9804,-0.2333,-0.2556,-0.2865,-0.3479,-0.3085,-0.2551,-0.221,-0.1575,-0.1113,-0.1094,-0.0459,0.0,0.0,0.0,0.0,0.0,0.0,0.0,0.0,0.0224,0.056,0.1062,0.2009,0.2788,0.3345,0.4125,0.4519,0.4519,0.4519,0.4519,0.4519,0.4519,0.4625,0.4787,0.457,0.4625,0.4787,0.457,0.4519,0.4519,0.4519,0.4519,0.4519,0.4519,0.4433,0.4368,0.4165,0.373,0.328,0.3104,0.2613,0.2101,0.2129,0.2106,0.2086,0.2362,0.2415,0.2445,0.253,0.2186,0.1706,0.1348,0.0957,0.0622,0.0381,0.0545,0.0598,0.039,0.0504,0.0671,0.0671,0.0671,0.0615,0.0392,0.0336,0.0,-0.095,-0.0895,-0.0951,-0.1396,-0.1062,-0.0335,0.067,0.1173,0.1953,0.3231,0.3566,0.3624,0.34,0.1221,-0.0328,-0.0899,-0.2789,-0.3854,-0.4043,-0.4294,-0.4419,-0.4519,-0.4416,-0.4419,-0.4519,-0.4519,-0.4674,-0.5096,-0.5859,-0.641,-0.6884,-0.8101,-0.8814,-0.9128,-0.9429,-0.9518,-0.9478,-0.9319,-0.9359,-0.9518,-0.1384,-0.1608,-0.1569,-0.1585,-0.1599,-0.1226,-0.0141,0.0,0.0,0.0,0.0,0.0,0.0,0.0,0.0,0.0,0.0,0.0,0.0,0.0727,0.1118,0.1118,0.2508,0.3345,0.34,0.4125,0.4519,0.4519,0.4519,0.4519,0.4519,0.4519,0.4842,0.5487,0.4787,0.4897,0.5433,0.4787,0.4515,0.4519,0.4515,0.4515,0.4515,0.4515,0.4372,0.4194,0.4194,0.4053,0.3792,0.3792,0.3324,0.2739,0.2856,0.2585,0.2297,0.2785,0.3152,0.3491,0.3729,0.3604,0.3209,0.225,0.2112,0.2014,0.1273,0.1688,0.2009,0.1285,0.1675,0.2174,0.2174,0.2174,0.1952,0.1229,0.1118,0.0614,-0.0894,-0.0448,-0.056,-0.2009,-0.0895,0.0,0.0,0.1336,0.2565,0.3345,0.407,0.4181,0.3456,0.2621,0.1261,-0.0794,-0.1752,-0.2854,-0.4197,-0.4194,-0.4321,-0.4515,-0.4264,-0.4271,-0.4519,-0.4519,-0.4519,-0.4563,-0.5715,-0.6191,-0.6253,-0.7139,-0.8121,-0.9007,-0.8208,-0.8553,-0.9439,-0.8878,-0.9039,-0.9478,-0.1218,-0.0888,-0.066,-0.1301,-0.0896,-0.0346,-0.007,0.0,0.0,0.0,0.0,0.0,0.0,0.0,0.0,0.0,0.0448,0.1006,0.1507,0.2232,0.2621,0.2621,0.3065,0.3566,0.4181,0.4405,0.4519,0.4519,0.4519,0.4519,0.4519,0.5003,0.5328,0.5487,0.5269,0.5328,0.5425,0.4617,0.4368,0.4508,0.4355,0.4311,0.4311,0.4311,0.4219,0.4036,0.4036,0.4029,0.3951,0.3951,0.3775,0.3617,0.3758,0.3663,0.3545,0.3896,0.3986,0.4118,0.4684,0.485,0.4548,0.3123,0.2499,0.2143,0.1923,0.2049,0.212,0.1898,0.2063,0.2174,0.2174,0.2174,0.212,0.1898,0.1452,0.095,0.0503,-0.028,-0.0727,-0.0671,-0.0279,0.039,0.1448,0.2395,0.3287,0.4125,0.4349,0.4405,0.4181,0.2445,0.116,0.0547,-0.1824,-0.3219,-0.3627,-0.3593,-0.361,-0.3677,-0.3069,-0.3128,-0.3735,-0.3735,-0.4284,-0.5214,-0.5537,-0.6178,-0.6997,-0.7385,-0.7948,-0.8537,-0.8492,-0.8439,-0.8357,-0.8193,-0.848,-0.8958,-0.0645,-0.0364,-0.0189,-0.0712,-0.0329,0.0,0.0,0.0,0.0,0.0,0.0245,0.0419,0.0463,0.0679,0.0895,0.0895,0.1284,0.1842,0.2619,0.3065,0.3456,0.379,0.379,0.4012,0.4463,0.4519,0.4519,0.4519,0.4519,0.4625,0.4893,0.5201,0.5646,0.6178,0.5908,0.576,0.5636,0.4931,0.4559,0.4365,0.4216,0.414,0.4187,0.413,0.4063,0.3938,0.3999,0.3944,0.3863,0.3982,0.406,0.4124,0.4525,0.4428,0.4271,0.4713,0.4778,0.479,0.5193,0.5619,0.5679,0.4713,0.3996,0.3445,0.3111,0.3116,0.301,0.2732,0.2899,0.3121,0.3121,0.3121,0.301,0.2676,0.2286,0.1673,0.0781,0.0167,-0.028,-0.0392,0.0056,0.0892,0.2063,0.2899,0.3677,0.4463,0.4519,0.4519,0.4519,0.289,0.172,0.1109,-0.0944,-0.2338,-0.2899,-0.2587,-0.2748,-0.3342,-0.2565,-0.2623,-0.34,-0.34,-0.4006,-0.5109,-0.5378,-0.607,-0.7045,-0.7218,-0.7729,-0.8461,-0.8422,-0.8316,-0.8193,-0.8193,-0.8561,-0.8999,0.0349,0.0176,0.0178,0.0183,0.0189,0.0191,0.0186,0.019,0.0189,0.0178,0.0764,0.1217,0.1178,0.1786,0.2174,0.2174,0.2286,0.2621,0.3456,0.3511,0.379,0.446,0.4519,0.4515,0.457,0.4515,0.4515,0.457,0.4515,0.4842,0.5483,0.532,0.5916,0.7115,0.6514,0.6147,0.5898,0.54,0.4807,0.42,0.4036,0.4053,0.416,0.4009,0.3907,0.3792,0.4007,0.3941,0.3753,0.4056,0.4151,0.4369,0.5096,0.4992,0.4707,0.5246,0.5522,0.5562,0.5553,0.6115,0.6696,0.6804,0.6253,0.5483,0.4758,0.4608,0.4401,0.3732,0.407,0.4519,0.4519,0.4519,0.4239,0.3511,0.34,0.2617,0.05,0.0669,0.0503,-0.0838,0.0223,0.1396,0.212,0.301,0.379,0.4515,0.4515,0.4519,0.4519,0.379,0.2726,0.1221,0.0444,-0.0668,-0.2063,-0.1461,-0.1786,-0.3178,-0.2391,-0.2447,-0.3178,-0.3176,-0.3622,-0.446,-0.5164,-0.5914,-0.6679,-0.6833,-0.7626,-0.8691,-0.8152,-0.8193,-0.8553,-0.8675,-0.899,-0.939,0.1746,0.1728,0.1704,0.1716,0.1704,0.1735,0.1723,0.1731,0.1715,0.1709,0.1876,0.1969,0.1961,0.212,0.2174,0.2174,0.2732,0.34,0.4184,0.4239,0.4349,0.4519,0.4519,0.4732,0.5273,0.4787,0.4732,0.5273,0.4732,0.4842,0.5483,0.6044,0.6133,0.5905,0.6219,0.6058,0.5566,0.4656,0.4358,0.4392,0.4124,0.4039,0.4053,0.3897,0.3751,0.375,0.459,0.4849,0.4836,0.5092,0.4865,0.4576,0.5217,0.5404,0.5429,0.6098,0.6333,0.6465,0.7009,0.7304,0.7616,0.8156,0.7771,0.7009,0.6303,0.5706,0.5214,0.5101,0.4728,0.4519,0.4519,0.4519,0.446,0.4294,0.3735,0.2952,0.1895,0.0891,0.0112,-0.0224,0.0557,0.1389,0.2119,0.3456,0.4567,0.5218,0.4787,0.4519,0.4519,0.379,0.2952,0.2006,0.0668,-0.0446,-0.134,-0.1165,-0.1275,-0.1563,-0.0816,-0.0872,-0.1619,-0.2174,-0.2843,-0.3622,-0.4937,-0.6091,-0.7093,-0.7334,-0.8098,-0.9112,-0.8683,-0.8047,-0.7495,-0.8382,-0.8488,-0.8407,0.2286,0.2206,0.2175,0.2175,0.2176,0.2211,0.2178,0.2202,0.2199,0.2185,0.2518,0.2728,0.2736,0.3065,0.3287,0.3287,0.3622,0.407,0.446,0.4787,0.5003,0.5003,0.5336,0.566,0.6036,0.566,0.566,0.6036,0.566,0.566,0.6032,0.6313,0.6207,0.5827,0.6137,0.5892,0.5224,0.5174,0.4832,0.4388,0.4424,0.424,0.4002,0.4226,0.4291,0.4355,0.5336,0.5539,0.5323,0.5377,0.5205,0.5113,0.5819,0.6036,0.6145,0.6912,0.7128,0.7235,0.7616,0.7937,0.8315,0.8699,0.8533,0.8049,0.7289,0.6529,0.5923,0.5597,0.5218,0.5003,0.5003,0.4736,0.4736,0.5391,0.4563,0.3729,0.3332,0.2,0.0892,0.0559,0.1171,0.2166,0.3608,0.4501,0.5109,0.5487,0.5164,0.4842,0.4515,0.4125,0.3566,0.2732,0.1614,0.0669,-0.0056,-0.0056,-0.0224,-0.0559,-0.0165,-0.0385,-0.1118,-0.1842,-0.2619,-0.34,-0.456,-0.5537,-0.6462,-0.7139,-0.7969,-0.8868,-0.9206,-0.8831,-0.8169,-0.8847,-0.874,-0.8577,0.273,0.2621,0.2621,0.2621,0.2567,0.259,0.2575,0.2569,0.2588,0.2573,0.3121,0.3511,0.3511,0.4125,0.4519,0.4519,0.4519,0.4574,0.468,0.5218,0.5542,0.5706,0.6258,0.6642,0.6804,0.6804,0.6804,0.6804,0.6642,0.6588,0.6583,0.6388,0.6142,0.5935,0.6,0.5659,0.5052,0.5886,0.5582,0.458,0.4948,0.4741,0.4304,0.482,0.5033,0.5181,0.6192,0.6283,0.5842,0.5742,0.5686,0.5814,0.6529,0.6853,0.7069,0.7717,0.8037,0.819,0.7937,0.8421,0.8962,0.8804,0.8804,0.8699,0.815,0.7391,0.6637,0.5977,0.576,0.5706,0.5706,0.5222,0.5226,0.6426,0.5605,0.4725,0.4429,0.3329,0.2228,0.1396,0.2062,0.3442,0.5647,0.576,0.576,0.5869,0.576,0.5437,0.4901,0.4736,0.4288,0.3506,0.2674,0.1842,0.1118,0.095,0.0615,0.0,0.0,-0.0336,-0.095,-0.1675,-0.2454,-0.3234,-0.4122,-0.4944,-0.5788,-0.6875,-0.7753,-0.8456,-0.9531,-0.9504,-0.8944,-0.9133,-0.907,-0.9204,0.4184,0.4184,0.4184,0.4184,0.4196,0.4203,0.4187,0.42,0.4203,0.4184,0.4294,0.4349,0.4349,0.4463,0.4519,0.4519,0.4519,0.4732,0.5324,0.5433,0.576,0.6421,0.6534,0.6912,0.7557,0.7563,0.7563,0.7563,0.6912,0.6588,0.6588,0.6558,0.5892,0.4751,0.519,0.54,0.5408,0.5436,0.5634,0.5915,0.5883,0.5643,0.5316,0.5508,0.5585,0.5738,0.6944,0.739,0.7391,0.7357,0.694,0.6583,0.7343,0.7966,0.8429,0.8633,0.9451,1.0151,0.8949,0.9152,0.951,0.8962,0.8804,0.8903,0.9406,0.8508,0.7509,0.745,0.6907,0.648,0.648,0.6372,0.6372,0.6588,0.6426,0.5869,0.459,0.4207,0.3602,0.2228,0.3274,0.4973,0.7176,0.6799,0.6691,0.7343,0.6799,0.6421,0.6317,0.571,0.5042,0.4265,0.2892,0.1842,0.1118,0.0448,0.0112,0.0,0.0,-0.0056,-0.0168,-0.0895,-0.1675,-0.2452,-0.3825,-0.519,-0.6523,-0.7548,-0.8241,-0.8665,-0.9089,-0.8446,-0.7377,-0.7859,-0.8594,-0.9619,0.4519,0.4519,0.4625,0.5003,0.5054,0.5222,0.5605,0.5664,0.5664,0.5664,0.5664,0.5664,0.5664,0.5664,0.5664,0.5664,0.5664,0.5823,0.6091,0.6524,0.6848,0.7182,0.761,0.799,0.8315,0.8315,0.8315,0.8315,0.799,0.7396,0.6588,0.702,0.6416,0.5109,0.5735,0.6065,0.614,0.6478,0.6467,0.6222,0.6504,0.6176,0.5564,0.6247,0.649,0.6647,0.7828,0.7998,0.7723,0.7723,0.7509,0.7337,0.8019,0.8751,0.9384,0.9806,1.0364,1.0661,1.0064,0.9865,0.9814,0.9917,0.9614,0.951,1.0218,0.9592,0.8764,0.8336,0.7706,0.7235,0.7235,0.7165,0.7315,0.7771,0.7433,0.6827,0.5747,0.4922,0.4152,0.3495,0.3987,0.54,0.8006,0.7953,0.8053,0.8776,0.8159,0.7576,0.7202,0.6514,0.5814,0.5093,0.399,0.289,0.173,0.1396,0.0839,0.0,0.0392,0.0392,0.0,-0.0783,-0.1284,-0.1675,-0.3602,-0.4313,-0.4354,-0.7263,-0.8031,-0.7585,-0.8898,-0.881,-0.7998,-0.8553,-0.8893,-0.9372]}]]